[[{"header":{"parameterUnit":"m.s-1","parameterCategory":1,"la1":30.6,"la2":29.2853,"lo1":-89.7004,"lo2":-87.6739,"dy":0.0162,"dx":0.0183,"nx":112,"ny":82,"refTime":"2024-07-12T00:00:00:Z","depth":0,"parameterNumber":2,"parameterNumberName":"U-component_of_WINDS"},"data":[0.0,0.0,0.0,0.0,0.0,0.0,0.0,0.0,0.0,0.0,0.0,0.0,0.0,0.0,0.0,0.0,0.0,0.0,0.0,0.0,0.0,0.0,0.0,0.0,0.0,0.0,0.0,0.0,0.0,0.0,0.0,0.0,0.0,0.0,0.0,0.0,0.0,0.0,0.0,0.0,0.0,0.0,0.0,0.0,0.0,0.0,0.0,0.0,0.0,0.0,0.0,0.0,0.0,0.0,0.0,0.0,0.0,0.0,0.0,0.0,0.0,0.0,0.0,0.0,0.0,0.0,0.0,0.0,0.0,0.0,0.0,0.0,0.0,0.0,0.0,0.0,0.0,0.0,0.0,0.0,0.0,0.0,0.0,0.0,0.0,0.0,0.0,0.0,0.0,0.0,0.0,-1.3451,-1.6249,-1.7988,-1.8005,-1.7986,-1.7277,-1.55,0.0,0.0,0.0,0.0,0.0,0.0,0.0,0.0,0.0,0.0,0.0,0.0,0.0,0.0,0.0,0.0,0.0,0.0,0.0,0.0,0.0,0.0,0.0,0.0,0.0,0.0,0.0,0.0,0.0,0.0,0.0,0.0,0.0,0.0,0.0,0.0,0.0,0.0,0.0,0.0,0.0,0.0,0.0,0.0,0.0,0.0,0.0,0.0,0.0,0.0,0.0,0.0,0.0,0.0,0.0,0.0,0.0,0.0,0.0,0.0,0.0,0.0,0.0,0.0,0.0,0.0,0.0,0.0,0.0,0.0,0.0,0.0,0.0,0.0,0.0,0.0,0.0,0.0,0.0,0.0,0.0,0.0,0.0,0.0,0.0,0.0,0.0,0.0,0.0,0.0,0.0,0.0,0.0,0.0,0.0,0.0,0.0,0.0,0.0,0.0,0.0,0.0,0.0,0.0,-1.0644,-1.2805,-1.6019,-1.8037,-1.7984,-1.8006,-1.7269,-1.5511,0.0,0.0,0.0,0.0,0.0,0.0,0.0,0.0,0.0,0.0,0.0,0.0,0.0,0.0,0.0,0.0,0.0,0.0,0.0,0.0,0.0,0.0,0.0,0.0,0.0,0.0,0.0,0.0,0.0,0.0,0.0,0.0,0.0,0.0,0.0,0.0,0.0,0.0,0.0,0.0,0.0,0.0,0.0,0.0,0.0,0.0,0.0,0.0,0.0,0.0,0.0,0.0,0.0,0.0,0.0,0.0,0.0,0.0,0.0,0.0,0.0,0.0,0.0,0.0,0.0,0.0,0.0,0.0,0.0,0.0,0.0,0.0,0.0,0.0,0.0,0.0,0.0,0.0,0.0,0.0,0.0,0.0,0.0,0.0,0.0,0.0,0.0,0.0,0.0,0.0,0.0,0.0,0.0,0.0,0.0,0.0,0.0,0.0,0.0,0.0,0.0,0.0,0.0,-1.0913,-1.2244,-1.4709,-1.4916,-1.5565,-1.714,-1.6427,-1.5753,-1.5394,-1.06,0.0,0.0,0.0,0.0,0.0,0.0,0.0,0.0,0.0,0.0,0.0,0.0,0.0,0.0,0.0,0.0,0.0,0.0,0.0,0.0,0.0,0.0,0.0,0.0,0.0,0.0,0.0,0.0,0.0,0.0,0.0,0.0,0.0,0.0,0.0,0.0,0.0,0.0,0.0,0.0,0.0,0.0,0.0,0.0,0.0,0.0,0.0,0.0,0.0,0.0,0.0,0.0,0.0,0.0,0.0,0.0,0.0,0.0,0.0,0.0,0.0,0.0,0.0,0.0,0.0,0.0,0.0,0.0,0.0,0.0,0.0,0.0,0.0,0.0,0.0,0.0,0.0,0.0,0.0,0.0,0.0,0.0,0.0,0.0,0.0,0.0,0.0,0.0,0.0,0.0,0.0,0.0,0.0,0.0,0.0,0.0,0.0,0.0,0.0,0.0,0.0,0.0,-1.2069,-1.3512,-1.5907,-1.4672,-1.4269,-1.5898,-1.4675,-1.3902,-1.4083,-1.066,0.0,0.0,0.0,0.0,0.0,0.0,0.0,0.0,0.0,0.0,0.0,0.0,0.0,0.0,0.0,0.0,0.0,0.0,0.0,0.0,0.0,0.0,0.0,0.0,0.0,0.0,0.0,0.0,0.0,0.0,0.0,0.0,0.0,0.0,0.0,0.0,0.0,0.0,0.0,0.0,0.0,0.0,0.0,0.0,0.0,0.0,0.0,0.0,0.0,0.0,0.0,0.0,0.0,0.0,0.0,0.0,0.0,0.0,0.0,0.0,0.0,0.0,0.0,0.0,0.0,0.0,0.0,0.0,0.0,0.0,0.0,0.0,0.0,0.0,0.0,0.0,0.0,0.0,0.0,0.0,0.0,0.0,0.0,0.0,0.0,0.0,0.0,0.0,0.0,0.0,0.0,0.0,0.0,0.0,0.0,0.0,0.0,0.0,0.0,0.0,0.0,0.0,-1.0616,-1.249,-1.4279,-1.6337,-1.6661,-1.4267,-1.3388,-1.2212,-1.041,-0.8311,0.0,0.0,0.0,0.0,0.0,0.0,0.0,0.0,0.0,0.0,0.0,0.0,0.0,0.0,0.0,0.0,0.0,0.0,0.0,0.0,0.0,0.0,0.0,0.0,0.0,0.0,0.0,0.0,0.0,0.0,0.0,0.0,0.0,0.0,0.0,0.0,0.0,0.0,0.0,0.0,0.0,0.0,0.0,0.0,0.0,0.0,0.0,0.0,0.0,0.0,0.0,0.0,0.0,0.0,0.0,0.0,0.0,0.0,0.0,0.0,0.0,0.0,0.0,0.0,0.0,0.0,0.0,0.0,0.0,0.0,0.0,0.0,0.0,0.0,0.0,0.0,0.0,0.0,0.0,0.0,0.0,0.0,0.0,0.0,0.0,0.0,0.0,0.0,0.0,0.0,0.0,0.0,0.0,0.0,0.0,0.0,0.0,0.0,0.0,0.0,0.0,0.0,-1.1896,-1.3901,0.0,-1.4828,-1.5431,-1.4575,-1.3725,-1.2321,-1.0279,0.0,0.0,0.0,0.0,0.0,0.0,0.0,0.0,0.0,0.0,0.0,0.0,0.0,0.0,0.0,0.0,0.0,0.0,0.0,0.0,0.0,0.0,0.0,0.0,0.0,0.0,0.0,0.0,0.0,0.0,0.0,0.0,0.0,0.0,0.0,0.0,0.0,0.0,0.0,0.0,0.0,0.0,0.0,0.0,0.0,0.0,0.0,0.0,0.0,0.0,0.0,0.0,0.0,0.0,0.0,0.0,0.0,0.0,0.0,0.0,0.0,0.0,0.0,0.0,0.0,0.0,0.0,0.0,0.0,0.0,0.0,0.0,0.0,0.0,0.0,0.0,0.0,0.0,0.0,0.0,0.0,0.0,0.0,0.0,0.0,0.0,0.0,0.0,0.0,0.0,0.0,0.0,0.0,0.0,0.0,0.0,0.0,0.0,0.0,0.0,0.0,0.0,-0.873,-1.2064,-1.4044,0.0,-1.4153,-1.4774,-1.525,-1.4262,-1.2735,-1.0598,0.0,0.0,0.0,0.0,0.0,0.0,0.0,0.0,0.0,0.0,0.0,0.0,0.0,0.0,0.0,0.0,0.0,0.0,0.0,0.0,0.0,0.0,0.0,0.0,0.0,0.0,0.0,0.0,0.0,0.0,0.0,0.0,0.0,0.0,0.0,0.0,0.0,0.0,0.0,0.0,0.0,0.0,0.0,0.0,0.0,0.0,0.0,0.0,0.0,0.0,0.0,0.0,0.0,0.0,0.0,0.0,0.0,0.0,0.0,0.0,0.0,0.0,0.0,0.0,0.0,0.0,0.0,0.0,0.0,0.0,0.0,0.0,0.0,0.0,0.0,0.0,0.0,0.0,0.0,0.0,0.0,0.0,0.0,0.0,0.0,0.0,0.0,0.0,0.0,0.0,0.0,0.0,0.0,0.0,0.0,0.0,0.0,0.0,0.0,0.0,0.0,0.0,-0.8877,-1.0577,-1.2481,-1.4621,-1.4861,-1.5241,-1.5994,-1.4873,-1.3152,0.0,0.0,0.0,0.0,0.0,0.0,0.0,0.0,0.0,0.0,0.0,0.0,0.0,0.0,0.0,0.0,0.0,0.0,0.0,0.0,0.0,0.0,0.0,0.0,0.0,0.0,0.0,0.0,0.0,0.0,0.0,0.0,0.0,0.0,0.0,0.0,0.0,0.0,0.0,0.0,0.0,0.0,0.0,0.0,0.0,0.0,0.0,0.0,0.0,0.0,0.0,0.0,0.0,0.0,0.0,0.0,0.0,0.0,0.0,0.0,0.0,0.0,0.0,0.0,0.0,0.0,0.0,0.0,0.0,0.0,0.0,0.0,0.0,0.0,0.0,0.0,0.0,0.0,0.0,0.0,0.0,0.0,0.0,0.0,0.0,0.0,0.0,0.0,0.0,0.0,0.0,0.0,0.0,0.0,0.0,0.0,0.0,0.0,0.0,0.0,0.0,0.0,0.0,-0.9335,-1.1963,-1.3677,-1.3579,-1.4565,-1.5112,-1.4814,-1.4353,-1.3183,-1.1058,0.0,0.0,0.0,0.0,0.0,0.0,0.0,0.0,0.0,0.0,0.0,0.0,0.0,0.0,0.0,0.0,0.0,0.0,0.0,0.0,0.0,0.0,0.0,0.0,0.0,0.0,0.0,0.0,0.0,0.0,0.0,0.0,0.0,0.0,0.0,0.0,0.0,0.0,0.0,0.0,0.0,0.0,0.0,0.0,0.0,0.0,0.0,0.0,0.0,0.0,0.0,0.0,0.0,0.0,0.0,0.0,0.0,0.0,0.0,0.0,0.0,0.0,0.0,0.0,0.0,0.0,0.0,0.0,0.0,0.0,0.0,0.0,0.0,0.0,0.0,0.0,0.0,0.0,0.0,0.0,0.0,0.0,0.0,0.0,0.0,0.0,0.0,0.0,0.0,0.0,0.0,0.0,0.0,0.0,0.0,0.0,0.0,0.0,0.0,0.0,0.0,0.0,-1.0233,-1.2516,-1.3989,-1.3963,-1.4815,-1.5167,-1.4746,-1.4342,-1.3227,-1.1201,0.0,0.0,0.0,0.0,0.0,0.0,0.0,0.0,0.0,0.0,0.0,0.0,0.0,0.0,0.0,0.0,0.0,0.0,0.0,0.0,0.0,0.0,0.0,0.0,0.0,0.0,0.0,0.0,0.0,0.0,0.0,0.0,0.0,0.0,0.0,0.0,0.0,0.0,0.0,0.0,0.0,0.0,0.0,0.0,0.0,0.0,0.0,0.0,0.0,0.0,0.0,0.0,0.0,0.0,0.0,0.0,0.0,0.0,0.0,0.0,0.0,0.0,0.0,0.0,0.0,0.0,0.0,0.0,0.0,0.0,0.0,0.0,0.0,0.0,0.0,0.0,0.0,0.0,0.0,0.0,0.0,0.0,0.0,0.0,0.0,0.0,0.0,0.0,0.0,0.0,0.0,0.0,0.0,0.0,0.0,0.0,0.0,0.0,0.0,0.0,0.0,0.0,-1.1315,-1.2549,-1.3784,-1.5255,-1.541,-1.541,-1.541,-1.4629,-1.3332,-1.1469,0.0,0.0,0.0,0.0,0.0,0.0,0.0,0.0,0.0,0.0,0.0,0.0,0.0,0.0,0.0,0.0,0.0,0.0,0.0,0.0,0.0,0.0,0.0,0.0,0.0,0.0,0.0,0.0,0.0,0.0,0.0,0.0,0.0,0.0,0.0,0.0,0.0,0.0,0.0,0.0,0.0,0.0,0.0,0.0,0.0,0.0,0.0,0.0,0.0,0.0,0.0,0.0,0.0,0.0,0.0,0.0,0.0,0.0,0.0,0.0,-1.2228,0.0,0.0,0.0,0.0,0.0,0.0,0.0,0.0,0.0,0.0,0.0,0.0,0.0,0.0,0.0,0.0,0.0,0.0,0.0,0.0,0.0,0.0,0.0,0.0,0.0,0.0,0.0,0.0,0.0,0.0,0.0,0.0,0.0,0.0,0.0,0.0,0.0,0.0,0.0,0.0,0.0,-1.1801,-1.3128,-1.4289,-1.5264,-1.541,-1.541,-1.541,-1.4629,-1.3665,-1.2616,0.0,0.0,0.0,0.0,0.0,0.0,0.0,0.0,0.0,0.0,0.0,0.0,0.0,0.0,0.0,0.0,0.0,0.0,0.0,0.0,0.0,0.0,0.0,0.0,0.0,0.0,0.0,0.0,0.0,0.0,0.0,0.0,0.0,0.0,0.0,0.0,0.0,0.0,0.0,0.0,0.0,0.0,0.0,0.0,0.0,0.0,0.0,0.0,0.0,0.0,0.0,0.0,0.0,0.0,0.0,0.0,0.0,0.0,0.0,0.0,0.0,-1.3722,0.0,0.0,0.0,0.0,0.0,0.0,0.0,0.0,0.0,0.0,0.0,0.0,0.0,0.0,0.0,0.0,0.0,0.0,0.0,0.0,0.0,0.0,0.0,0.0,0.0,0.0,0.0,0.0,0.0,0.0,0.0,0.0,0.0,0.0,0.0,0.0,0.0,0.0,0.0,0.0,-1.2568,-1.3542,-1.4408,-1.5322,-1.541,-1.541,-1.541,-1.4629,-1.3787,-1.3035,-1.1395,0.0,0.0,0.0,0.0,0.0,0.0,0.0,0.0,0.0,0.0,0.0,0.0,0.0,0.0,0.0,0.0,0.0,0.0,0.0,0.0,0.0,0.0,0.0,0.0,0.0,0.0,0.0,0.0,0.0,0.0,0.0,0.0,0.0,0.0,0.0,0.0,0.0,0.0,0.0,0.0,0.0,0.0,0.0,0.0,0.0,0.0,0.0,0.0,0.0,0.0,0.0,0.0,0.0,-1.7338,-1.7877,-1.8781,-1.8781,-1.9032,-1.9346,-1.7501,-1.6547,-1.622,0.0,0.0,0.0,0.0,0.0,0.0,0.0,0.0,0.0,0.0,0.0,0.0,0.0,0.0,0.0,0.0,0.0,0.0,0.0,0.0,0.0,0.0,0.0,0.0,0.0,-1.4746,-1.4424,0.0,0.0,0.0,0.0,0.0,0.0,0.0,0.0,0.0,0.0,0.0,0.0,-1.3213,-1.3945,-1.4551,-1.5332,-1.541,-1.541,-1.541,-1.4629,-1.3863,-1.3313,-1.1946,-1.0934,0.0,0.0,0.0,0.0,0.0,0.0,0.0,0.0,0.0,0.0,0.0,0.0,0.0,0.0,0.0,0.0,0.0,0.0,0.0,0.0,0.0,0.0,0.0,0.0,0.0,0.0,0.0,0.0,0.0,0.0,0.0,0.0,-1.03,-1.1491,0.0,0.0,0.0,0.0,0.0,0.0,0.0,0.0,0.0,0.0,0.0,0.0,0.0,-1.6986,-1.7685,-1.8656,-1.9472,-2.0177,-2.0602,-2.0903,-2.1054,-2.1054,-2.1091,-2.1142,-2.0853,0.0,-1.8468,-1.6936,0.0,0.0,0.0,0.0,0.0,0.0,0.0,0.0,0.0,0.0,0.0,0.0,0.0,0.0,0.0,0.0,0.0,0.0,0.0,0.0,0.0,0.0,-1.5723,-1.5781,-1.585,-1.5801,0.0,-1.3887,-1.2168,-1.0908,-1.0361,0.0,0.0,0.0,0.0,0.0,0.0,0.0,-1.3369,-1.4209,-1.4883,-1.5361,-1.541,-1.541,-1.541,-1.4629,-1.4077,-1.397,-1.2783,-1.1981,-1.1914,-1.0777,0.0,0.0,0.0,0.0,0.0,0.0,0.0,0.0,0.0,0.0,0.0,0.0,0.0,0.0,0.0,0.0,0.0,0.0,0.0,0.0,0.0,0.0,0.0,0.0,0.0,0.0,0.0,0.0,0.0,-0.9383,-1.0778,-1.1576,-1.2137,-1.2201,0.0,0.0,0.0,0.0,0.0,0.0,0.0,0.0,0.0,-1.7209,-1.8708,-1.9549,-1.9585,-2.0363,-2.1029,-2.1594,-2.1832,-2.2121,-2.2422,-2.2749,-2.2723,-2.2447,-2.3088,-2.241,-2.0765,-1.9409,-1.8342,-1.7463,0.0,0.0,0.0,0.0,-1.6183,-1.6522,-1.7496,-1.7811,0.0,0.0,0.0,0.0,0.0,0.0,0.0,0.0,0.0,0.0,0.0,0.0,0.0,-1.6748,-1.6982,-1.709,-1.6855,-1.6064,-1.4873,0.0,-1.2578,-1.2021,-1.0674,0.0,0.0,0.0,0.0,0.0,-1.4082,-1.4551,-1.4941,-1.5371,-1.541,-1.541,-1.541,-1.4629,-1.4077,-1.4077,-1.3164,-1.2598,-1.2598,-1.1807,-1.1041,0.0,0.0,0.0,0.0,0.0,0.0,0.0,0.0,0.0,0.0,0.0,0.0,0.0,0.0,0.0,0.0,0.0,0.0,0.0,0.0,0.0,0.0,0.0,0.0,0.0,0.0,0.0,0.0,-1.0379,-1.1481,-1.2456,-1.3284,-1.3422,0.0,0.0,0.0,0.0,0.0,0.0,-1.7427,-1.8699,-1.9389,-1.9512,-2.1056,-2.1706,-2.1292,-2.1995,-2.2548,-2.2949,-2.2949,-2.3175,-2.3516,-2.4017,-2.3966,-2.3553,-2.4456,-2.4104,-2.2849,-2.1606,-2.0439,-1.9397,-1.8832,-1.8367,-1.8053,-1.8455,-1.8706,-1.9007,-2.029,-2.0718,-2.0605,-1.9874,0.0,-1.8606,-1.735,0.0,0.0,0.0,0.0,-1.4902,-1.6094,-1.665,-1.7012,-1.7441,-1.7783,-1.793,-1.7607,-1.7461,-1.6836,0.0,-1.4629,-1.415,-1.2694,0.0,0.0,0.0,0.0,-1.3711,-1.4668,-1.4873,-1.5068,-1.5381,-1.541,-1.541,-1.541,-1.4629,-1.4077,-1.4077,-1.335,-1.2881,-1.2881,-1.2568,-1.2044,-1.1235,0.0,0.0,0.0,0.0,0.0,0.0,0.0,0.0,0.0,0.0,0.0,0.0,0.0,0.0,0.0,0.0,0.0,0.0,0.0,0.0,0.0,0.0,0.0,0.0,0.0,0.0,0.0,0.0,0.0,-1.523,-1.5389,0.0,0.0,0.0,0.0,-1.5793,-1.7422,-1.8681,-1.9421,-2.0664,-2.1354,-2.138,-2.2464,-2.3012,-2.2952,-2.4104,-2.4669,-2.4695,-2.4695,-2.4707,-2.4745,-2.477,-2.4757,-2.4745,-2.4795,-2.477,-2.4569,-2.2912,-2.1581,-2.0526,-1.9949,-1.9698,-1.9685,-1.971,-2.0075,-2.0605,-2.0693,-2.0718,-2.0794,-2.1217,-2.0991,-2.058,-2.0492,-1.9036,0.0,0.0,-1.7105,-1.6243,-1.708,-1.7334,-1.7461,-1.7881,-1.7998,-1.8008,-1.7978,-1.7666,-1.71,0.0,-1.6027,-1.5743,-1.4785,0.0,-1.4512,-1.4048,-1.4404,-1.4707,-1.4775,-1.5127,-1.5391,-1.541,-1.541,-1.541,-1.541,-1.4629,-1.4077,-1.4077,-1.335,-1.2881,-1.2881,-1.2861,-1.2648,-1.2164,-1.0864,0.0,0.0,0.0,0.0,0.0,0.0,0.0,0.0,0.0,0.0,0.0,0.0,0.0,0.0,0.0,0.0,0.0,0.0,0.0,0.0,0.0,0.0,0.0,0.0,0.0,0.0,0.0,0.0,-1.5567,-1.6612,0.0,-1.6735,-1.7242,-1.7834,-1.8411,-1.9378,-2.0407,-2.1465,-2.2178,-2.275,-2.33,-2.3879,-2.4217,-2.4217,-2.4619,-2.482,-2.482,-2.482,-2.482,-2.4833,-2.5172,-2.5146,-2.4858,-2.5573,-2.5473,-2.4795,-2.4544,-2.3991,-2.3251,-2.2309,-2.1945,-2.1907,-2.1543,-2.1543,-2.1782,-2.2133,-2.2246,-2.2234,-2.2071,-2.1644,-2.1192,-2.1192,-2.0353,-1.9504,-1.9889,-1.9313,-1.8561,-1.8575,-1.8619,-1.8527,-1.8104,-1.8008,-1.8008,-1.8008,-1.7891,-1.7695,-1.7373,-1.6875,-1.6309,-1.5713,-1.585,-1.5889,-1.5439,-1.5752,-1.5937,-1.5644,-1.5742,-1.5723,-1.5439,-1.541,-1.541,-1.541,-1.4629,-1.4077,-1.4077,-1.335,-1.2881,-1.2881,-1.2881,-1.2813,-1.2677,-1.1236,-0.9848,0.0,0.0,0.0,0.0,0.0,0.0,0.0,0.0,0.0,0.0,0.0,0.0,0.0,0.0,0.0,0.0,0.0,0.0,0.0,0.0,0.0,0.0,0.0,0.0,0.0,0.0,-1.5567,-1.6685,-1.7802,-1.8405,-1.8216,-1.9045,-1.9725,-2.0101,-2.0967,-2.2021,-2.316,-2.3785,-2.4502,-2.5316,-2.5735,-2.5819,-2.5525,-2.5703,-2.561,-2.5372,-2.5372,-2.5372,-2.5385,-2.5737,-2.5699,-2.5423,-2.6138,-2.605,-2.5398,-2.5749,-2.5686,-2.5259,-2.4142,-2.3703,-2.3665,-2.3288,-2.315,-2.3213,-2.3577,-2.3703,-2.3578,-2.3276,-2.2912,-2.2611,-2.2611,-2.2053,-2.1498,-2.177,-2.1163,-2.0392,-2.0302,-1.9796,-1.9218,-1.8778,-1.8378,-1.8008,-1.8008,-1.8008,-1.8008,-1.8008,-1.7549,-1.7021,-1.6582,-1.6758,-1.6807,-1.6357,-1.6543,-1.6621,-1.6328,-1.6152,-1.5947,-1.5664,-1.5498,-1.541,-1.541,-1.4629,-1.4077,-1.4077,-1.335,-1.2881,-1.2881,-1.2666,-1.255,-1.255,-1.0871,-0.9486,-0.8351,0.0,0.0,0.0,0.0,0.0,0.0,0.0,0.0,0.0,0.0,0.0,0.0,0.0,0.0,0.0,0.0,0.0,0.0,0.0,0.0,0.0,0.0,0.0,-1.4837,-1.5442,-1.6622,-1.8745,-1.9033,-1.9321,-1.9849,-2.0413,-2.0806,-2.0844,-2.2284,-2.3569,-2.4465,-2.5521,-2.656,-2.7357,-2.7922,-2.7824,-2.6956,-2.7446,-2.7284,-2.6521,-2.6533,-2.6533,-2.6533,-2.6533,-2.6533,-2.6533,-2.6533,-2.6533,-2.6533,-2.6533,-2.6533,-2.642,-2.5272,-2.4845,-2.4845,-2.4833,-2.482,-2.482,-2.482,-2.482,-2.482,-2.482,-2.482,-2.482,-2.482,-2.4198,-2.3568,-2.3568,-2.2527,-2.1587,-2.2139,-2.0806,-1.9502,-2.0012,-1.9046,-1.8008,-1.8008,-1.8008,-1.8008,-1.8008,-1.8008,-1.7881,-1.7471,-1.7402,-1.7256,-1.6836,-1.6714,0.0,-1.6694,-1.6367,-1.6154,-1.6125,-1.5684,-1.543,-1.541,-1.4629,-1.4077,-1.4077,-1.335,-1.2881,-1.2881,-1.2187,-1.1814,-1.1765,-0.9914,-0.8573,-0.7908,0.0,0.0,0.0,0.0,0.0,0.0,0.0,0.0,0.0,0.0,0.0,0.0,0.0,0.0,0.0,0.0,0.0,0.0,0.0,0.0,0.0,0.0,-1.5097,-1.5932,-1.7576,-1.8907,-1.951,-2.0313,-2.1179,-2.2121,-2.2359,-2.2799,-2.3615,-2.4674,-2.558,-2.6403,-2.7188,-2.7977,-2.8753,-2.8745,-2.8691,-2.8438,-2.7971,-2.7604,-2.7351,-2.6782,-2.6533,-2.6533,-2.6533,-2.6533,-2.6533,-2.6533,-2.6533,-2.6533,-2.6533,-2.6533,-2.6458,-2.5661,-2.5385,-2.5335,-2.4958,-2.482,-2.482,-2.482,-2.482,-2.482,-2.482,-2.482,-2.482,-2.482,-2.4613,-2.4406,-2.4406,-2.4153,-2.3729,-2.3266,-2.2476,-2.1621,-2.1163,-1.9969,-1.8911,-1.8911,-1.8462,-1.8008,-1.8008,-1.8008,-1.7978,-1.7852,-1.7842,-1.7793,-1.7676,-1.7656,0.0,-1.7246,-1.709,-1.6777,-1.6194,-1.5957,-1.5752,-1.5439,-1.4629,-1.4077,-1.4077,-1.335,-1.2881,-1.2881,-1.2715,-1.2098,-1.1116,-1.0103,-0.9066,0.0,0.0,0.0,0.0,0.0,0.0,0.0,0.0,0.0,0.0,0.0,0.0,0.0,0.0,0.0,0.0,0.0,0.0,0.0,0.0,0.0,0.0,-1.5994,-1.7122,-1.8434,-1.951,-2.0338,-2.0803,-2.143,-2.2272,-2.3389,-2.3502,-2.3866,-2.4757,-2.5818,-2.6787,-2.758,-2.8573,-2.9408,-3.0221,-3.0141,-2.969,-2.9002,-2.8492,-2.7855,-2.7162,-2.6714,-2.6533,-2.6533,-2.6533,-2.6533,0.0,-2.6533,-2.6533,-2.6533,-2.6533,-2.6533,0.0,0.0,0.0,0.0,0.0,-2.5511,-2.5511,-2.5511,-2.5511,-2.5511,-2.5511,-2.5511,-2.5511,-2.5511,-2.5511,-2.5511,-2.5511,-2.5335,-2.5065,-2.4798,-2.3887,-2.2965,-2.2689,-2.1062,-1.966,-1.966,-1.8785,-1.8008,-1.8008,0.0,0.0,-1.8008,-1.8008,-1.8008,-1.8008,-1.8008,-1.793,-1.7676,-1.749,-1.7187,-1.667,-1.6351,-1.5957,-1.5703,-1.4902,0.0,0.0,0.0,-1.3219,-1.2745,-1.2736,0.0,0.0,0.0,0.0,0.0,0.0,0.0,0.0,-0.7903,-0.811,0.0,0.0,0.0,0.0,0.0,0.0,0.0,0.0,0.0,0.0,0.0,0.0,0.0,0.0,0.0,0.0,-1.8461,-1.9655,-2.1375,-2.1217,-2.128,-2.2196,-2.2422,-2.2924,-2.3991,-2.4142,-2.4406,-2.4958,-2.631,-2.7467,-2.8263,0.0,0.0,0.0,0.0,-3.0924,-2.9512,-2.94,-2.8565,-2.696,-2.684,-2.6716,-2.671,-2.6647,-2.6647,-2.6653,-2.6653,-2.6684,-2.6622,-2.6622,-2.6584,-2.6533,-2.6533,-2.6533,-2.6533,-2.6533,-2.6533,-2.6533,-2.6533,0.0,0.0,-2.6533,-2.6533,-2.6533,-2.6533,-2.6533,-2.6533,-2.6533,-2.6088,-2.5812,-2.6327,-2.5111,-2.3838,-2.435,-2.2298,-2.0275,-2.0318,-1.9076,-1.8018,-1.8076,-1.8047,-1.8008,-1.8008,-1.8008,-1.8008,-1.8008,-1.8008,-1.8008,-1.8008,-1.7686,-1.7432,-1.7393,0.0,0.0,-1.6135,-1.5322,-1.4834,-1.4785,-1.4375,-1.3691,-1.2745,-1.2675,-1.2351,-1.169,-1.0895,-1.0612,-1.0899,-1.0105,-0.9746,-0.9766,-0.8951,-0.9145,0.0,0.0,0.0,0.0,0.0,0.0,0.0,0.0,0.0,0.0,0.0,0.0,0.0,0.0,0.0,-1.782,-1.9341,-2.0706,-2.1943,-2.2447,-2.2573,-2.2334,-2.3113,-2.3941,-2.4594,-2.5046,-2.5523,-2.6101,-2.7694,-2.8697,-2.8837,-3.0392,0.0,-3.2302,-3.2332,-3.2392,-3.2638,-3.1907,-3.1059,-2.9984,0.0,0.0,-2.777,-2.7318,-2.7369,-2.7783,-2.7783,-2.7544,-2.713,-2.713,-2.6866,-2.6533,-2.6533,-2.6533,-2.6533,-2.6533,-2.6533,-2.6533,-2.6533,-2.6533,-2.6533,-2.6533,-2.6533,-2.6533,-2.6533,-2.6533,0.0,-2.6533,-2.6445,-2.6314,-2.6496,-2.5882,-2.5195,-2.5282,-2.3187,-2.123,-2.1539,-1.975,-1.8115,-1.8447,-1.8242,-1.8008,-1.8008,-1.8008,-1.8008,-1.8008,-1.8008,-1.8008,-1.8008,-1.7939,-1.7764,-1.7422,-1.7227,-1.6836,-1.6184,-1.5586,-1.5146,-1.4805,-1.4375,-1.3995,-1.3801,-1.3792,-1.3471,-1.2806,-1.2024,-1.1392,-1.0899,-1.0321,-1.0154,-1.0443,-0.9967,-1.0027,0.0,0.0,0.0,0.0,0.0,0.0,0.0,0.0,0.0,0.0,0.0,-1.4648,-1.5936,0.0,-1.8142,-1.9981,-2.0952,-2.1737,-2.2589,-2.2902,-2.2977,-2.2761,-2.3477,-2.4217,-2.477,-2.5297,-2.5837,-2.6483,-2.8051,-2.914,-2.9495,-3.1064,-3.2332,-3.2976,-3.3006,-3.2958,-3.2882,-3.1947,-3.1065,-3.0132,-2.8965,-2.8311,-2.8097,-2.7821,-2.7846,-2.8109,-2.8109,-2.7946,-2.767,-2.7394,-2.7118,-2.6841,-2.6634,-2.6533,-2.6533,-2.6533,-2.6533,-2.6533,-2.6533,-2.6533,-2.6533,-2.6533,-2.6533,-2.6533,-2.6533,-2.6533,-2.6533,-2.6533,-2.6533,-2.6533,-2.6533,-2.6251,-2.6025,-2.6025,-2.4062,-2.2194,-2.2441,-2.0296,-1.8389,-1.8523,-1.8301,-1.8008,-1.8008,-1.8008,-1.8008,-1.8008,-1.8008,-1.8008,-1.8008,-1.8008,-1.793,-1.7715,-1.751,-1.7207,-1.6768,-1.6123,-1.5557,-1.5127,-1.4893,-1.4678,-1.4473,-1.4463,-1.4289,-1.3949,-1.3144,-1.2503,-1.1929,-1.1431,-1.1059,-1.0782,-1.0922,-1.1076,0.0,0.0,0.0,0.0,0.0,0.0,0.0,0.0,-1.4387,-1.5064,-1.6164,-1.7399,-1.8542,-1.948,-2.0584,-2.2043,-2.2498,-2.2799,-2.3238,-2.3301,-2.3301,-2.3301,-2.3816,-2.4343,-2.4782,-2.5385,-2.5963,-2.6496,-2.8051,-2.9265,-2.9924,-3.1591,-3.2871,-3.3664,-3.3679,-3.3413,-3.2867,-3.191,-3.0952,-3.0064,-2.9073,-2.8543,-2.8423,-2.831,-2.8335,-2.8423,-2.831,-2.826,-2.8222,-2.767,-2.7381,-2.7243,-2.6791,-2.6622,-2.6533,-2.6533,-2.6533,-2.6533,-2.6533,-2.6533,-2.6533,-2.6533,-2.6533,-2.6533,-2.6533,-2.6533,-2.6533,-2.6533,-2.6533,-2.6533,-2.6533,-2.6533,-2.6533,-2.6533,-2.4809,-2.3174,-2.3063,-2.0836,-1.8863,-1.875,-1.8359,-1.8008,-1.8008,-1.8008,-1.8008,-1.8008,-1.8008,-1.8008,-1.8008,-1.8008,-1.8008,-1.8008,-1.7705,-1.7471,-1.7393,-1.6572,-1.5918,-1.5557,-1.5459,-1.5254,-1.4922,-1.499,-1.5029,-1.5029,-1.4341,-1.3826,-1.3462,-1.2861,-1.2196,-1.1436,-1.1922,-1.2077,-1.296,-1.3223,-1.3994,-1.557,-1.5222,-1.5205,0.0,0.0,-1.7953,-1.897,-1.9202,-1.9498,-2.0279,-2.0795,-2.1318,-2.2168,-2.315,-2.3828,-2.3891,-2.3904,-2.3904,-2.3904,-2.4393,-2.4757,-2.4808,-2.5749,-2.6458,-2.6521,-2.8051,-2.9265,-2.9924,-3.1591,-3.308,-3.4322,-3.4367,-3.4651,-3.5135,-3.4109,-3.3168,-3.2258,-3.0842,-2.9973,-2.9591,-2.9063,-2.9114,-2.9578,-2.9063,-2.8837,-2.88,-2.8235,-2.772,-2.7268,-2.7218,-2.6892,-2.6533,-2.6533,-2.6533,-2.6533,-2.6533,-2.6533,-2.6533,-2.6533,-2.6533,-2.6533,-2.6533,-2.6533,-2.6533,-2.6533,-2.6533,-2.6533,-2.6533,-2.6533,-2.6533,-2.6533,-2.5294,-2.4014,-2.3553,-2.1555,-1.9772,-1.9275,-1.8564,-1.8008,-1.8008,-1.8008,-1.8008,-1.8008,-1.8008,-1.8008,-1.8008,-1.8008,-1.8008,-1.8008,-1.7969,-1.7793,-1.7422,-1.6572,-1.6105,-1.6056,-1.5625,-1.5391,-1.5342,-1.5713,-1.5978,-1.5978,-1.5526,-1.5278,-1.5186,-1.4456,-1.3723,-1.3016,-1.309,-1.2706,-1.5004,-1.5498,0.0,0.0,-1.739,-1.7677,-1.9145,-1.956,-1.9761,-2.0213,-2.0772,-2.1267,-2.1562,-2.2407,-2.3204,0.0,-2.4761,-2.5495,-2.5875,-2.5227,-2.4728,-2.4728,-2.448,-2.4469,-2.4795,-2.5511,-2.6101,-2.6496,-2.8424,-2.9854,-3.053,-3.2572,-3.4098,-3.504,-3.507,-3.522,-3.5504,-3.3973,-3.3241,-3.338,-3.1645,-3.0747,-3.062,-3.0361,-3.0036,-2.9779,-2.9528,-2.9428,-2.939,-2.8812,-2.8448,-2.8185,-2.7532,-2.7143,-2.6904,-2.6647,-2.6533,-2.6533,-2.6533,-2.6533,-2.6533,-2.6533,-2.6533,-2.6533,-2.6533,-2.6533,-2.6533,-2.6533,-2.6533,-2.6533,-2.6533,-2.6533,-2.6533,-2.6533,-2.555,-2.4649,-2.4434,-2.2535,-2.0697,-2.0278,-1.9203,-1.8291,-1.8047,-1.8008,-1.8008,-1.8008,-1.8008,-1.8008,-1.8008,-1.8008,-1.8008,-1.8008,-1.8008,-1.7842,-1.7422,-1.7041,-1.6728,-1.6475,-1.6279,-1.6064,-1.5801,-1.6027,-1.6125,-1.6125,-1.5913,-1.5738,-1.5514,-1.5349,-1.4605,-1.3337,-1.3454,-1.3042,-1.6982,0.0,0.0,-1.9265,-1.962,-1.994,-2.0628,-2.0964,-2.1154,-2.1317,-2.2027,-2.2585,-2.2585,-2.3524,-2.4446,-2.4905,-2.5911,-2.6754,-2.7228,-2.6202,-2.5468,-2.5468,-2.46,-2.4217,-2.477,-2.5297,-2.5837,-2.6483,-2.8652,-3.0294,-3.0971,-3.3229,-3.4801,-3.5489,-3.5504,-3.5359,-3.5067,-3.3685,-3.3171,-3.3602,-3.2249,-3.1609,-3.1609,-3.1315,-3.0833,-3.0139,-2.9934,-2.9934,-3.0101,-2.9403,-2.9214,-2.9211,-2.8119,-2.7557,-2.7231,-2.6829,-2.6659,-2.6533,-2.6533,-2.6533,-2.6533,-2.6533,-2.6533,-2.6533,-2.6533,-2.6533,-2.6533,-2.6533,-2.6533,-2.6533,-2.6533,-2.6533,-2.6533,-2.6533,-2.5955,-2.537,-2.5087,-2.3289,-2.1624,-2.1079,-1.9809,-1.8682,-1.8252,-1.8184,-1.8144,-1.8027,-1.8008,-1.8008,-1.8008,-1.8008,-1.8008,-1.8008,-1.8008,-1.7881,-1.7578,-1.7451,-1.7246,-1.6934,-1.6797,-1.6592,-1.626,-1.6367,-1.6488,-1.6488,-1.6543,-1.6485,-1.6188,-1.6409,-1.5727,-1.4228,-1.4126,-1.3593,0.0,0.0,-2.1067,-2.2275,-2.2152,-2.2008,-2.3039,-2.2724,-2.241,-2.2949,-2.3148,-2.327,-2.327,-2.3878,-2.4379,-2.4447,-2.5949,-2.7179,-2.7193,-2.6533,-2.6043,-2.6043,-2.4857,-2.4217,0.0,-2.5297,-2.5837,-2.6483,-2.8652,-3.0294,-3.0971,-3.3229,-3.4801,-3.5489,-3.5504,-3.5052,-3.4027,-3.4027,-3.3518,-3.2664,-3.2593,-3.2522,-3.2522,-3.1609,-3.118,-3.1106,-3.0216,-3.0355,-3.1106,-3.0126,-3.0022,-3.0217,-2.9249,-2.8222,-2.7281,-2.7268,-2.6917,-2.6533,-2.6533,-2.6533,-2.6533,-2.6533,-2.6533,-2.6533,-2.6533,-2.6533,-2.6533,-2.6533,-2.6533,-2.6533,-2.6533,-2.6533,-2.6533,-2.6533,-2.6465,-2.6164,-2.5229,-2.3872,-2.2584,-2.1553,-2.0265,-1.9131,-1.8691,-1.8553,-1.8477,-1.8076,-1.8008,-1.8008,-1.8008,-1.8008,-1.8008,-1.8008,-1.8008,-1.8008,-1.7988,-1.7617,-1.7373,-1.7363,-1.6973,-1.6665,-1.6709,-1.7119,-1.7344,-1.7344,-1.7744,-1.7959,-1.7901,-1.791,-1.7413,-1.648,-1.5579,-1.4593,0.0,0.0,-2.2273,-2.3138,-2.3497,-2.3794,-2.4559,-2.3841,-2.3223,-2.3843,-2.2961,-2.2234,-2.264,-2.3308,-2.4077,-2.5015,-2.6837,-2.8233,-2.8537,-2.7982,-2.725,-2.6701,-2.5422,0.0,0.0,0.0,0.0,-2.6483,-2.8497,-3.0052,-3.0918,-3.3001,-3.4604,-3.5489,-3.4839,-3.4327,-3.4027,-3.2749,-3.2593,-3.3518,-3.3518,-3.3518,-3.3518,-3.2522,-3.2105,-3.2105,-3.1756,-3.1829,-3.2033,-3.1119,-3.079,-3.079,-2.9427,-2.8473,-2.7783,-2.7419,-2.6929,-2.6533,-2.6533,-2.6533,-2.6533,-2.6533,-2.6533,-2.6533,-2.6533,-2.6533,-2.6533,-2.6533,-2.6533,-2.6533,-2.6533,-2.6533,-2.6533,-2.6533,-2.6533,-2.6383,-2.6094,-2.4566,-2.3106,-2.2507,-2.0948,-1.9473,-1.876,-1.8562,-1.8496,-1.8076,-1.8008,-1.8008,-1.8008,-1.8008,-1.8008,-1.8008,-1.8008,-1.8008,-1.8008,-1.7881,-1.7803,-1.7803,-1.7666,-1.7451,-1.7178,-1.7305,-1.7383,-1.7383,-1.7519,-1.7734,-1.8008,-1.8008,-1.7501,-1.6558,-1.628,-1.5579,0.0,-2.2776,-2.3926,-2.4554,-2.4977,-2.5261,-2.5404,-2.4586,-2.3743,-2.3697,-2.2719,-2.192,-2.209,-2.2737,-2.3632,-2.4946,-2.6652,-2.8052,-2.8814,-2.827,-2.7547,-2.6993,-2.5999,-2.5536,0.0,0.0,0.0,-2.6533,-2.8529,-3.0027,-3.0406,-3.2359,-3.3822,-3.4409,-3.3822,-3.331,-3.3031,-3.2177,-3.2464,-3.4027,-3.4394,-3.4543,-3.4476,-3.3533,-3.3101,-3.3101,-3.2749,-3.282,-3.3031,-3.1742,-3.1389,-3.1469,-2.9627,-2.8586,-2.8047,-2.7494,-2.6929,-2.6533,-2.6533,-2.6533,-2.6533,-2.6533,-2.6533,-2.6533,-2.6533,-2.6533,-2.6533,-2.6533,-2.6533,-2.6533,-2.6533,-2.6533,-2.6533,-2.6533,-2.6533,-2.6533,-2.6533,-2.5205,-2.3944,-2.3707,-2.2039,-2.0376,-1.9494,-1.8814,-1.832,-1.8047,-1.8008,-1.8008,-1.8008,-1.8008,-1.8008,-1.8008,-1.8008,-1.8008,-1.8008,-1.8008,-1.8008,-1.8008,-1.8008,-1.7891,-1.7617,-1.7607,-1.7607,-1.7607,-1.7607,-1.7744,-1.8008,-1.8008,-1.7716,-1.707,-1.6775,-1.636,-2.3355,-2.4657,-2.5809,-2.6482,-2.6593,-2.639,-2.5726,-2.4944,-2.4031,-2.2743,-2.2418,-2.2169,0.0,0.0,-2.3041,-2.4313,-2.555,-2.6791,-2.8082,-2.753,-2.7022,0.0,0.0,0.0,0.0,0.0,0.0,-2.6697,0.0,-3.0111,-2.9601,-3.1466,-3.2522,-3.2593,-3.2522,-3.2105,-3.118,-3.2105,-3.3031,-3.3945,-3.4986,-3.5504,-3.5439,-3.4543,-3.4095,-3.4027,-3.3171,-3.3241,-3.3945,-3.2105,-3.1888,-3.2409,-2.9938,-2.8686,-2.8107,-2.7519,-2.6954,-2.6533,-2.6533,-2.6533,-2.6533,-2.6533,-2.6533,-2.6533,-2.6533,-2.6533,-2.6533,-2.6533,-2.6533,-2.6533,-2.6533,-2.6533,-2.6533,-2.6533,-2.6533,-2.6533,-2.6533,-2.5734,-2.5004,-2.5004,-2.3345,-2.1723,-2.0862,-1.9233,-1.8066,-1.8047,-1.8047,-1.8037,-1.8008,-1.8008,-1.8008,-1.8008,-1.8008,-1.8008,-1.8008,-1.8008,-1.8008,-1.8008,-1.8008,-1.8008,-1.8008,-1.8008,-1.8008,-1.8008,-1.8008,-1.8008,-1.8008,-1.8008,-1.8008,-1.8008,-1.707,-1.6863,-2.4732,-2.5704,-2.6497,-2.7156,-2.7339,-2.7128,-2.6476,-2.5058,-2.3794,-2.3358,-2.1744,-2.0376,-2.0185,0.0,0.0,-2.3041,-2.5488,0.0,-2.7351,-2.8353,0.0,0.0,0.0,-2.7682,-2.7682,-2.831,0.0,0.0,-2.867,-2.9507,-3.0138,-3.1076,-3.1888,-3.2593,-3.1888,-3.1462,-3.118,-3.2105,-3.2749,-3.2961,-3.4706,-3.5504,-3.5504,-3.5213,-3.5133,-3.5133,-3.4854,-3.492,-3.4986,-3.3822,-3.3449,-3.3435,-3.1435,-2.9986,-2.9028,-2.821,-2.7281,-2.6533,-2.6533,-2.6533,-2.6533,-2.6533,-2.6533,-2.6533,-2.6533,-2.6533,-2.6533,-2.6533,-2.6533,-2.6533,-2.6533,-2.6533,-2.6533,-2.6533,-2.6533,-2.6533,-2.6533,-2.5734,-2.5004,-2.5004,-2.3151,-2.124,-2.0296,-1.9452,-1.8848,-1.8525,-1.8477,-1.8359,-1.8047,-1.8008,-1.8008,-1.8008,-1.8008,-1.8008,-1.8008,-1.8008,-1.8008,-1.8008,-1.8008,-1.8008,-1.8008,-1.8008,-1.8008,-1.8008,-1.8008,-1.8008,-1.8008,-1.8008,-1.8008,-1.8008,-1.7725,-1.7877,-2.5749,-2.6512,-2.7111,-2.7535,-2.74,-2.6901,-2.5944,-2.4667,-2.3304,-2.2148,-2.0705,0.0,-1.8917,0.0,0.0,0.0,0.0,0.0,-2.6886,-2.7978,-2.8333,0.0,-2.7984,0.0,-2.8461,-2.8976,-2.9176,0.0,-2.9139,-2.9416,-2.9731,-3.0248,-3.0846,-3.1341,-3.0833,-3.0558,-3.0558,-3.1901,-3.2593,-3.2593,-3.4558,-3.5504,-3.5504,-3.5504,-3.5504,-3.5504,0.0,-3.5504,-3.5424,-3.4394,-3.4027,-3.3819,-3.1803,-3.0361,-2.9399,-2.8285,-2.7316,-2.6533,-2.6533,-2.6533,-2.6533,-2.6533,-2.6533,-2.6533,-2.6533,-2.6533,-2.6533,-2.6533,-2.6533,-2.6533,-2.6533,-2.6533,-2.6533,-2.6533,-2.6533,-2.6533,-2.6533,-2.6025,-2.537,-2.448,-2.3133,-2.1574,-2.0127,-1.9404,-1.8916,-1.8672,-1.8477,-1.8281,-1.8037,-1.8008,-1.8008,-1.8008,-1.8008,-1.8008,-1.8008,-1.8008,-1.8008,-1.8008,-1.8008,-1.8008,-1.8008,-1.8008,-1.8008,-1.8008,-1.8008,-1.8008,-1.8008,-1.8008,-1.8008,-1.8008,-1.8008,-1.8242,-2.6542,-2.7141,-2.7625,-2.7625,-2.7006,-2.6138,-2.4911,-2.3938,-2.2615,-2.0205,0.0,-1.9101,-1.7819,-1.8747,-2.0318,-2.2233,0.0,-2.4915,-2.6772,-2.7354,-2.7576,-2.7452,-2.8373,-2.9038,-2.9038,-2.9503,-2.9792,-2.9792,-2.9792,-2.9578,-2.9063,-2.9515,-2.9792,-2.9792,-2.9792,-2.9792,-2.9792,-3.1696,-3.2593,-3.2593,-3.4558,-3.5504,-3.5504,-3.5504,-3.5504,-3.5504,0.0,0.0,-3.5424,-3.4543,-3.4177,-3.398,-3.1921,-3.0596,-2.9722,-2.8305,-2.7348,-2.6658,-2.6521,-2.6533,-2.6533,-2.6533,-2.6533,-2.6533,-2.6533,-2.6533,-2.6533,-2.6533,-2.6533,-2.6533,-2.6533,-2.6533,-2.6533,-2.6533,-2.6533,-2.6533,-2.6533,-2.6533,-2.5943,-2.4036,-2.3406,-2.259,-2.0575,-1.965,-1.9103,-1.8994,-1.8518,-1.8203,-1.8212,-1.8076,-1.8008,-1.8008,-1.8008,-1.8008,-1.8008,-1.8008,-1.8008,-1.8008,-1.8008,-1.8008,-1.8008,-1.8008,-1.8008,-1.8008,-1.8008,-1.8008,-1.8008,-1.8008,-1.8008,-1.8008,-1.8008,-1.8242,-2.7215,-2.7535,-2.7625,-2.7625,-2.6662,-2.557,-2.4761,-2.3065,0.0,0.0,0.0,-1.8159,-1.7073,-1.8433,0.0,-2.1635,0.0,0.0,0.0,0.0,-2.897,0.0,0.0,0.0,0.0,0.0,0.0,0.0,0.0,-2.9741,-2.9641,-2.9741,-2.9792,-2.9792,-2.9792,-2.9792,-2.9792,-3.1696,-3.2593,-3.2593,-3.4558,-3.5504,-3.5504,-3.5504,-3.5504,-3.5504,-3.5504,0.0,-3.5504,-3.5294,-3.5213,-3.5059,-3.3396,-3.2288,-3.1443,-2.9188,-2.7998,-2.7417,-2.6714,-2.6533,-2.6533,-2.6533,-2.6533,-2.6533,-2.6533,-2.6533,-2.6533,-2.6533,-2.6533,-2.6533,-2.6533,-2.6533,-2.6533,-2.6533,-2.6533,-2.6533,-2.6533,-2.6533,-2.6164,-2.5004,-2.4708,-2.4153,-2.2496,-2.2073,-2.1691,-2.0893,-2.0111,-1.9458,-1.9085,-1.8462,-1.8008,-1.8008,-1.8008,-1.8008,-1.8008,-1.8008,-1.8008,-1.8008,-1.8008,-1.8008,-1.8008,-1.8008,-1.8008,-1.8008,-1.8008,-1.8008,-1.8008,-1.8008,-1.8008,-1.8008,-1.8008,-1.8242,-2.748,-2.7625,-2.7625,-2.7625,-2.6318,-2.4882,-2.4079,0.0,0.0,0.0,0.0,-1.7673,-1.6676,0.0,0.0,0.0,0.0,0.0,0.0,0.0,0.0,0.0,0.0,0.0,0.0,0.0,0.0,0.0,0.0,0.0,-2.9792,-2.9792,-2.9792,-2.9792,-2.9792,-2.9792,-2.9792,-3.1696,-3.2593,-3.2593,-3.4558,-3.5504,-3.5504,-3.5504,-3.5504,-3.5504,-3.5504,0.0,-3.5504,-3.5504,-3.5504,-3.5335,-3.3893,-3.2829,-3.1897,-2.9618,-2.8344,-2.7604,-2.6782,-2.6533,-2.6533,-2.6533,-2.6533,-2.6533,-2.6533,-2.6533,-2.6533,-2.6533,-2.6533,-2.6533,-2.6533,-2.6533,-2.6533,-2.6533,-2.6533,-2.6533,-2.6533,-2.6533,-2.6164,-2.5229,-2.479,-2.4155,-2.2902,-2.2291,-2.1788,-2.1241,-2.0698,-1.9995,-1.9396,-1.8911,-1.8529,-1.8076,-1.8008,-1.8008,-1.8008,-1.8008,-1.8008,-1.8008,-1.8008,-1.8008,-1.8008,-1.8008,-1.8008,-1.8008,-1.8008,-1.8008,-1.8008,-1.8008,-1.8008,-1.8008,-1.8008,-1.8115,-2.7516,-2.7555,-2.7595,-2.7395,-2.5963,-2.4277,-2.3218,-2.1456,0.0,0.0,-1.7743,-1.7417,-1.6476,0.0,0.0,0.0,0.0,0.0,0.0,0.0,0.0,0.0,0.0,0.0,0.0,0.0,0.0,0.0,0.0,0.0,-2.9792,-2.9792,-2.9792,-2.9792,-2.9792,-2.9792,-2.9792,-3.1696,-3.2593,-3.2593,-3.4558,-3.5504,-3.5504,-3.5504,-3.5504,-3.5504,-3.5504,0.0,0.0,-3.534,-3.5295,-3.516,-3.3814,-3.2877,-3.2,-3.0037,-2.8748,-2.7855,-2.704,-2.6658,-2.6533,-2.6533,-2.6533,-2.6533,-2.6533,-2.6533,-2.6533,-2.6533,-2.6533,-2.6533,-2.6533,-2.6533,-2.6533,-2.6533,-2.6533,-2.6533,-2.6533,-2.6533,-2.6245,-2.5441,-2.4867,-2.4184,-2.3283,-2.2376,-2.1735,-2.1621,-2.1225,-2.0655,-1.9944,-1.9694,-1.9299,-1.8654,-1.8202,-1.8008,-1.8008,-1.8008,-1.8008,-1.8008,-1.8008,-1.8008,-1.8008,-1.8008,-1.8008,-1.8008,-1.8008,-1.8008,-1.8008,-1.8008,-1.8008,-1.8008,-1.8008,-1.8008,-2.7211,-2.7537,-2.7475,-2.6826,-2.5485,-2.3969,-2.2593,0.0,0.0,-1.8031,-1.7552,-1.7117,-1.6436,-1.6952,0.0,0.0,0.0,0.0,0.0,0.0,0.0,0.0,0.0,0.0,0.0,0.0,0.0,0.0,0.0,0.0,0.0,-2.9792,-2.9792,-2.9792,-2.9792,-2.9792,-2.9792,-3.1696,-3.2593,-3.2593,-3.4558,-3.5504,-3.5504,-3.5504,-3.5504,-3.5504,-3.5504,0.0,0.0,-3.4831,-3.4562,-3.4442,-3.3125,-3.2542,-3.2258,-3.0771,-2.9628,-2.8748,-2.7855,-2.7095,-2.6533,-2.6533,-2.6533,-2.6533,-2.6533,-2.6533,-2.6533,-2.6533,-2.6533,-2.6533,-2.6533,-2.6533,-2.6533,-2.6533,-2.6533,-2.6533,-2.6533,-2.6533,-2.6452,-2.6383,-2.5852,-2.5315,-2.4698,-2.4126,-2.3555,-2.3033,-2.2285,-2.1753,-2.169,-2.0974,-2.0462,-2.0398,-1.8911,-1.8008,-1.8008,-1.8008,-1.8008,-1.8008,-1.8008,-1.8008,-1.8008,-1.8008,-1.8008,-1.8008,-1.8008,-1.8008,-1.8008,-1.8008,-1.8008,-1.8008,-1.8008,-1.8008,-2.6184,-2.666,-2.6916,-2.6662,-2.5439,-2.3875,-2.2248,0.0,-1.9088,-1.8021,-1.7679,-1.7408,-1.6722,-1.7149,-1.78,0.0,-1.9061,-2.0075,0.0,0.0,0.0,0.0,0.0,0.0,0.0,0.0,0.0,0.0,0.0,0.0,0.0,-3.0139,-2.9792,-2.9792,-2.9792,-2.9792,-2.9792,-3.1119,-3.2033,-3.2593,-3.3973,-3.4905,-3.5504,-3.5504,-3.5504,-3.5504,-3.5504,0.0,0.0,-3.4592,-3.4247,-3.3784,-3.2871,-3.2512,-3.2303,-3.0817,-3.0072,-2.9628,-2.8812,-2.8233,-2.792,-2.7417,-2.7229,-2.7095,-2.6658,-2.6533,-2.6533,-2.6533,-2.6533,-2.6533,-2.6533,-2.6533,-2.6533,-2.6533,-2.6533,-2.6533,-2.6533,-2.6533,-2.6533,-2.6533,-2.5737,-2.5059,-2.4858,-2.4079,-2.3401,-2.3115,-2.2823,-2.2445,-2.1939,-2.1628,-2.1175,-2.0655,-1.9497,-1.8787,-1.8787,-1.8269,-1.8008,-1.8008,-1.8008,-1.8008,-1.8008,-1.8008,-1.8008,-1.8008,-1.8008,-1.8008,-1.8008,-1.8008,-1.8008,-1.8008,-1.8008,-1.8008,-2.5412,-2.5925,-2.6272,-2.6443,-2.5318,-2.3725,0.0,0.0,-1.9242,-1.8047,-1.7726,-1.7479,-1.6917,-1.7109,-1.7374,0.0,-1.7837,-1.8724,-2.0378,0.0,0.0,0.0,0.0,0.0,0.0,0.0,0.0,0.0,0.0,0.0,0.0,-3.0983,-3.0495,-3.0203,-3.0216,-3.0075,-2.9792,-3.0771,-3.1669,-3.2593,-3.3518,-3.4543,-3.5489,-3.5295,-3.519,-3.519,0.0,0.0,0.0,-3.3978,-3.3619,-3.314,-3.2482,-3.2213,-3.2109,-3.1072,-3.0524,-3.0208,-2.9566,-2.9192,-2.8876,-2.8298,-2.792,-2.7604,-2.704,-2.6714,-2.6533,-2.6533,-2.6533,-2.6533,-2.6533,-2.6533,-2.6533,-2.6533,-2.6533,-2.6533,-2.6533,-2.6533,-2.6483,-2.6239,-2.546,-2.477,-2.4607,-2.3778,-2.3078,-2.3078,-2.3078,-2.2884,-2.2322,-2.2249,-2.2002,-2.1416,-2.0333,-1.9562,-1.9299,-1.8529,-1.8008,-1.8008,-1.8008,-1.8008,-1.8008,-1.8008,-1.8008,-1.8008,-1.8008,-1.8008,-1.8008,-1.8008,-1.8008,-1.8008,-1.8008,-1.8144,-2.5209,-2.5552,-2.5459,-2.6043,-2.5044,-2.3474,0.0,-2.0722,-1.9579,-1.8093,-1.7526,-1.7199,-1.6866,-1.6528,-1.6394,-1.6668,-1.6815,-1.777,-2.0257,0.0,0.0,0.0,0.0,0.0,0.0,0.0,0.0,0.0,0.0,0.0,0.0,-3.2593,-3.2177,-3.118,-3.118,-3.0758,-2.9792,-3.0771,-3.1669,-3.2593,-3.3518,-3.4543,-3.5489,-3.4801,-3.4487,0.0,0.0,0.0,0.0,-3.2796,-3.2527,-3.2452,-3.1735,-3.1482,-3.1482,-3.1482,-3.097,-3.0329,-3.0269,-2.969,-2.9002,-2.9002,-2.8427,-2.767,-2.767,-2.7095,-2.6533,-2.6533,-2.6533,-2.6533,-2.6533,-2.6533,-2.6533,-2.6533,-2.6533,-2.6533,-2.6533,-2.6533,-2.6289,-2.5724,-2.5184,-2.4644,-2.4104,-2.3527,-2.3078,-2.3078,-2.3078,-2.3078,-2.3078,-2.3078,-2.3065,-2.3078,-2.1604,-2.0268,-1.9365,-1.8529,-1.8008,-1.8008,-1.8008,-1.8008,-1.8008,-1.8008,-1.8008,-1.8008,-1.8008,-1.8008,-1.8008,-1.8008,-1.8008,-1.8008,-1.8008,-1.8467,-2.2099,-2.2952,-2.3519,-2.3196,-2.3039,-2.2426,-2.0453,-2.0007,-1.9579,-1.8093,-1.7526,-1.7199,-1.6866,-1.6528,-1.6686,-1.7852,0.0,0.0,0.0,0.0,0.0,0.0,0.0,0.0,0.0,0.0,0.0,0.0,0.0,0.0,0.0,-3.3122,-3.2585,-3.1228,-3.0811,-3.0394,-2.9792,-3.0407,-3.1307,-3.2593,-3.3121,-3.3901,-3.4786,-3.4113,0.0,0.0,0.0,0.0,0.0,-3.2602,-3.2243,-3.1824,-3.1556,-3.1482,-3.1482,-3.1482,-3.1351,-3.1087,-3.1087,-3.097,-3.0644,-3.0072,-2.969,-2.938,-2.8748,-2.7604,-2.6533,-2.6533,-2.6533,-2.6533,-2.6533,-2.6533,-2.6533,-2.6533,-2.6533,-2.6533,-2.6533,-2.6151,-2.5812,-2.5636,-2.487,-2.4205,-2.4029,-2.3514,-2.3078,-2.3078,-2.3078,-2.3078,-2.3078,-2.3078,-2.3078,-2.3078,-2.1604,-2.0462,-2.0204,-1.8854,-1.8008,-1.8008,-1.8008,-1.8008,-1.8008,-1.8008,-1.8008,-1.8008,-1.8008,-1.8008,-1.8008,-1.8008,-1.8008,-1.8008,-1.8008,-1.8467,0.0,-2.115,-2.1905,-2.1924,-2.1809,-2.1313,-1.9904,-1.9562,-1.9266,-1.8065,-1.7432,-1.7052,-1.6841,-1.6421,-1.6527,-1.7762,0.0,0.0,0.0,0.0,0.0,0.0,0.0,0.0,0.0,0.0,0.0,0.0,0.0,0.0,0.0,-3.3384,-3.2917,-3.1553,-3.0888,-3.0405,-3.0134,-3.0059,-3.0818,-3.24,-3.2587,-3.3229,-3.4083,-3.3425,0.0,0.0,0.0,0.0,0.0,-3.2138,-3.1898,-3.1482,-3.1482,-3.1482,-3.1482,-3.1482,-3.1482,-3.1482,-3.1482,-3.1482,-3.1409,-3.0896,-3.0524,-3.0072,-2.8876,-2.7802,-2.6905,-2.6589,-2.6533,-2.6533,-2.6533,-2.6533,-2.6533,-2.6533,-2.6533,-2.6471,-2.6189,-2.585,-2.5473,-2.5071,-2.4456,-2.3929,-2.3715,-2.3376,-2.3078,-2.3078,-2.3078,-2.3078,-2.3078,-2.3078,-2.3078,-2.3078,-2.1865,-2.0974,-2.0655,-1.8977,-1.8008,-1.8008,-1.8008,-1.8008,-1.8008,-1.8008,-1.8008,-1.8008,-1.8008,-1.8008,-1.8008,-1.8008,-1.8008,-1.8008,-1.8008,-1.8467,0.0,-1.9884,-2.0421,-2.1541,-2.0966,-2.0063,-1.9824,-1.9283,0.0,-1.7901,-1.7264,-1.6821,-1.6891,-1.6327,-1.6099,-1.6861,0.0,0.0,0.0,0.0,0.0,0.0,0.0,0.0,0.0,0.0,0.0,0.0,0.0,0.0,0.0,-3.338,-3.2951,-3.2075,-3.1204,-3.0715,-3.0528,-2.9885,-3.0351,-3.2012,-3.2097,-3.262,-3.341,-3.2736,0.0,0.0,0.0,0.0,0.0,-3.1482,-3.1482,-3.1482,-3.1482,-3.1482,-3.1482,-3.1482,-3.1482,-3.1482,-3.1482,-3.1482,-3.1482,-3.1482,-3.097,-3.0072,-2.8298,-2.7736,-2.755,-2.6714,-2.6533,-2.6533,-2.6533,-2.6533,-2.6533,-2.6533,-2.6496,-2.6251,-2.5711,-2.5536,-2.5184,-2.4192,-2.3966,-2.3766,-2.3226,-2.3078,-2.3078,-2.3078,-2.3078,-2.3078,-2.3078,-2.3078,-2.3078,-2.3078,-2.2384,-2.1553,-2.0782,-1.911,-1.8076,-1.8008,-1.8008,-1.8008,-1.8008,-1.8008,-1.8008,-1.8008,-1.8008,-1.8008,-1.8008,-1.8008,-1.8008,-1.8008,-1.8008,-1.8467,-1.5592,0.0,-1.7513,-1.7248,-1.7373,-1.7546,0.0,-1.7777,-1.7946,0.0,0.0,-1.703,-1.772,-1.7121,-1.7204,0.0,0.0,0.0,0.0,0.0,0.0,0.0,0.0,0.0,0.0,0.0,0.0,0.0,0.0,0.0,0.0,-3.2273,-3.1871,-3.1679,-3.0838,-3.0197,-2.9717,-3.038,-3.0918,-3.1132,-3.198,-3.2541,-3.2721,-3.2063,0.0,0.0,0.0,0.0,-3.1482,-3.1482,-3.1482,-3.1482,-3.1482,-3.1482,-3.1482,-3.1482,-3.1482,-3.1482,-3.1482,-3.1482,-3.1482,-3.1482,-3.1351,-3.0896,-2.9192,-2.8247,-2.755,-2.6714,-2.6533,-2.6533,-2.6533,-2.6533,-2.6533,-2.6533,-2.6126,-2.5762,-2.5624,-2.4958,-2.4305,-2.4054,-2.364,-2.3288,-2.3103,-2.3078,-2.3078,-2.3078,-2.3078,-2.3078,-2.3078,-2.3078,-2.3078,-2.3078,-2.2384,-2.1815,-2.1616,-2.0009,-1.8721,-1.8008,-1.8008,-1.8008,-1.8008,-1.8008,-1.8008,-1.8008,-1.8008,-1.8008,-1.8008,-1.8008,-1.8008,-1.8008,-1.8008,-1.8467,-1.4005,-1.5561,-1.7101,-1.6712,-1.7151,-1.7693,-1.7693,0.0,0.0,0.0,0.0,0.0,-1.7867,0.0,0.0,0.0,0.0,0.0,0.0,0.0,0.0,0.0,0.0,0.0,0.0,0.0,0.0,0.0,0.0,0.0,0.0,-3.1676,-3.1482,-3.1482,-3.1087,-3.0722,-3.0359,-3.0668,-3.0931,-3.1151,-3.1721,-3.2063,-3.2048,-3.1704,-3.1482,0.0,0.0,0.0,-3.1482,-3.1482,-3.1482,-3.1482,-3.1482,-3.1482,-3.1482,-3.1482,-3.1482,-3.1482,-3.1482,-3.1482,-3.1482,-3.1482,-3.1482,-3.1219,-2.9504,-2.8684,-2.8051,-2.685,-2.6533,-2.6533,-2.6533,-2.6533,-2.6458,-2.6126,-2.5824,-2.546,-2.4971,-2.4406,-2.3916,-2.3653,-2.3351,-2.3078,-2.3078,-2.3078,-2.3078,-2.3078,-2.3078,-2.3078,-2.3078,-2.3078,-2.3078,-2.3078,-2.2689,-2.2322,-2.1939,-2.1049,-1.9944,-1.8654,-1.8202,-1.8008,-1.8008,-1.8008,-1.8008,-1.8008,-1.8008,-1.8008,-1.8008,-1.8008,-1.8008,-1.8008,-1.8008,-1.8359,-1.3667,-1.5714,-1.7726,-1.7366,-1.8031,-1.8724,-1.8724,0.0,0.0,0.0,0.0,0.0,0.0,0.0,0.0,0.0,0.0,0.0,0.0,0.0,0.0,0.0,0.0,0.0,0.0,0.0,0.0,0.0,0.0,0.0,0.0,-3.1482,-3.1482,-3.1482,-3.1482,-3.1482,-3.1482,-3.0837,-3.0777,-3.1351,-3.1409,-3.1482,-3.1482,-3.1482,-3.1482,0.0,0.0,0.0,-3.1482,-3.1482,-3.1482,-3.1482,-3.1482,-3.1482,-3.1482,-3.1482,-3.1482,-3.1482,-3.1482,-3.1482,-3.1482,-3.1482,-3.1482,-3.1219,-2.969,-2.9059,-2.8548,-2.6966,-2.6463,-2.6327,-2.6327,-2.6264,-2.6088,-2.5598,-2.541,-2.5109,-2.4192,-2.3929,-2.3715,-2.3226,-2.3078,-2.3078,-2.3078,-2.3078,-2.3078,-2.3078,-2.3078,-2.3078,-2.3078,-2.3078,-2.3078,-2.3078,-2.3078,-2.2823,-2.2125,-2.1939,-2.1302,-1.9814,-1.8721,-1.8134,-1.8008,-1.8008,-1.8008,-1.8008,-1.8008,-1.8008,-1.8008,-1.8008,-1.8008,-1.8008,-1.8008,-1.8242,-1.4958,-1.6509,-1.7354,-1.5457,-1.6509,-1.798,-1.798,0.0,0.0,0.0,0.0,0.0,0.0,0.0,0.0,0.0,0.0,0.0,0.0,0.0,0.0,0.0,0.0,0.0,0.0,0.0,0.0,0.0,0.0,0.0,0.0,0.0,-3.1482,-3.1482,-3.1482,-3.1482,-3.1482,-3.1409,-3.1029,-3.0524,-3.1161,-3.1482,-3.1482,-3.1482,-3.1482,0.0,0.0,-3.1482,-3.1482,-3.1482,-3.1482,-3.1482,-3.1482,-3.1482,-3.1482,-3.1482,-3.1482,-3.1482,-3.1482,-3.1482,-3.1482,-3.1482,-3.1482,-3.1351,-3.0389,-2.9275,-2.8119,-2.7125,-2.6308,-2.5724,-2.5724,-2.5398,-2.5059,-2.4958,-2.4582,-2.4205,-2.4029,-2.3615,-2.3238,-2.309,-2.3078,-2.3078,-2.3078,-2.3078,-2.3078,-2.3078,-2.3078,-2.3078,-2.3078,-2.3078,-2.3078,-2.3078,-2.3078,-2.3078,-2.2944,-2.2322,-2.1815,-2.1491,-2.0009,-1.8787,-1.8008,-1.8008,-1.8008,-1.8008,-1.8008,-1.8008,-1.8008,-1.8008,-1.8008,-1.8008,-1.8008,-1.8242,-1.4244,-1.5764,-1.6948,-1.5933,-1.7676,-1.9739,-2.0145,0.0,0.0,0.0,0.0,0.0,0.0,0.0,0.0,0.0,0.0,0.0,0.0,0.0,0.0,0.0,0.0,0.0,0.0,0.0,0.0,0.0,0.0,0.0,0.0,0.0,-3.1482,-3.1482,-3.1482,-3.1482,-3.1482,-3.1482,-3.1278,-3.097,-3.1351,-3.1482,-3.1482,-3.1482,-3.1482,-3.1482,0.0,-3.1482,-3.1482,-3.1482,-3.1482,-3.1482,-3.1482,-3.1482,-3.1482,-3.1482,-3.1482,-3.1482,-3.1482,-3.1482,-3.1482,-3.1482,-3.1482,-3.1218,-2.9611,-2.8694,-2.7852,-2.6192,-2.5497,-2.5172,-2.5172,-2.4996,-2.4745,-2.4456,-2.418,-2.3916,-2.3602,-2.3326,-2.3078,-2.3078,-2.3078,-2.3078,-2.3078,-2.3078,-2.3078,-2.3078,-2.3078,-2.3078,-2.3078,-2.3078,-2.3078,-2.3078,-2.3078,-2.3078,-2.3078,-2.2763,-2.1928,-2.059,-1.9748,-1.8911,-1.8008,-1.8008,-1.8008,-1.8008,-1.8008,-1.8008,-1.8008,-1.8008,-1.8008,-1.8008,-1.8008,-1.8115,-1.3837,-1.5276,-1.6783,-1.7139,0.0,-2.1211,-2.231,0.0,0.0,0.0,0.0,0.0,0.0,0.0,0.0,0.0,0.0,0.0,0.0,0.0,0.0,0.0,0.0,0.0,0.0,0.0,0.0,0.0,0.0,0.0,0.0,0.0,-3.1482,-3.1482,-3.1375,-3.13,-3.13,-3.115,-3.1168,-3.1482,-3.1482,-3.1482,-3.1482,-3.1482,-3.1482,-3.1467,-3.1302,-3.13,-3.1228,-3.1135,-3.1076,-3.1076,-3.1076,-3.1076,-3.1076,-3.1076,-3.1076,-3.1076,-3.1076,-3.1076,-3.1076,-3.1076,-3.0947,-3.0468,-2.8746,-2.7908,-2.7155,-2.5394,-2.4646,-2.4456,-2.4594,-2.4531,-2.4318,-2.3904,-2.3803,-2.3678,-2.3226,-2.3078,-2.3078,-2.3078,-2.3078,-2.3078,-2.3078,-2.3078,-2.3078,-2.3078,-2.3078,-2.3078,-2.3078,-2.3078,-2.3078,-2.3078,-2.3078,-2.3078,-2.3078,-2.3078,-2.2175,-2.0074,-1.9562,-1.8911,-1.8008,-1.8008,-1.8008,-1.8008,-1.8008,-1.8008,-1.8008,-1.8008,-1.8008,-1.8008,-1.8008,-1.8008,-1.5149,-1.6072,-1.7037,-1.8386,-1.9435,0.0,-2.2835,-2.2803,0.0,0.0,0.0,0.0,0.0,0.0,0.0,0.0,0.0,0.0,0.0,0.0,0.0,0.0,0.0,0.0,0.0,0.0,0.0,0.0,0.0,0.0,0.0,0.0,0.0,-3.1482,-3.0911,-3.0567,-3.0567,-3.0013,-3.0328,-3.1482,-3.1482,-3.1482,-3.1482,-3.1482,-3.1482,-3.1437,-3.0851,-3.0567,-3.0537,-2.9968,-2.9729,-2.9729,-2.9729,-2.9729,-2.9729,-2.9729,-2.9729,-2.9729,-2.9729,-2.9729,-2.9729,-2.9729,-2.9215,-2.8582,-2.8425,-2.7009,-2.5395,-2.5236,-2.421,-2.3315,-2.3916,-2.3653,-2.3178,-2.314,-2.3128,-2.3128,-2.3078,-2.3078,-2.3078,-2.3078,-2.3078,-2.3078,-2.3078,-2.3078,-2.3078,-2.3078,-2.3078,-2.3078,-2.3078,-2.3078,-2.3078,-2.3078,-2.3078,-2.3078,-2.3078,-2.3078,-2.2689,-2.1753,-2.0204,-1.8911,-1.8008,-1.8008,-1.8008,-1.8008,-1.8008,-1.8008,-1.8008,-1.8008,-1.8008,-1.8008,-1.8008,-1.8008,-1.4246,-1.5507,-1.6953,-1.7963,0.0,0.0,0.0,0.0,0.0,0.0,0.0,0.0,0.0,0.0,0.0,0.0,0.0,0.0,0.0,0.0,0.0,0.0,0.0,0.0,0.0,0.0,0.0,0.0,0.0,0.0,0.0,0.0,0.0,-3.0313,-3.0058,-2.9924,-2.9924,-2.9699,-2.9834,-3.0313,-3.0313,-3.0313,-3.0313,-3.0313,-3.0313,-3.0298,-3.0043,-2.9924,-2.9909,-2.9669,-2.9579,-2.9579,-2.9579,-2.9579,-2.9579,-2.9579,-2.9579,-2.9579,-2.9579,-2.9579,-2.9579,-2.9579,-2.9083,-2.8267,-2.7428,-2.6216,-2.5031,-2.4167,-2.3517,-2.3128,-2.3401,-2.3301,-2.3078,-2.3078,-2.3078,-2.3078,-2.3078,-2.3078,-2.3078,-2.3078,-2.3078,-2.3078,-2.3078,-2.3078,-2.3078,-2.3078,-2.3078,-2.3078,-2.3078,-2.3078,-2.3078,-2.3078,-2.3078,-2.3078,-2.3078,-2.3078,-2.2763,-2.1939,-2.0782,-1.9694,-1.8854,-1.8269,-1.8008,-1.8008,-1.8008,-1.8008,-1.8008,-1.8008,-1.8008,-1.8008,-1.8008,-1.8008,-1.4377,-1.5741,-1.7352,0.0,0.0,0.0,0.0,0.0,0.0,0.0,0.0,0.0,0.0,0.0,0.0,0.0,0.0,0.0,0.0,0.0,0.0,0.0,0.0,0.0,0.0,0.0,0.0,0.0,0.0,0.0,0.0,0.0,0.0,0.0,-2.9385,-2.9265,-2.9265,-2.9056,-2.8951,-2.8951,-2.8951,-2.9175,-2.9579,-2.9579,-2.9579,-2.9564,-2.937,-2.9265,-2.925,-2.9041,-2.8951,-2.8951,-2.8951,-2.8951,-2.8951,-2.8951,-2.8951,-2.8951,-2.8951,-2.8951,-2.8951,-2.8951,-2.8286,-2.7272,-2.6357,-2.5374,-2.4352,-2.3346,-2.3078,-2.3078,-2.3078,-2.3078,-2.3078,-2.3078,-2.3078,-2.3078,-2.3078,-2.3078,-2.3078,-2.3078,-2.3078,-2.3078,-2.3078,-2.3078,-2.3078,-2.3078,-2.3078,-2.3078,-2.3078,-2.3078,-2.3078,-2.3078,-2.3078,-2.3078,-2.3078,-2.3078,-2.2884,-2.2322,-2.1491,-2.0526,-1.9365,-1.8721,-1.8269,-1.8008,-1.8008,-1.8008,-1.8008,-1.8008,-1.8008,-1.8008,-1.8008,-1.8008,-1.6011,-1.7067,-1.8399,0.0,0.0,0.0,0.0,0.0,0.0,0.0,0.0,0.0,0.0,0.0,0.0,0.0,0.0,0.0,0.0,0.0,0.0,0.0,0.0,0.0,0.0,0.0,0.0,0.0,0.0,0.0,0.0,0.0,0.0,0.0,-2.8936,-2.8592,-2.8592,-2.7919,-2.7625,-2.7625,-2.7625,-2.8329,-2.9564,-2.9564,-2.9564,-2.952,-2.8861,-2.8592,-2.8547,-2.7859,-2.7625,-2.7625,-2.7625,-2.7625,-2.7625,-2.7625,-2.7625,-2.7625,-2.7625,-2.7625,-2.7625,-2.7575,-2.6587,-2.5398,-2.5398,-2.4323,-2.3078,-2.3078,-2.3078,-2.3078,-2.3078,-2.3078,-2.3078,-2.3078,-2.3078,-2.3078,-2.3078,-2.3078,-2.3078,-2.3078,-2.3078,-2.3078,-2.3078,-2.3078,-2.3078,-2.3078,-2.3078,-2.3078,-2.3078,-2.3078,-2.3078,-2.3078,-2.3078,-2.3078,-2.3078,-2.3078,-2.3078,-2.3078,-2.2384,-2.1101,-1.9431,-1.9299,-1.8911,-1.8008,-1.8008,-1.8008,-1.8008,-1.8008,-1.8008,-1.8008,-1.8008,-1.8008,-1.537,-1.6689,0.0,0.0,0.0,0.0,0.0,0.0,0.0,0.0,0.0,0.0,0.0,0.0,0.0,0.0,0.0,0.0,0.0,0.0,0.0,0.0,0.0,0.0,0.0,0.0,0.0,0.0,0.0,0.0,0.0,0.0,0.0,0.0,-2.7979,-2.7874,-2.7874,-2.773,-2.7625,-2.7625,-2.7625,-2.7835,-2.8225,-2.8652,-2.8601,-2.821,-2.8438,-2.8312,-2.7859,-2.77,-2.7625,-2.7625,-2.7625,-2.7625,-2.7625,-2.7625,-2.7625,-2.7625,-2.7625,-2.7625,-2.7509,-2.6982,-2.6162,-2.5287,-2.4794,-2.393,-2.3078,-2.3078,-2.3078,-2.3078,-2.3078,-2.3078,-2.3078,-2.3078,-2.3078,-2.3078,-2.3078,-2.3078,-2.3078,-2.3078,-2.3078,-2.3078,-2.3078,-2.3078,-2.3078,-2.3078,-2.3078,-2.3078,-2.3078,-2.3078,-2.3078,-2.3078,-2.3078,-2.3078,-2.3078,-2.3078,-2.3078,-2.3078,-2.2884,-2.2249,-2.1164,-1.9944,-1.9177,-1.8911,-1.8337,-1.8008,-1.8008,-1.8008,-1.8008,-1.8008,-1.8008,-1.8008,-1.6657,0.0,0.0,0.0,0.0,0.0,0.0,0.0,0.0,0.0,0.0,0.0,0.0,0.0,0.0,0.0,0.0,0.0,0.0,0.0,0.0,0.0,0.0,0.0,0.0,0.0,0.0,0.0,0.0,0.0,0.0,0.0,0.0,0.0,-2.7625,-2.7625,-2.7625,-2.7625,-2.7625,-2.7625,-2.7625,-2.7625,-2.7625,-2.8238,-2.8189,-2.7625,-2.7993,-2.7959,-2.7625,-2.7625,-2.7625,-2.7625,-2.7625,-2.7625,-2.7625,-2.7625,-2.7625,-2.7625,-2.7625,-2.7625,-2.7458,-2.6721,-2.6014,-2.5231,-2.4509,-2.3721,-2.3078,-2.3078,-2.3078,-2.3078,-2.3078,-2.3078,-2.3078,-2.3078,-2.3078,-2.3078,-2.3078,-2.3078,-2.3078,-2.3078,-2.3078,-2.3078,-2.3078,-2.3078,-2.3078,-2.3078,-2.3078,-2.3078,-2.3078,-2.3078,-2.3078,-2.3078,-2.3078,-2.3078,-2.3078,-2.3078,-2.3078,-2.3078,-2.3078,-2.2884,-2.2384,-2.1037,-2.0009,-1.9299,-1.8787,-1.8337,-1.8008,-1.8008,-1.8008,-1.8008,-1.8008,-1.8008,0.0,0.0,0.0,0.0,0.0,0.0,0.0,0.0,0.0,0.0,0.0,0.0,0.0,0.0,0.0,0.0,0.0,0.0,0.0,0.0,0.0,0.0,0.0,0.0,0.0,0.0,0.0,0.0,0.0,0.0,0.0,0.0,0.0,0.0,-2.7625,-2.7625,-2.7625,-2.7625,-2.7625,0.0,-2.7625,-2.7625,-2.7625,-2.8238,-2.8189,-2.766,-2.7625,-2.7625,-2.7625,-2.7625,-2.7625,-2.7625,-2.7625,-2.7625,-2.7625,-2.7625,-2.7625,-2.7625,-2.7625,-2.7625,-2.7458,-2.6721,-2.6068,-2.5342,-2.4624,-2.3826,-2.3185,-2.3185,-2.3138,-2.3078,-2.3078,-2.3078,-2.3078,-2.3078,-2.3078,-2.3078,-2.3078,-2.3078,-2.3078,-2.3078,-2.3078,-2.3078,-2.3078,-2.3078,-2.3078,-2.3078,-2.3078,-2.3078,-2.3078,-2.3078,-2.3078,-2.3078,-2.3078,-2.3078,-2.3078,-2.3078,-2.3078,-2.3078,-2.3078,-2.3078,-2.3078,-2.2384,-2.1227,-1.9683,-1.9365,-1.8844,-1.8144,-1.8008,-1.8008,-1.8008,-1.8008,-1.8008,0.0,0.0,0.0,0.0,0.0,0.0,0.0,0.0,0.0,0.0,0.0,0.0,0.0,0.0,0.0,0.0,0.0,0.0,0.0,0.0,0.0,0.0,0.0,0.0,0.0,0.0,0.0,0.0,0.0,0.0,0.0,0.0,0.0,-2.7625,-2.7625,-2.7625,-2.7625,-2.7625,-2.7625,0.0,-2.7625,-2.7625,-2.7625,-2.8238,-2.8415,-2.8271,-2.781,-2.7625,-2.7625,-2.7625,-2.7625,-2.7625,-2.7625,-2.7625,-2.7625,-2.7625,-2.7625,-2.7625,-2.7625,-2.7625,-2.7458,-2.6721,-2.6404,-2.6122,-2.5398,-2.4624,-2.406,-2.406,-2.3603,-2.3078,-2.3078,-2.3078,-2.3078,-2.3078,-2.3078,-2.3078,-2.3078,-2.3078,-2.3078,-2.3078,-2.3078,-2.3078,-2.3078,-2.3078,-2.3078,-2.3078,-2.3078,-2.3078,-2.3078,-2.3078,-2.3078,-2.3078,-2.3078,-2.3078,-2.3078,-2.3078,-2.3078,-2.3078,-2.3078,-2.3078,-2.3078,-2.2944,-2.2689,-2.231,-1.9683,-1.8529,-1.9044,-1.8337,-1.8008,-1.8008,-1.8008,-1.8008,0.0,0.0,0.0,0.0,0.0,0.0,0.0,0.0,0.0,0.0,0.0,0.0,0.0,0.0,0.0,0.0,0.0,0.0,0.0,0.0,0.0,0.0,0.0,0.0,0.0,0.0,0.0,0.0,0.0,0.0,0.0,-2.6931,-2.7096,-2.7096,-2.7096,-2.7096,-2.7096,-2.6782,-2.6632,-2.6632,-2.6632,-2.6632,-2.6647,-2.7606,-2.8238,-2.8463,-2.786,-2.7625,-2.7625,-2.7625,-2.7625,-2.7625,-2.7625,-2.7625,-2.7625,-2.7625,-2.7625,-2.7625,-2.7625,-2.7625,-2.7458,-2.6721,-2.651,-2.6336,-2.5618,-2.4908,-2.4292,-2.4292,-2.3708,-2.3078,-2.3078,-2.3078,-2.3078,-2.3078,-2.3078,-2.3078,-2.3078,-2.3078,-2.3078,-2.3078,-2.3078,-2.3078,-2.3078,-2.3078,-2.3078,-2.3078,-2.3078,-2.3078,-2.3078,-2.3078,-2.3078,-2.3078,-2.3078,-2.3078,-2.3078,-2.3078,-2.3078,-2.3078,-2.3078,-2.3078,-2.3078,-2.3078,-2.3078,-2.3078,-2.0962,-1.9694,-1.9299,-1.8854,-1.8395,-1.8008,-1.8462,-1.8586,0.0,0.0,0.0,0.0,0.0,0.0,0.0,0.0,0.0,0.0,0.0,0.0,0.0,0.0,0.0,0.0,0.0,0.0,0.0,0.0,0.0,0.0,0.0,0.0,0.0,0.0,0.0,0.0,0.0,0.0,-2.5615,-2.6123,-2.6422,-2.6422,-2.6422,-2.6422,-2.6422,-2.5884,-2.5661,-2.574,-2.5817,-2.5863,-2.5894,-2.6916,-2.7671,-2.815,-2.7629,-2.7505,-2.7625,-2.7625,-2.7625,-2.7625,-2.7625,-2.7625,-2.7625,-2.7625,-2.7625,-2.7625,-2.7625,-2.7625,-2.7509,-2.6878,-2.6669,-2.6563,-2.5946,-2.5287,-2.4681,-2.4681,-2.3989,-2.3305,-2.3305,-2.3185,-2.3078,-2.3078,-2.3078,-2.3078,-2.3078,-2.3078,-2.3078,-2.3078,-2.3078,-2.3078,-2.3078,-2.3078,-2.3078,-2.3078,-2.3078,-2.3078,-2.3078,-2.3078,-2.3078,-2.3078,-2.3078,-2.3078,-2.3078,-2.3078,-2.3078,-2.3078,-2.3078,-2.3078,-2.3078,-2.3078,-2.3078,-2.3078,-2.2249,-2.1101,-1.9759,-1.9431,-1.8977,-1.8462,-1.9044,-1.9365,0.0,0.0,0.0,0.0,0.0,0.0,0.0,0.0,0.0,0.0,0.0,0.0,0.0,0.0,0.0,0.0,0.0,0.0,0.0,0.0,0.0,0.0,0.0,0.0,0.0,0.0,0.0,0.0,0.0,0.0,-2.5615,-2.5689,-2.5734,-2.5734,-2.5734,-2.5734,-2.5734,-2.5659,-2.5817,-2.6303,-2.6757,-2.6988,-2.6988,-2.6696,-2.6672,-2.6853,-2.6771,-2.7036,-2.7625,-2.7625,-2.7625,-2.7625,-2.7625,-2.7625,-2.7625,-2.7625,-2.7625,-2.7625,-2.7625,-2.7625,-2.7575,-2.7473,-2.7458,-2.7408,-2.7357,-2.6811,-2.6229,-2.6229,-2.5231,-2.4118,-2.4118,-2.359,-2.3078,-2.3078,-2.3078,-2.3078,-2.3078,-2.3078,-2.3078,-2.3078,-2.3078,-2.3078,-2.3078,-2.3078,-2.3078,-2.3078,-2.3078,-2.3078,-2.3078,-2.3078,-2.3078,-2.3078,-2.3078,-2.3078,-2.3078,-2.3078,-2.3078,-2.3078,-2.3078,-2.3078,-2.3078,-2.3078,-2.3078,-2.3078,-2.2039,-2.1479,-2.1553,-2.0009,-1.9628,-2.0268,-1.9628,-1.9683,0.0,0.0,0.0,0.0,0.0,0.0,0.0,0.0,0.0,0.0,0.0,0.0,0.0,0.0,0.0,0.0,0.0,0.0,0.0,0.0,0.0,0.0,0.0,0.0,0.0,0.0,0.0,0.0,0.0,-2.4477,-2.4477,-2.5092,-2.5483,-2.5483,-2.5483,-2.5483,-2.5483,-2.4807,-2.4729,-2.5304,-2.5828,-2.6086,-2.6086,-2.5844,-2.6022,-2.6473,-2.6176,-2.6213,-2.6467,-2.6467,-2.6467,-2.6467,-2.6467,-2.6692,-2.7021,-2.7021,-2.726,-2.7625,-2.7625,-2.7625,-2.7625,-2.7625,-2.7625,-2.7625,-2.7625,-2.7086,-2.651,-2.651,-2.5453,-2.4292,-2.4292,-2.3708,-2.3078,-2.3078,-2.3078,-2.3078,-2.3078,-2.3078,-2.3078,-2.3078,-2.3078,-2.3078,-2.3078,-2.3078,-2.3078,-2.3078,-2.3078,-2.3078,-2.3078,-2.3078,-2.3078,-2.3078,-2.3078,-2.3078,-2.3078,-2.3078,-2.3078,-2.3078,-2.3078,-2.3078,-2.3078,-2.3078,-2.3078,-2.3078,-2.2628,-2.2187,-2.1877,-2.1101,-2.0719,-2.059,-2.0719,-2.0974,0.0,0.0,0.0,0.0,0.0,0.0,0.0,0.0,0.0,0.0,0.0,0.0,0.0,0.0,0.0,0.0,0.0,0.0,0.0,0.0,0.0,0.0,0.0,0.0,0.0,0.0,0.0,0.0,0.0,-2.3991,-2.3991,-2.4859,-2.5347,-2.5347,-2.5222,-2.5137,-2.5137,-2.4249,-2.3991,-2.4389,-2.4934,-2.5259,-2.5373,-2.5144,-2.5399,-2.6069,-2.5712,-2.5589,-2.5615,-2.5615,-2.5615,-2.5615,-2.5615,-2.5914,-2.6348,-2.6348,-2.6647,-2.7096,-2.726,-2.732,-2.735,-2.7515,-2.7625,-2.7625,-2.7625,-2.7203,-2.6774,-2.6774,-2.6,-2.505,-2.4838,-2.393,-2.3125,-2.3365,-2.3245,-2.3078,-2.3078,-2.3078,-2.3078,-2.3078,-2.3078,-2.3078,-2.3078,-2.3078,-2.3078,-2.3078,-2.3078,-2.3078,-2.3078,-2.3078,-2.3078,-2.3078,-2.3078,-2.3078,-2.3078,-2.3078,-2.3078,-2.3078,-2.3078,-2.3078,-2.3078,-2.3078,-2.3078,-2.3078,-2.3078,-2.2823,-2.2187,-2.2013,-2.1678,-2.1227,-2.1678,-2.2002,0.0,0.0,0.0,0.0,0.0,0.0,0.0,0.0,0.0,0.0,0.0,0.0,0.0,0.0,0.0,0.0,0.0,0.0,0.0,0.0,0.0,0.0,0.0,0.0,0.0,0.0,0.0,0.0,0.0,-2.5144,-2.5144,-2.5176,-2.5192,-2.5192,-2.4719,-2.4451,-2.4451,-2.4405,-2.4389,-2.4389,-2.4934,-2.5449,-2.5924,-2.491,-2.4744,-2.5249,-2.5378,-2.5497,-2.5615,-2.5615,-2.5615,-2.5615,-2.5615,-2.563,-2.5659,-2.5659,-2.5674,-2.5794,-2.6422,-2.6632,-2.6752,-2.7415,-2.7625,-2.7625,-2.7625,-2.7575,-2.756,-2.756,-2.7509,-2.7188,-2.624,-2.457,-2.3305,-2.406,-2.3649,-2.3078,-2.3078,-2.3078,-2.3078,-2.3078,-2.3078,-2.3078,-2.3078,-2.3078,-2.3078,-2.3078,-2.3078,-2.3078,-2.3078,-2.3078,-2.3078,-2.3078,-2.3078,-2.3078,-2.3078,-2.3078,-2.3078,-2.3078,-2.3078,-2.3078,-2.3078,-2.3078,-2.3078,-2.3078,-2.3078,-2.3078,-2.3017,-2.2261,-2.2261,-2.2944,-2.2261,-2.2322,0.0,0.0,0.0,0.0,0.0,0.0,0.0,0.0,0.0,0.0,0.0,0.0,0.0,0.0,0.0,0.0,0.0,0.0,0.0,0.0,0.0,0.0,0.0,0.0,0.0,0.0,0.0,0.0,0.0,0.0,-2.5221,-2.554,-2.5726,-2.5726,-2.554,-2.5105,-2.4389,-2.5089,-2.5259,-2.4934,-2.5746,-2.628,-2.6436,-2.6035,-2.5619,-2.5198,-2.5259,-2.4901,-2.4328,-2.4328,-2.4328,-2.4328,-2.4328,-2.4597,-2.4986,-2.4986,-2.5241,-2.5644,-2.5869,-2.5959,-2.6004,-2.6243,-2.6318,-2.6363,-2.6647,-2.6786,-2.689,-2.746,-2.7625,-2.7509,-2.7174,-2.6065,-2.491,-2.4394,-2.3708,-2.3078,-2.3078,-2.3078,-2.3078,-2.3078,-2.3078,-2.3078,-2.3078,-2.3078,-2.3078,-2.3078,-2.3078,-2.3078,-2.3078,-2.3078,-2.3078,-2.3078,-2.3078,-2.3078,-2.3078,-2.3078,-2.3078,-2.3078,-2.3078,-2.3078,-2.3078,-2.3078,-2.3078,-2.3078,-2.3078,-2.3078,-2.3078,-2.2823,-2.2823,-2.3078,-2.2823,-2.2823,0.0,0.0,0.0,0.0,0.0,0.0,0.0,0.0,0.0,0.0,0.0,0.0,0.0,0.0,0.0,0.0,0.0,0.0,0.0,0.0,0.0,0.0,0.0,0.0,0.0,0.0,0.0,0.0,0.0,0.0,-2.4955,-2.5306,-2.541,-2.5219,-2.5219,-2.481,-2.392,-2.4495,-2.4643,-2.4457,-2.4991,-2.5393,-2.5698,-2.5797,-2.5546,-2.5056,-2.5147,-2.4592,-2.3595,-2.3595,-2.3595,-2.3595,-2.3595,-2.3879,-2.4283,-2.4283,-2.4567,-2.4971,-2.5196,-2.527,-2.5315,-2.554,-2.5615,-2.5689,-2.6186,-2.6516,-2.6876,-2.746,-2.7625,-2.7415,-2.6467,-2.6203,-2.5706,-2.394,-2.3322,-2.3102,-2.2761,-2.2902,-2.3078,-2.3078,-2.3078,-2.3078,-2.3078,-2.3078,-2.3471,-2.4469,-2.3741,-2.3471,-2.4469,-2.3741,-2.3078,-2.3078,-2.3078,-2.3078,-2.3078,-2.3078,-2.3078,-2.3078,-2.3078,-2.3078,-2.3078,-2.3078,-2.3078,-2.3078,-2.3078,-2.3078,-2.3078,-2.3078,-2.3078,-2.3078,-2.3078,-2.3078,0.0,0.0,0.0,0.0,0.0,0.0,0.0,0.0,0.0,0.0,0.0,0.0,0.0,0.0,0.0,0.0,0.0,0.0,0.0,0.0,0.0,0.0,0.0,0.0,0.0,0.0,0.0,0.0,0.0,-2.4506,-2.4506,-2.4506,-2.4255,-2.3753,-2.372,-2.3502,-2.3028,-2.2577,-2.2577,-2.3028,-2.2577,-2.2821,-2.3737,-2.3971,-2.4366,-2.4788,-2.5072,-2.4601,-2.3608,-2.3638,-2.3638,-2.3638,-2.3638,-2.3638,-2.3638,-2.3638,-2.3595,-2.3684,-2.4313,-2.4552,-2.4657,-2.5345,-2.5555,-2.563,-2.6063,-2.6831,-2.7505,-2.7505,-2.7505,-2.6856,-2.4268,-2.4881,-2.5506,-2.276,-2.273,-2.305,-2.223,-2.2564,-2.3078,-2.3078,-2.3078,-2.3078,-2.3078,-2.3185,-2.4239,-2.7174,-2.5134,-2.4297,-2.724,-2.5022,-2.3245,-2.3245,-2.3125,-2.3125,-2.3245,-2.3245,-2.3245,-2.3185,-2.3125,-2.3125,-2.3138,-2.3138,-2.3078,-2.3078,-2.3078,-2.3065,-2.3053,-2.3065,-2.3078,-2.3078,-2.3078,-2.3078,-1.001,0.0,0.0,0.0,0.0,0.0,0.0,0.0,0.0,0.0,0.0,0.0,0.0,0.0,0.0,0.0,0.0,0.0,0.0,0.0,0.0,0.0,0.0,0.0,0.0,0.0,0.0,0.0,-2.4506,-2.4506,-2.4506,-2.4506,-2.4444,-2.4286,-2.4286,-2.4015,-2.3519,-2.377,-2.377,-2.3502,-2.377,-2.4015,-2.4271,-2.4345,-2.4249,-2.4032,-2.465,-2.4563,-2.3983,-2.4548,-2.4752,-2.4752,-2.4752,-2.4511,-2.4184,-2.4184,-2.3906,-2.3625,-2.3819,-2.3879,-2.3909,-2.4088,-2.4148,-2.4178,-2.4298,-2.4507,-2.4702,-2.4702,-2.4702,-2.4522,-2.3789,-2.3969,-2.4309,-2.4072,-2.3676,-2.3194,-2.2888,-2.2927,-2.3078,-2.3078,-2.3078,-2.3078,-2.3078,-2.491,-2.6625,-2.7458,-2.6901,-2.6678,-2.7509,-2.6849,-2.6347,-2.6347,-2.4412,-2.3962,-2.6172,-2.6347,-2.6011,-2.5301,-2.457,-2.4137,-2.3943,-2.3424,-2.3078,-2.3078,-2.3078,-2.2937,-2.2535,-2.2937,-2.3078,-2.3078,-2.3078,-2.3078,0.0,0.0,0.0,0.0,0.0,0.0,0.0,0.0,0.0,0.0,0.0,0.0,0.0,0.0,0.0,0.0,0.0,0.0,0.0,0.0,0.0,0.0,0.0,0.0,0.0,0.0,0.0,-2.3579,-2.3579,-2.3579,-2.3579,-2.3579,-2.3579,-2.3579,-2.3579,-2.3335,-2.2832,-2.2975,-2.2975,-2.2832,-2.2975,-2.3226,-2.3579,-2.3883,-2.388,-2.3616,-2.4331,-2.4513,-2.4325,-2.5045,-2.5285,-2.5182,-2.4934,-2.4816,-2.4712,-2.4471,-2.4348,-2.4184,-2.3767,-2.3767,-2.3921,-2.3681,-2.3595,-2.3595,-2.3595,-2.3595,-2.3595,-2.3595,-2.3595,-2.3595,-2.3595,-2.3595,-2.357,-2.3504,-2.3483,-2.3104,-2.1967,-2.2583,-2.3284,-2.3115,-2.4137,-2.4966,-2.4966,-2.6453,-2.7625,-2.7625,-2.7625,-2.7625,-2.7625,-2.7625,-2.7625,-2.7625,-2.6011,-2.5686,-2.7458,-2.7625,-2.7174,-2.6172,-2.537,-2.4711,-2.435,-2.3593,-2.3068,-2.2786,-2.2573,-2.2372,-2.2209,-2.2598,-2.2786,-2.2799,-2.3025,-2.3078,0.0,0.0,0.0,0.0,0.0,0.0,-1.59,-1.5533,0.0,0.0,0.0,0.0,0.0,0.0,0.0,0.0,0.0,0.0,0.0,0.0,0.0,0.0,0.0,0.0,0.0,-2.231,-2.231,-2.231,-2.231,-2.231,-2.231,-2.231,-2.2282,-2.2209,-2.2209,-2.2032,-2.1612,-2.1244,-2.1275,-2.1658,-2.1323,-2.1554,-2.2327,-2.2987,-2.3274,-2.3325,-2.4052,-2.4388,-2.4425,-2.5105,-2.5325,-2.5223,-2.4823,-2.4894,-2.5221,-2.4736,-2.4816,-2.5067,-2.4032,-2.3991,-2.4307,-2.3752,-2.3595,-2.3595,-2.3595,-2.3595,-2.3595,-2.3595,-2.3595,-2.3595,-2.3595,-2.3595,-2.3319,-2.2179,-2.2786,-2.298,-2.0706,-2.1979,-2.3514,-2.3237,-2.532,-2.7265,-2.7565,-2.7625,-2.7625,-2.7625,-2.7625,-2.7625,-2.7625,-2.7625,-2.7625,-2.7625,-2.7625,-2.7625,-2.7625,-2.749,-2.7047,-2.6232,-2.56,-2.4984,-2.4266,-2.3622,-2.2968,-2.2221,-2.1694,-2.1594,-2.1863,-2.2159,-2.2284,-2.2297,-2.2786,-2.2965,-1.4628,-1.5203,-1.5808,0.0,0.0,0.0,0.0,-1.4756,0.0,0.0,0.0,0.0,0.0,0.0,0.0,0.0,0.0,0.0,0.0,0.0,0.0,0.0,0.0,0.0,0.0,-2.231,-2.231,-2.231,-2.231,-2.231,-2.231,-2.231,-2.2135,-2.1764,-2.1718,-2.1688,-2.1582,-2.1521,-2.1705,-2.2163,-2.2077,-2.2152,-2.231,-2.2462,-2.2513,-2.2564,-2.3291,-2.3613,-2.3634,-2.3932,-2.4663,-2.5581,-2.6047,-2.6087,-2.5852,-2.5742,-2.5486,-2.5105,-2.4471,-2.4307,-2.4307,-2.3752,-2.3595,-2.3595,-2.3595,-2.3595,-2.3595,-2.3595,-2.3595,-2.3595,-2.3595,-2.3595,-2.3551,-2.3304,-2.3406,-2.345,-2.298,-2.326,-2.3555,-2.3531,-2.3983,-2.5061,-2.725,-2.7625,-2.7625,-2.7625,-2.7625,-2.7625,-2.7625,-2.7625,-2.7625,-2.7625,-2.7625,-2.7625,-2.7625,-2.6602,-2.6165,-2.6476,-2.5344,-2.4385,-2.3738,-2.3031,-2.2328,-2.1644,-2.1255,-2.1037,-2.1112,-2.1738,-2.2038,-2.2038,-2.2151,-2.2276,0.0,0.0,-1.7293,-1.6494,0.0,0.0,0.0,0.0,0.0,0.0,0.0,0.0,0.0,0.0,0.0,0.0,0.0,0.0,0.0,0.0,0.0,0.0,0.0,0.0,0.0,-2.209,-2.231,-2.231,-2.231,-2.231,-2.231,-2.231,-2.218,-2.1974,-2.1957,-2.1735,-2.1306,-2.1491,-2.1628,-2.1645,-2.1869,-2.2061,-2.231,-2.231,-2.231,-2.2327,-2.2699,-2.2852,-2.2873,-2.3354,-2.3953,-2.4546,-2.5012,-2.5447,-2.5729,-2.5239,-2.5269,-2.5449,-2.4389,-2.4199,-2.4307,-2.3752,-2.3595,-2.3595,-2.3595,-2.3595,-2.3595,-2.3595,-2.3595,-2.3595,-2.3595,-2.3595,-2.3595,-2.3595,-2.3595,-2.3595,-2.3595,-2.3595,-2.3595,-2.3595,-2.3595,-2.4029,-2.536,-2.5585,-2.5585,-2.5585,-2.5585,-2.5585,-2.5585,-2.6752,-2.7625,-2.7625,-2.7625,-2.7355,-2.6647,-2.5989,-2.5749,-2.6078,-2.5431,-2.4742,-2.4083,-2.3067,-2.1943,-2.0706,-2.0464,-2.0376,-2.0376,-2.074,-2.0916,-2.0928,-2.1262,-2.1644,0.0,0.0,0.0,0.0,0.0,-1.7807,0.0,0.0,0.0,-1.8133,0.0,0.0,0.0,0.0,0.0,0.0,0.0,0.0,0.0,0.0,0.0,0.0,0.0,0.0,0.0,-2.1407,-2.1837,-2.2276,-2.1904,-2.1854,-2.2293,-2.231,-2.2254,-2.218,-2.218,-2.184,-2.1118,-2.143,-2.146,-2.126,-2.1568,-2.1928,-2.231,-2.231,-2.231,-2.231,-2.231,-2.231,-2.2361,-2.2936,-2.319,-2.3228,-2.3682,-2.4478,-2.5292,-2.4486,-2.4792,-2.5406,-2.4002,-2.3733,-2.3937,-2.3568,-2.3505,-2.3595,-2.3595,-2.3595,-2.3595,-2.3595,-2.3595,-2.3595,-2.3595,-2.3595,-2.3595,-2.3595,-2.3595,-2.3595,-2.3595,-2.3595,-2.3595,-2.3595,-2.3595,-2.3595,-2.3595,-2.3595,-2.3595,-2.3595,-2.3595,-2.3595,-2.3595,-2.548,-2.6846,-2.6846,-2.6846,-2.6378,-2.5315,-2.5211,-2.527,-2.542,-2.53,-2.4917,-2.4158,-2.2979,-2.1559,-1.9811,-1.9798,-1.9798,-1.9798,-1.9798,-1.9798,-1.9811,-2.0385,-2.0941,0.0,0.0,0.0,0.0,-1.9748,0.0,0.0,0.0,-1.7399,-1.6334,0.0,0.0,0.0,0.0,0.0,0.0,0.0,0.0,0.0,0.0,0.0,0.0,0.0,0.0,0.0,0.0,-2.0128,-2.2158,-2.0433,-2.0179,-2.2209,-2.231,-2.2106,-2.1688,-2.1688,-2.1628,-2.1521,-2.1582,-2.1794,-2.2152,-2.2209,-2.2254,-2.231,-2.231,-2.231,-2.231,-2.231,-2.231,-2.231,-2.2395,-2.2429,-2.2564,-2.3874,-2.4495,-2.4611,-2.45,-2.4328,-2.4033,-2.3378,-2.2928,-2.2662,-2.2768,-2.3146,-2.3595,-2.3595,-2.3595,-2.3595,-2.3595,-2.3595,-2.3595,-2.3595,-2.3595,-2.3595,-2.3595,-2.3595,-2.3595,-2.3595,-2.3595,-2.3595,-2.3595,-2.3595,-2.3595,-2.3595,-2.3595,-2.3595,-2.3595,-2.3595,-2.3595,-2.3595,-2.3864,-2.4044,-2.4044,-2.4044,-2.3984,-2.3834,-2.3834,-2.4088,-2.4657,-2.4163,-2.3555,-2.291,-2.1698,-2.0612,-1.9811,-1.9798,-1.9798,-1.9798,-1.9798,-1.9798,-1.9798,-1.9899,-2.0225,0.0,0.0,0.0,0.0,0.0,0.0,0.0,0.0,-1.6903,0.0,0.0,0.0,0.0,0.0,0.0,0.0,0.0,0.0,0.0,0.0,0.0,0.0,0.0,0.0,0.0,0.0,0.0,0.0,0.0,-1.9266,-2.1532,-2.1651,-2.1754,-2.1986,-2.2003,-2.1869,-2.1582,-2.1869,-2.1974,-2.1899,-2.218,-2.231,-2.231,-2.231,-2.231,-2.231,-2.231,-2.231,-2.231,-2.231,-2.231,-2.2361,-2.2987,-2.3325,-2.3414,-2.3144,-2.3043,-2.2996,-2.2744,-2.2524,-2.2483,-2.3274,-2.348,-2.3503,-2.391,-2.3837,-2.3595,-2.3595,-2.3595,-2.3595,-2.3595,-2.3595,-2.3595,-2.3595,-2.3595,-2.3595,-2.3595,-2.3595,-2.3595,-2.3595,-2.3595,-2.3595,-2.3595,-2.3595,-2.3595,-2.3595,-2.3595,-2.3595,-2.3595,-2.3595,-2.3595,-2.3595,-2.3595,-2.3595,-2.3595,-2.3595,-2.3729,-2.4014,-2.3759,-2.3128,-2.2146,-2.1629,-2.0868,-1.9798,-1.9798,-1.9798,-1.9798,-1.9798,-1.9798,-1.9798,-1.9798,-1.9936,-2.2955,0.0,0.0,0.0,0.0,0.0,0.0,0.0,0.0,0.0,0.0,0.0,0.0,0.0,0.0,0.0,0.0,0.0,0.0,0.0,0.0,0.0,0.0,0.0,0.0,0.0,0.0,0.0,0.0,0.0,-2.072,-2.0873,-2.1312,-2.2276,-2.231,-2.2135,-2.1794,-2.2135,-2.2135,-2.1794,-2.2135,-2.231,-2.231,-2.231,-2.231,-2.231,-2.231,-2.231,-2.231,-2.231,-2.231,-2.231,-2.231,-2.235,-2.2386,-2.215,-2.213,-2.2181,-2.2142,-2.216,-2.2358,-2.3226,-2.3506,-2.3608,-2.3971,-2.3978,-2.3794,-2.3638,-2.3595,-2.3638,-2.3852,-2.3767,-2.3595,-2.3595,-2.3595,-2.3595,-2.3595,-2.3595,-2.3595,-2.3595,-2.3595,-2.3595,-2.3595,-2.3595,-2.3595,-2.3595,-2.3595,-2.3595,-2.3595,-2.3595,-2.3595,-2.3595,-2.3595,-2.3595,-2.3595,-2.3595,-2.3595,-2.3595,-2.3595,-2.3128,-2.1993,-2.1946,-2.1376,-2.0194,-2.0144,-2.0144,-2.0144,-2.0144,-2.0042,-1.9798,-1.9798,-1.9798,0.0,0.0,0.0,-2.0425,0.0,0.0,0.0,0.0,-1.8041,0.0,0.0,0.0,0.0,0.0,0.0,0.0,0.0,0.0,0.0,0.0,0.0,0.0,0.0,0.0,0.0,0.0,0.0,0.0,0.0,0.0,-1.9799,-2.0035,-2.0728,-2.226,-2.231,-2.2282,-2.2282,-2.2282,-2.2282,-2.2282,-2.2282,-2.231,-2.231,-2.231,-2.231,-2.231,-2.231,-2.231,-2.231,-2.231,-2.231,-2.231,-2.231,-2.202,-2.1691,-2.214,-2.2024,-2.1634,-2.1617,-2.1794,-2.2011,-2.2027,-2.2968,-2.3973,-2.3507,-2.3798,-2.4266,-2.3767,-2.3595,-2.3767,-2.4477,-2.4147,-2.3595,-2.3595,-2.3595,-2.3595,-2.3595,-2.3595,-2.3595,-2.3595,-2.3595,-2.3595,-2.3595,-2.3595,-2.3595,-2.3595,-2.3595,-2.3595,-2.3595,-2.3595,-2.3595,-2.3595,-2.3595,-2.3595,-2.3595,-2.3595,-2.3595,-2.3595,-2.3595,-2.3334,-2.2694,-2.2649,-2.2175,-2.1091,-2.1042,-2.1042,-2.1042,-2.1042,-2.0633,-1.9798,-1.9798,-1.9798,0.0,0.0,-2.4125,-2.1774,0.0,0.0,0.0,0.0,0.0,0.0,0.0,0.0,0.0,0.0,0.0,0.0,0.0,0.0,0.0,0.0,0.0,0.0,0.0,0.0,0.0,0.0,0.0,0.0,0.0,0.0,0.0,-1.9461,-2.0475,-2.1532,-2.2057,-2.231,-2.231,-2.231,-2.231,-2.231,-2.231,-2.231,-2.231,-2.231,-2.231,-2.231,-2.231,-2.231,-2.231,-2.231,-2.231,-2.231,-2.231,-2.2209,-2.2032,-2.1899,-2.1568,-2.1244,-2.1491,-2.1853,-2.2288,-2.277,-2.3013,-2.3271,-2.4055,-2.4265,-2.4248,-2.4587,-2.4657,-2.4672,-2.4704,-2.4847,-2.4934,-2.4697,-2.4116,-2.3595,-2.3595,-2.3595,-2.3595,-2.3595,-2.3595,-2.3595,-2.3595,-2.3595,-2.3595,-2.3595,-2.3595,-2.3595,-2.3595,-2.3595,-2.3595,-2.3595,-2.3595,-2.3595,-2.3595,-2.3595,-2.3595,-2.3595,-2.3595,-2.3334,-2.274,-2.2694,-2.2314,-2.152,-2.1486,-2.1486,-2.1486,-2.1486,-2.1148,-2.0446,-2.0446,-2.0194,-2.5099,-2.4993,0.0,-2.2658,-2.1386,0.0,-1.7975,0.0,0.0,0.0,0.0,0.0,0.0,0.0,0.0,0.0,0.0,0.0,0.0,0.0,0.0,0.0,0.0,0.0,0.0,0.0,-1.3113,-1.4397,0.0,0.0,0.0,0.0,-2.0094,-2.117,-2.1921,-2.231,-2.231,-2.231,-2.231,-2.231,-2.231,-2.231,-2.231,-2.231,-2.231,-2.231,-2.231,-2.231,-2.231,-2.231,-2.231,-2.231,-2.231,-2.231,-2.2254,-2.1974,-2.1675,-2.1493,-2.1764,-2.2049,-2.2395,-2.2852,-2.2932,-2.3073,-2.4099,-2.4365,-2.4471,-2.5051,-2.5221,-2.5182,-2.516,-2.5198,-2.5221,-2.5221,-2.4389,-2.3595,-2.3595,-2.3595,-2.3595,-2.3595,-2.3752,-2.3964,-2.4158,-2.409,-2.3894,-2.3638,-2.3595,-2.3879,-2.4601,-2.4282,-2.3964,-2.3964,-2.3767,-2.3595,-2.3595,-2.3595,-2.3595,-2.3595,-2.3595,-2.3421,-2.3024,-2.3009,-2.2815,-2.2363,-2.2363,-2.2271,-2.2053,-2.2053,-2.1629,-2.0795,-2.0795,-2.0446]},{"header":{"parameterUnit":"m.s-1","parameterCategory":1,"la1":30.6,"la2":29.2853,"lo1":-89.7004,"lo2":-87.6739,"dy":0.0162,"dx":0.0183,"nx":112,"ny":82,"refTime":"2024-07-12T00:00:00:Z","depth":0,"parameterNumber":3,"parameterNumberName":"V-component_of_WINDS"},"data":[0.0,0.0,0.0,0.0,0.0,0.0,0.0,0.0,0.0,0.0,0.0,0.0,0.0,0.0,0.0,0.0,0.0,0.0,0.0,0.0,0.0,0.0,0.0,0.0,0.0,0.0,0.0,0.0,0.0,0.0,0.0,0.0,0.0,0.0,0.0,0.0,0.0,0.0,0.0,0.0,0.0,0.0,0.0,0.0,0.0,0.0,0.0,0.0,0.0,0.0,0.0,0.0,0.0,0.0,0.0,0.0,0.0,0.0,0.0,0.0,0.0,0.0,0.0,0.0,0.0,0.0,0.0,0.0,0.0,0.0,0.0,0.0,0.0,0.0,0.0,0.0,0.0,0.0,0.0,0.0,0.0,0.0,0.0,0.0,0.0,0.0,0.0,0.0,0.0,0.0,0.0,-2.4142,-2.8574,-3.0999,-3.0264,-2.9934,-2.8056,-2.4098,0.0,0.0,0.0,0.0,0.0,0.0,0.0,0.0,0.0,0.0,0.0,0.0,0.0,0.0,0.0,0.0,0.0,0.0,0.0,0.0,0.0,0.0,0.0,0.0,0.0,0.0,0.0,0.0,0.0,0.0,0.0,0.0,0.0,0.0,0.0,0.0,0.0,0.0,0.0,0.0,0.0,0.0,0.0,0.0,0.0,0.0,0.0,0.0,0.0,0.0,0.0,0.0,0.0,0.0,0.0,0.0,0.0,0.0,0.0,0.0,0.0,0.0,0.0,0.0,0.0,0.0,0.0,0.0,0.0,0.0,0.0,0.0,0.0,0.0,0.0,0.0,0.0,0.0,0.0,0.0,0.0,0.0,0.0,0.0,0.0,0.0,0.0,0.0,0.0,0.0,0.0,0.0,0.0,0.0,0.0,0.0,0.0,0.0,0.0,0.0,0.0,0.0,0.0,0.0,-2.1231,-2.7151,-3.0127,-3.1399,-3.0684,-2.9098,-2.6977,-2.423,0.0,0.0,0.0,0.0,0.0,0.0,0.0,0.0,0.0,0.0,0.0,0.0,0.0,0.0,0.0,0.0,0.0,0.0,0.0,0.0,0.0,0.0,0.0,0.0,0.0,0.0,0.0,0.0,0.0,0.0,0.0,0.0,0.0,0.0,0.0,0.0,0.0,0.0,0.0,0.0,0.0,0.0,0.0,0.0,0.0,0.0,0.0,0.0,0.0,0.0,0.0,0.0,0.0,0.0,0.0,0.0,0.0,0.0,0.0,0.0,0.0,0.0,0.0,0.0,0.0,0.0,0.0,0.0,0.0,0.0,0.0,0.0,0.0,0.0,0.0,0.0,0.0,0.0,0.0,0.0,0.0,0.0,0.0,0.0,0.0,0.0,0.0,0.0,0.0,0.0,0.0,0.0,0.0,0.0,0.0,0.0,0.0,0.0,0.0,0.0,0.0,0.0,0.0,-2.0852,-2.3902,-2.9025,-3.0753,-3.1218,-3.0449,-2.9034,-2.7012,-2.4281,-2.1733,0.0,0.0,0.0,0.0,0.0,0.0,0.0,0.0,0.0,0.0,0.0,0.0,0.0,0.0,0.0,0.0,0.0,0.0,0.0,0.0,0.0,0.0,0.0,0.0,0.0,0.0,0.0,0.0,0.0,0.0,0.0,0.0,0.0,0.0,0.0,0.0,0.0,0.0,0.0,0.0,0.0,0.0,0.0,0.0,0.0,0.0,0.0,0.0,0.0,0.0,0.0,0.0,0.0,0.0,0.0,0.0,0.0,0.0,0.0,0.0,0.0,0.0,0.0,0.0,0.0,0.0,0.0,0.0,0.0,0.0,0.0,0.0,0.0,0.0,0.0,0.0,0.0,0.0,0.0,0.0,0.0,0.0,0.0,0.0,0.0,0.0,0.0,0.0,0.0,0.0,0.0,0.0,0.0,0.0,0.0,0.0,0.0,0.0,0.0,0.0,0.0,0.0,-2.4884,-2.6807,-3.0076,-3.0935,-3.0951,-3.0058,-2.8801,-2.6849,-2.4028,-2.0587,0.0,0.0,0.0,0.0,0.0,0.0,0.0,0.0,0.0,0.0,0.0,0.0,0.0,0.0,0.0,0.0,0.0,0.0,0.0,0.0,0.0,0.0,0.0,0.0,0.0,0.0,0.0,0.0,0.0,0.0,0.0,0.0,0.0,0.0,0.0,0.0,0.0,0.0,0.0,0.0,0.0,0.0,0.0,0.0,0.0,0.0,0.0,0.0,0.0,0.0,0.0,0.0,0.0,0.0,0.0,0.0,0.0,0.0,0.0,0.0,0.0,0.0,0.0,0.0,0.0,0.0,0.0,0.0,0.0,0.0,0.0,0.0,0.0,0.0,0.0,0.0,0.0,0.0,0.0,0.0,0.0,0.0,0.0,0.0,0.0,0.0,0.0,0.0,0.0,0.0,0.0,0.0,0.0,0.0,0.0,0.0,0.0,0.0,0.0,0.0,0.0,0.0,-2.471,-2.9071,-3.0106,-3.0887,-3.0846,-2.9744,-2.7912,-2.5747,-2.3244,-1.9345,0.0,0.0,0.0,0.0,0.0,0.0,0.0,0.0,0.0,0.0,0.0,0.0,0.0,0.0,0.0,0.0,0.0,0.0,0.0,0.0,0.0,0.0,0.0,0.0,0.0,0.0,0.0,0.0,0.0,0.0,0.0,0.0,0.0,0.0,0.0,0.0,0.0,0.0,0.0,0.0,0.0,0.0,0.0,0.0,0.0,0.0,0.0,0.0,0.0,0.0,0.0,0.0,0.0,0.0,0.0,0.0,0.0,0.0,0.0,0.0,0.0,0.0,0.0,0.0,0.0,0.0,0.0,0.0,0.0,0.0,0.0,0.0,0.0,0.0,0.0,0.0,0.0,0.0,0.0,0.0,0.0,0.0,0.0,0.0,0.0,0.0,0.0,0.0,0.0,0.0,0.0,0.0,0.0,0.0,0.0,0.0,0.0,0.0,0.0,0.0,0.0,0.0,-2.4664,-2.6563,0.0,-2.9904,-2.9642,-2.8917,-2.7377,-2.5261,-2.2424,0.0,0.0,0.0,0.0,0.0,0.0,0.0,0.0,0.0,0.0,0.0,0.0,0.0,0.0,0.0,0.0,0.0,0.0,0.0,0.0,0.0,0.0,0.0,0.0,0.0,0.0,0.0,0.0,0.0,0.0,0.0,0.0,0.0,0.0,0.0,0.0,0.0,0.0,0.0,0.0,0.0,0.0,0.0,0.0,0.0,0.0,0.0,0.0,0.0,0.0,0.0,0.0,0.0,0.0,0.0,0.0,0.0,0.0,0.0,0.0,0.0,0.0,0.0,0.0,0.0,0.0,0.0,0.0,0.0,0.0,0.0,0.0,0.0,0.0,0.0,0.0,0.0,0.0,0.0,0.0,0.0,0.0,0.0,0.0,0.0,0.0,0.0,0.0,0.0,0.0,0.0,0.0,0.0,0.0,0.0,0.0,0.0,0.0,0.0,0.0,0.0,0.0,-2.4652,-2.4734,-2.5466,0.0,-2.9018,-2.8685,-2.8234,-2.6682,-2.4594,-2.1972,0.0,0.0,0.0,0.0,0.0,0.0,0.0,0.0,0.0,0.0,0.0,0.0,0.0,0.0,0.0,0.0,0.0,0.0,0.0,0.0,0.0,0.0,0.0,0.0,0.0,0.0,0.0,0.0,0.0,0.0,0.0,0.0,0.0,0.0,0.0,0.0,0.0,0.0,0.0,0.0,0.0,0.0,0.0,0.0,0.0,0.0,0.0,0.0,0.0,0.0,0.0,0.0,0.0,0.0,0.0,0.0,0.0,0.0,0.0,0.0,0.0,0.0,0.0,0.0,0.0,0.0,0.0,0.0,0.0,0.0,0.0,0.0,0.0,0.0,0.0,0.0,0.0,0.0,0.0,0.0,0.0,0.0,0.0,0.0,0.0,0.0,0.0,0.0,0.0,0.0,0.0,0.0,0.0,0.0,0.0,0.0,0.0,0.0,0.0,0.0,0.0,0.0,-2.2827,-2.4918,-2.6613,-2.8236,-2.8397,-2.8217,-2.7842,-2.5761,-2.3727,0.0,0.0,0.0,0.0,0.0,0.0,0.0,0.0,0.0,0.0,0.0,0.0,0.0,0.0,0.0,0.0,0.0,0.0,0.0,0.0,0.0,0.0,0.0,0.0,0.0,0.0,0.0,0.0,0.0,0.0,0.0,0.0,0.0,0.0,0.0,0.0,0.0,0.0,0.0,0.0,0.0,0.0,0.0,0.0,0.0,0.0,0.0,0.0,0.0,0.0,0.0,0.0,0.0,0.0,0.0,0.0,0.0,0.0,0.0,0.0,0.0,0.0,0.0,0.0,0.0,0.0,0.0,0.0,0.0,0.0,0.0,0.0,0.0,0.0,0.0,0.0,0.0,0.0,0.0,0.0,0.0,0.0,0.0,0.0,0.0,0.0,0.0,0.0,0.0,0.0,0.0,0.0,0.0,0.0,0.0,0.0,0.0,0.0,0.0,0.0,0.0,0.0,0.0,-2.2538,-2.4392,-2.5996,-2.7841,-2.7538,-2.7263,-2.7427,-2.563,-2.342,-2.0908,0.0,0.0,0.0,0.0,0.0,0.0,0.0,0.0,0.0,0.0,0.0,0.0,0.0,0.0,0.0,0.0,0.0,0.0,0.0,0.0,0.0,0.0,0.0,0.0,0.0,0.0,0.0,0.0,0.0,0.0,0.0,0.0,0.0,0.0,0.0,0.0,0.0,0.0,0.0,0.0,0.0,0.0,0.0,0.0,0.0,0.0,0.0,0.0,0.0,0.0,0.0,0.0,0.0,0.0,0.0,0.0,0.0,0.0,0.0,0.0,0.0,0.0,0.0,0.0,0.0,0.0,0.0,0.0,0.0,0.0,0.0,0.0,0.0,0.0,0.0,0.0,0.0,0.0,0.0,0.0,0.0,0.0,0.0,0.0,0.0,0.0,0.0,0.0,0.0,0.0,0.0,0.0,0.0,0.0,0.0,0.0,0.0,0.0,0.0,0.0,0.0,0.0,-2.1821,-2.3915,-2.563,-2.7257,-2.7004,-2.6808,-2.7019,-2.5479,-2.3619,-2.1517,0.0,0.0,0.0,0.0,0.0,0.0,0.0,0.0,0.0,0.0,0.0,0.0,0.0,0.0,0.0,0.0,0.0,0.0,0.0,0.0,0.0,0.0,0.0,0.0,0.0,0.0,0.0,0.0,0.0,0.0,0.0,0.0,0.0,0.0,0.0,0.0,0.0,0.0,0.0,0.0,0.0,0.0,0.0,0.0,0.0,0.0,0.0,0.0,0.0,0.0,0.0,0.0,0.0,0.0,0.0,0.0,0.0,0.0,0.0,0.0,0.0,0.0,0.0,0.0,0.0,0.0,0.0,0.0,0.0,0.0,0.0,0.0,0.0,0.0,0.0,0.0,0.0,0.0,0.0,0.0,0.0,0.0,0.0,0.0,0.0,0.0,0.0,0.0,0.0,0.0,0.0,0.0,0.0,0.0,0.0,0.0,0.0,0.0,0.0,0.0,0.0,0.0,-2.0948,-2.3478,-2.5386,-2.6555,-2.6691,-2.6691,-2.6691,-2.5338,-2.4052,-2.3003,0.0,0.0,0.0,0.0,0.0,0.0,0.0,0.0,0.0,0.0,0.0,0.0,0.0,0.0,0.0,0.0,0.0,0.0,0.0,0.0,0.0,0.0,0.0,0.0,0.0,0.0,0.0,0.0,0.0,0.0,0.0,0.0,0.0,0.0,0.0,0.0,0.0,0.0,0.0,0.0,0.0,0.0,0.0,0.0,0.0,0.0,0.0,0.0,0.0,0.0,0.0,0.0,0.0,0.0,0.0,0.0,0.0,0.0,0.0,0.0,-1.4573,0.0,0.0,0.0,0.0,0.0,0.0,0.0,0.0,0.0,0.0,0.0,0.0,0.0,0.0,0.0,0.0,0.0,0.0,0.0,0.0,0.0,0.0,0.0,0.0,0.0,0.0,0.0,0.0,0.0,0.0,0.0,0.0,0.0,0.0,0.0,0.0,0.0,0.0,0.0,0.0,0.0,-2.0858,-2.3204,-2.5128,-2.6572,-2.6691,-2.6691,-2.6691,-2.5338,-2.3909,-2.2528,0.0,0.0,0.0,0.0,0.0,0.0,0.0,0.0,0.0,0.0,0.0,0.0,0.0,0.0,0.0,0.0,0.0,0.0,0.0,0.0,0.0,0.0,0.0,0.0,0.0,0.0,0.0,0.0,0.0,0.0,0.0,0.0,0.0,0.0,0.0,0.0,0.0,0.0,0.0,0.0,0.0,0.0,0.0,0.0,0.0,0.0,0.0,0.0,0.0,0.0,0.0,0.0,0.0,0.0,0.0,0.0,0.0,0.0,0.0,0.0,0.0,-1.6353,0.0,0.0,0.0,0.0,0.0,0.0,0.0,0.0,0.0,0.0,0.0,0.0,0.0,0.0,0.0,0.0,0.0,0.0,0.0,0.0,0.0,0.0,0.0,0.0,0.0,0.0,0.0,0.0,0.0,0.0,0.0,0.0,0.0,0.0,0.0,0.0,0.0,0.0,0.0,0.0,-2.1769,-2.3575,-2.5082,-2.6539,-2.6691,-2.6691,-2.6691,-2.5338,-2.4245,-2.3636,-2.0771,0.0,0.0,0.0,0.0,0.0,0.0,0.0,0.0,0.0,0.0,0.0,0.0,0.0,0.0,0.0,0.0,0.0,0.0,0.0,0.0,0.0,0.0,0.0,0.0,0.0,0.0,0.0,0.0,0.0,0.0,0.0,0.0,0.0,0.0,0.0,0.0,0.0,0.0,0.0,0.0,0.0,0.0,0.0,0.0,0.0,0.0,0.0,0.0,0.0,0.0,0.0,0.0,0.0,-2.0662,-2.1306,-2.2383,-2.2383,-2.2682,-2.3056,-2.0857,-1.972,-1.9331,0.0,0.0,0.0,0.0,0.0,0.0,0.0,0.0,0.0,0.0,0.0,0.0,0.0,0.0,0.0,0.0,0.0,0.0,0.0,0.0,0.0,0.0,0.0,0.0,0.0,-2.5541,-2.4983,0.0,0.0,0.0,0.0,0.0,0.0,0.0,0.0,0.0,0.0,0.0,0.0,-2.2885,-2.4154,-2.5203,-2.6556,-2.6691,-2.6691,-2.6691,-2.5338,-2.4628,-2.4907,-2.2117,-2.0244,0.0,0.0,0.0,0.0,0.0,0.0,0.0,0.0,0.0,0.0,0.0,0.0,0.0,0.0,0.0,0.0,0.0,0.0,0.0,0.0,0.0,0.0,0.0,0.0,0.0,0.0,0.0,0.0,0.0,0.0,0.0,0.0,-0.9314,-1.053,0.0,0.0,0.0,0.0,0.0,0.0,0.0,0.0,0.0,0.0,0.0,0.0,0.0,-1.9369,-2.0983,-2.2233,-2.3206,-2.394,-2.4552,-2.4911,-2.5091,-2.5091,-2.5136,-2.5196,-2.4852,0.0,-2.2009,-2.0183,0.0,0.0,0.0,0.0,0.0,0.0,0.0,0.0,0.0,0.0,0.0,0.0,0.0,0.0,0.0,0.0,0.0,0.0,0.0,0.0,0.0,0.0,-2.7097,-2.7334,-2.7452,-2.7368,0.0,-2.4052,-2.1075,-1.8894,-1.7946,0.0,0.0,0.0,0.0,0.0,0.0,0.0,-2.3156,-2.4611,-2.5778,-2.6607,-2.6691,-2.6691,-2.6691,-2.5338,-2.4506,-2.4567,-2.2366,-2.107,-2.0951,-1.8856,0.0,0.0,0.0,0.0,0.0,0.0,0.0,0.0,0.0,0.0,0.0,0.0,0.0,0.0,0.0,0.0,0.0,0.0,0.0,0.0,0.0,0.0,0.0,0.0,0.0,0.0,0.0,0.0,0.0,-0.9261,-1.0684,-1.1626,-1.2031,-1.1938,0.0,0.0,0.0,0.0,0.0,0.0,0.0,0.0,0.0,-1.8616,-2.0686,-2.2291,-2.334,-2.4268,-2.5061,-2.5734,-2.6019,-2.6363,-2.6722,-2.7111,-2.7081,-2.6752,-2.7515,-2.6707,-2.4747,-2.3131,-2.1859,-2.0812,0.0,0.0,0.0,0.0,-1.9286,-1.969,-2.0759,-2.1132,0.0,0.0,0.0,0.0,0.0,0.0,0.0,0.0,0.0,0.0,0.0,0.0,0.0,-2.9008,-2.9414,-2.96,-2.9194,-2.7824,-2.5761,0.0,-2.1786,-2.0822,-1.8488,0.0,0.0,0.0,0.0,0.0,-2.4391,-2.5203,-2.5879,-2.6623,-2.6691,-2.6691,-2.6691,-2.5338,-2.4506,-2.4506,-2.2801,-2.182,-2.182,-2.045,-1.9918,0.0,0.0,0.0,0.0,0.0,0.0,0.0,0.0,0.0,0.0,0.0,0.0,0.0,0.0,0.0,0.0,0.0,0.0,0.0,0.0,0.0,0.0,0.0,0.0,0.0,0.0,0.0,0.0,-1.1179,-1.242,-1.3594,-1.4371,-1.4456,0.0,0.0,0.0,0.0,0.0,0.0,-1.6902,-1.9195,-2.0883,-2.167,-2.3695,-2.497,-2.5375,-2.6213,-2.6871,-2.735,-2.735,-2.7619,-2.815,-2.8622,-2.8562,-2.8195,-2.9146,-2.8727,-2.723,-2.5749,-2.4358,-2.3116,-2.2443,-2.1889,-2.1515,-2.1994,-2.2293,-2.2652,-2.4074,-2.4582,-2.4448,-2.3684,0.0,-2.2173,-2.0677,0.0,0.0,0.0,0.0,-2.5812,-2.7875,-2.8839,-2.9465,-3.0209,-3.0801,-3.1055,-3.0497,-3.0243,-2.9161,0.0,-2.5338,-2.4509,-2.1877,0.0,0.0,0.0,0.0,-2.3748,-2.5406,-2.5761,-2.6099,-2.664,-2.6691,-2.6691,-2.6691,-2.5338,-2.4506,-2.4506,-2.3122,-2.231,-2.231,-2.1769,-2.1729,-2.229,0.0,0.0,0.0,0.0,0.0,0.0,0.0,0.0,0.0,0.0,0.0,0.0,0.0,0.0,0.0,0.0,0.0,0.0,0.0,0.0,0.0,0.0,0.0,0.0,0.0,0.0,0.0,0.0,0.0,-1.8071,-1.7625,0.0,0.0,0.0,0.0,-1.6354,-1.812,-1.9429,-1.9936,-2.2257,-2.3612,-2.3641,-2.6071,-2.7425,-2.7475,-2.8727,-2.94,-2.943,-2.943,-2.9445,-2.949,-2.952,-2.9505,-2.949,-2.9549,-2.952,-2.928,-2.7305,-2.5719,-2.4462,-2.3774,-2.3475,-2.346,-2.349,-2.3924,-2.4448,-2.4552,-2.4582,-2.4672,-2.5285,-2.5016,-2.4418,-2.4313,-2.4585,0.0,0.0,-2.685,-2.7992,-2.9583,-3.0023,-3.0243,-3.097,-3.1173,-3.119,-3.114,-3.0598,-2.9617,0.0,-2.762,-2.713,-2.5609,0.0,-2.5135,-2.4455,-2.4949,-2.5473,-2.5592,-2.6201,-2.6657,-2.6691,-2.6691,-2.6691,-2.6691,-2.5338,-2.4506,-2.4506,-2.3122,-2.231,-2.231,-2.2276,-2.2241,-2.2287,-1.9301,0.0,0.0,0.0,0.0,0.0,0.0,0.0,0.0,0.0,0.0,0.0,0.0,0.0,0.0,0.0,0.0,0.0,0.0,0.0,0.0,0.0,0.0,0.0,0.0,0.0,0.0,0.0,0.0,-1.8553,-1.9536,0.0,-1.9508,-1.9922,-2.0157,-2.0005,-2.1711,-2.2467,-2.1843,-2.4631,-2.6056,-2.5539,-2.7713,-2.8861,-2.8861,-2.934,-2.9579,-2.9579,-2.9579,-2.9579,-2.9594,-2.9998,-2.9968,-2.9624,-3.0477,-3.0357,-2.9549,-2.925,-2.8592,-2.7709,-2.6587,-2.6153,-2.6108,-2.5674,-2.5674,-2.5959,-2.6378,-2.6512,-2.6497,-2.6303,-2.5794,-2.5255,-2.5255,-2.5588,-2.6119,-2.6879,-2.7582,-2.8445,-2.9871,-3.0235,-3.0382,-3.1044,-3.119,-3.119,-3.119,-3.0987,-3.0649,-3.0091,-2.9228,-2.8247,-2.7215,-2.7452,-2.752,-2.6742,-2.7283,-2.7604,-2.7097,-2.7266,-2.7232,-2.6742,-2.6691,-2.6691,-2.6691,-2.5338,-2.4506,-2.4506,-2.3122,-2.231,-2.231,-2.231,-2.2304,-2.2292,-2.048,-1.8521,0.0,0.0,0.0,0.0,0.0,0.0,0.0,0.0,0.0,0.0,0.0,0.0,0.0,0.0,0.0,0.0,0.0,0.0,0.0,0.0,0.0,0.0,0.0,0.0,0.0,0.0,-1.8553,-1.9884,-2.1216,-2.1934,-2.171,-2.2697,-2.3197,-2.282,-2.455,-2.511,-2.3983,-2.6416,-2.7453,-2.6677,-2.8208,-2.9183,-2.9492,-2.9699,-2.9985,-3.0238,-3.0238,-3.0238,-3.0253,-3.0672,-3.0627,-3.0298,-3.115,-3.1046,-3.0268,-3.0687,-3.0612,-3.0103,-2.8771,-2.8248,-2.8203,-2.7754,-2.759,-2.7664,-2.8098,-2.8248,-2.8225,-2.7739,-2.7305,-2.6946,-2.6946,-2.7354,-2.7891,-2.8372,-2.8731,-2.9259,-3.0384,-3.0484,-3.0459,-3.1098,-3.12,-3.119,-3.119,-3.119,-3.119,-3.119,-3.0395,-2.9482,-2.8721,-2.9025,-2.911,-2.8332,-2.8653,-2.8789,-2.8281,-2.7977,-2.7621,-2.7131,-2.6843,-2.6691,-2.6691,-2.5338,-2.4506,-2.4506,-2.3122,-2.231,-2.231,-2.2388,-2.2409,-2.2409,-2.1335,-1.9776,-1.7807,0.0,0.0,0.0,0.0,0.0,0.0,0.0,0.0,0.0,0.0,0.0,0.0,0.0,0.0,0.0,0.0,0.0,0.0,0.0,0.0,0.0,0.0,0.0,-1.7839,-1.8403,-1.9809,-2.2439,-2.2783,-2.3026,-2.3655,-2.4328,-2.4686,-2.4731,-2.6557,-2.7233,-2.6351,-2.7609,-2.7866,-2.7001,-2.7679,-2.8437,-2.9288,-2.9952,-3.0703,-3.1467,-3.1482,-3.1482,-3.1482,-3.1482,-3.1482,-3.1482,-3.1482,-3.1482,-3.1482,-3.1482,-3.1482,-3.1347,-3.0118,-2.9609,-2.9609,-2.9594,-2.9579,-2.9579,-2.9579,-2.9579,-2.9579,-2.9579,-2.9579,-2.9579,-2.9579,-3.0015,-3.0438,-3.0438,-3.0443,-3.0544,-3.1182,-3.0846,-3.0465,-3.1112,-3.1233,-3.119,-3.119,-3.119,-3.119,-3.119,-3.119,-3.097,-3.026,-3.0142,-2.9888,-2.9161,-2.9096,0.0,-2.9062,-2.8349,-2.784,-2.7789,-2.7165,-2.6725,-2.6691,-2.5338,-2.4506,-2.4506,-2.3122,-2.231,-2.231,-2.2563,-2.2695,-2.2721,-2.1754,-2.057,-1.9091,0.0,0.0,0.0,0.0,0.0,0.0,0.0,0.0,0.0,0.0,0.0,0.0,0.0,0.0,0.0,0.0,0.0,0.0,0.0,0.0,0.0,0.0,-1.9853,-1.9241,-2.0946,-2.2532,-2.3251,-2.4208,-2.5241,-2.6363,-2.6647,-2.7171,-2.8143,-2.8135,-2.7794,-2.6986,-2.7666,-2.7734,-2.693,-2.8124,-2.8816,-2.9066,-2.9864,-3.0389,-3.0644,-3.1219,-3.1482,-3.1482,-3.1482,-3.1482,-3.1482,-3.1482,-3.1482,-3.1482,-3.1482,-3.1482,-3.1392,-3.0582,-3.0253,-3.0193,-2.9744,-2.9579,-2.9579,-2.9579,-2.9579,-2.9579,-2.9579,-2.9579,-2.9579,-2.9579,-2.9726,-2.9872,-2.9872,-2.9826,-2.9965,-3.0596,-3.0237,-2.9895,-3.0507,-3.0604,-3.0559,-3.0559,-3.0878,-3.119,-3.119,-3.119,-3.114,-3.092,-3.0903,-3.0818,-3.0615,-3.0581,0.0,-2.9871,-2.96,-2.9059,-2.7908,-2.7638,-2.7283,-2.6742,-2.5338,-2.4506,-2.4506,-2.3122,-2.231,-2.231,-2.236,-2.2634,-2.3045,-2.1666,-2.0976,0.0,0.0,0.0,0.0,0.0,0.0,0.0,0.0,0.0,0.0,0.0,0.0,0.0,0.0,0.0,0.0,0.0,0.0,0.0,0.0,0.0,0.0,-2.0938,-2.2214,-2.2164,-2.3251,-2.4238,-2.4792,-2.554,-2.6542,-2.7874,-2.8008,-2.8442,-2.9505,-2.9053,-2.8351,-2.758,-2.7713,-2.7544,-2.6738,-2.7499,-2.8298,-2.9002,-2.9504,-3.0133,-3.0837,-3.1278,-3.1482,-3.1482,-3.1482,-3.1482,0.0,-3.1482,-3.1482,-3.1482,-3.1482,-3.1482,0.0,0.0,0.0,0.0,0.0,-3.0402,-3.0402,-3.0402,-3.0402,-3.0402,-3.0402,-3.0402,-3.0402,-3.0402,-3.0402,-3.0402,-3.0402,-3.0193,-3.0138,-3.076,-3.0437,-3.0064,-3.0663,-3.079,-3.0711,-3.0711,-3.0957,-3.119,-3.119,0.0,0.0,-3.119,-3.119,-3.119,-3.119,-3.119,-3.1055,-3.0615,-3.0294,-2.977,-2.8873,-2.8178,-2.7638,-2.7199,-2.5812,0.0,0.0,0.0,-2.3129,-2.2993,-2.2976,0.0,0.0,0.0,0.0,0.0,0.0,0.0,0.0,-2.1566,-2.2281,0.0,0.0,0.0,0.0,0.0,0.0,0.0,0.0,0.0,0.0,0.0,0.0,0.0,0.0,0.0,0.0,-2.3523,-2.482,-2.5586,-2.5285,-2.536,-2.6452,-2.6722,-2.732,-2.8592,-2.8771,-2.9086,-2.9744,-2.9478,-2.8944,-2.814,0.0,0.0,0.0,0.0,-2.7359,-2.8876,-2.9018,-2.984,-3.1427,-3.1426,-3.1558,-3.1691,-3.1616,-3.1616,-3.1764,-3.1764,-3.1661,-3.1586,-3.1586,-3.1541,-3.1482,-3.1482,-3.1482,-3.1482,-3.1482,-3.1482,-3.1482,-3.1482,0.0,0.0,-3.1482,-3.1482,-3.1482,-3.1482,-3.1482,-3.1482,-3.1482,-3.1091,-3.0761,-3.1375,-3.101,-3.0649,-3.1166,-3.1261,-3.1221,-3.1286,-3.1283,-3.1207,-3.1309,-3.1258,-3.119,-3.119,-3.119,-3.119,-3.119,-3.119,-3.119,-3.119,-3.0632,-3.0192,-3.0125,0.0,0.0,-2.7806,-2.6539,-2.5693,-2.5609,-2.4898,-2.4322,-2.3971,-2.3964,-2.411,-2.4373,-2.476,-2.5306,-2.5991,-2.6498,-2.6778,-2.6833,-2.4593,-2.5126,0.0,0.0,0.0,0.0,0.0,0.0,0.0,0.0,0.0,0.0,0.0,0.0,0.0,0.0,0.0,-2.2809,-2.4645,-2.6031,-2.6384,-2.6752,-2.6901,-2.6617,-2.7545,-2.8532,-2.931,-2.9849,-3.0417,-3.1106,-2.9829,-2.8948,-2.8837,-2.7485,0.0,-2.7105,-2.713,-2.7544,-2.8247,-2.8983,-2.9862,-3.0914,0.0,0.0,-3.3095,-3.2557,-3.2617,-3.311,-3.311,-3.2826,-3.2332,-3.2332,-3.2018,-3.1482,-3.1482,-3.1482,-3.1482,-3.1482,-3.1482,-3.1482,-3.1482,-3.1482,-3.1482,-3.1482,-3.1482,-3.1482,-3.1482,-3.1482,0.0,-3.1482,-3.1377,-3.136,-3.1437,-3.0983,-3.0563,-3.0669,-3.0631,-3.0746,-3.1339,-3.1302,-3.1376,-3.1952,-3.1596,-3.119,-3.119,-3.119,-3.119,-3.119,-3.119,-3.119,-3.119,-3.1072,-3.0768,-3.0176,-2.9837,-2.9161,-2.7891,-2.6996,-2.6234,-2.5642,-2.4898,-2.4486,-2.4394,-2.4377,-2.4555,-2.4865,-2.5209,-2.5586,-2.5991,-2.7064,-2.7897,-2.8498,-2.7383,-2.7548,0.0,0.0,0.0,0.0,0.0,0.0,0.0,0.0,0.0,0.0,0.0,-1.9263,-2.0489,0.0,-2.3966,-2.4785,-2.5758,-2.6605,-2.704,-2.7415,-2.7505,-2.7126,-2.7979,-2.8861,-2.952,-3.0148,-3.0791,-3.1422,-2.995,-2.914,-2.9366,-2.7848,-2.713,-2.767,-2.7695,-2.8024,-2.871,-2.9661,-3.0528,-3.1476,-3.2028,-3.2712,-3.3484,-3.3155,-3.3185,-3.3499,-3.3499,-3.3305,-3.2976,-3.2647,-3.2317,-3.1988,-3.1601,-3.1482,-3.1482,-3.1482,-3.1482,-3.1482,-3.1482,-3.1482,-3.1482,-3.1482,-3.1482,-3.1482,-3.1482,-3.1482,-3.1482,-3.1482,-3.1482,-3.1482,-3.1482,-3.1285,-3.1016,-3.1016,-3.1217,-3.155,-3.1901,-3.1858,-3.185,-3.2246,-3.1698,-3.119,-3.119,-3.119,-3.119,-3.119,-3.119,-3.119,-3.119,-3.119,-3.1055,-3.0683,-3.0328,-2.9803,-2.9042,-2.7926,-2.6945,-2.6201,-2.5795,-2.5423,-2.5067,-2.505,-2.5128,-2.5295,-2.5657,-2.6214,-2.6951,-2.8117,-2.8998,-2.9622,-3.0008,-3.043,0.0,0.0,0.0,0.0,0.0,0.0,0.0,0.0,-1.7375,-1.8938,-2.0782,-2.237,-2.331,-2.471,-2.5878,-2.6504,-2.6811,-2.7171,-2.7694,-2.7769,-2.7769,-2.7769,-2.8382,-2.9011,-2.9535,-3.0253,-3.0941,-3.1437,-2.995,-2.9265,-2.9793,-2.8196,-2.7582,-2.8247,-2.826,-2.8664,-2.9464,-3.0414,-3.136,-3.2239,-3.3006,-3.3568,-3.3873,-3.3739,-3.3769,-3.3873,-3.3739,-3.3679,-3.3634,-3.2976,-3.2632,-3.2467,-3.1928,-3.1586,-3.1482,-3.1482,-3.1482,-3.1482,-3.1482,-3.1482,-3.1482,-3.1482,-3.1482,-3.1482,-3.1482,-3.1482,-3.1482,-3.1482,-3.1482,-3.1482,-3.1482,-3.1482,-3.1482,-3.1482,-3.1898,-3.2339,-3.2634,-3.2393,-3.2184,-3.2476,-3.1799,-3.119,-3.119,-3.119,-3.119,-3.119,-3.119,-3.119,-3.119,-3.119,-3.119,-3.119,-3.0666,-3.026,-3.0125,-2.8704,-2.7571,-2.6945,-2.6776,-2.642,-2.5845,-2.5964,-2.6031,-2.6031,-2.655,-2.7282,-2.8223,-2.9229,-2.9998,-3.0588,-3.1887,-3.2517,-1.3657,-1.4242,-1.5205,-1.6992,-1.7357,-1.8041,0.0,0.0,-2.1395,-2.2709,-2.4032,-2.4844,-2.4491,-2.591,-2.7041,-2.6654,-2.759,-2.8397,-2.8472,-2.8487,-2.8487,-2.8487,-2.9071,-2.9505,-2.9564,-3.0687,-3.1392,-3.1467,-2.995,-2.9265,-2.9793,-2.8196,-2.7758,-2.88,-2.8837,-2.9076,-2.9744,-3.0712,-3.1613,-3.2541,-3.2929,-3.3878,-3.5265,-3.4637,-3.4696,-3.525,-3.4637,-3.4367,-3.4322,-3.3649,-3.3036,-3.2497,-3.2437,-3.2048,-3.1482,-3.1482,-3.1482,-3.1482,-3.1482,-3.1482,-3.1482,-3.1482,-3.1482,-3.1482,-3.1482,-3.1482,-3.1482,-3.1482,-3.1482,-3.1482,-3.1482,-3.1482,-3.1482,-3.1482,-3.1515,-3.1867,-3.3173,-3.2413,-3.1795,-3.3052,-3.2154,-3.119,-3.119,-3.119,-3.119,-3.119,-3.119,-3.119,-3.119,-3.119,-3.119,-3.119,-3.1123,-3.0818,-3.0176,-2.8704,-2.7755,-2.7671,-2.7063,-2.6657,-2.6573,-2.7215,-2.7536,-2.7536,-2.8596,-2.9193,-2.9329,-2.9804,-3.0642,-3.1815,-3.1996,-3.2256,-1.5811,-1.6766,0.0,0.0,-2.0362,-2.1066,-2.2817,-2.331,-2.355,-2.4088,-2.5198,-2.603,-2.5811,-2.6351,-2.6929,0.0,-2.714,-2.734,-2.7626,-2.7773,-2.7827,-2.7827,-2.8536,-2.916,-2.9549,-3.0402,-3.1106,-3.1437,-3.0216,-2.9725,-3.0264,-2.8944,-2.8612,-2.9402,-2.9428,-2.9553,-2.9792,-3.1267,-3.196,-3.1815,-3.3057,-3.3999,-3.461,-3.4317,-3.4706,-3.5489,-3.519,-3.507,-3.5026,-3.4337,-3.3903,-3.3589,-3.2811,-3.2347,-3.2063,-3.1616,-3.1482,-3.1482,-3.1482,-3.1482,-3.1482,-3.1482,-3.1482,-3.1482,-3.1482,-3.1482,-3.1482,-3.1482,-3.1482,-3.1482,-3.1482,-3.1482,-3.1482,-3.1482,-3.1835,-3.2268,-3.287,-3.2788,-3.2644,-3.2768,-3.2278,-3.1681,-3.1258,-3.119,-3.119,-3.119,-3.119,-3.119,-3.119,-3.119,-3.119,-3.119,-3.119,-3.0903,-3.0176,-2.9516,-2.8975,-2.8535,-2.8197,-2.7824,-2.7368,-2.762,-2.7789,-2.7789,-2.827,-2.8836,-2.9488,-3.0124,-3.0967,-3.2,-3.248,-3.29,-1.713,0.0,0.0,-2.1024,-2.2176,-2.3141,-2.394,-2.4655,-2.5211,-2.5405,-2.5905,-2.6327,-2.6327,-2.6126,-2.6101,-2.6475,-2.6483,-2.6638,-2.6992,-2.7371,-2.7551,-2.7551,-2.8174,-2.8861,-2.952,-3.0148,-3.0791,-3.1422,-3.0458,-3.0031,-3.0568,-2.9528,-2.9202,-2.9779,-2.9792,-2.9934,-3.0216,-3.1549,-3.2033,-3.1609,-3.2961,-3.3602,-3.3602,-3.3876,-3.4394,-3.5133,-3.5359,-3.5359,-3.5088,-3.4887,-3.4509,-3.4051,-3.3363,-3.2841,-3.2452,-3.1973,-3.1631,-3.1482,-3.1482,-3.1482,-3.1482,-3.1482,-3.1482,-3.1482,-3.1482,-3.1482,-3.1482,-3.1482,-3.1482,-3.1482,-3.1482,-3.1482,-3.1482,-3.1482,-3.191,-3.2327,-3.2547,-3.2953,-3.3139,-3.2771,-3.2644,-3.2357,-3.1613,-3.1495,-3.1427,-3.1224,-3.119,-3.119,-3.119,-3.119,-3.119,-3.119,-3.119,-3.097,-3.0446,-3.0226,-2.9871,-2.933,-2.9093,-2.8738,-2.8163,-2.8349,-2.8414,-2.8414,-2.8653,-2.9136,-2.997,-3.0539,-3.1202,-3.1956,-3.2683,-3.3225,0.0,0.0,-1.9304,-2.0501,-2.2152,-2.3808,-2.5142,-2.6026,-2.6707,-2.735,-2.6512,-2.5618,-2.5618,-2.5053,-2.4593,-2.4553,-2.6062,-2.7179,-2.7193,-2.7838,-2.8297,-2.8297,-2.8468,-2.8861,0.0,-3.0148,-3.0791,-3.1422,-3.0458,-3.0031,-3.0568,-2.9528,-2.9202,-2.9779,-2.9792,-3.0203,-3.118,-3.118,-3.1669,-3.2522,-3.2593,-3.2664,-3.2664,-3.3602,-3.4027,-3.4095,-3.5067,-3.492,-3.4095,-3.5118,-3.4537,-3.3266,-3.4095,-3.3634,-3.2512,-3.2497,-3.2078,-3.1482,-3.1482,-3.1482,-3.1482,-3.1482,-3.1482,-3.1482,-3.1482,-3.1482,-3.1482,-3.1482,-3.1482,-3.1482,-3.1482,-3.1482,-3.1482,-3.1482,-3.1539,-3.1739,-3.2437,-3.2557,-3.2707,-3.3348,-3.3395,-3.3136,-3.2374,-3.2297,-3.2002,-3.1309,-3.119,-3.119,-3.119,-3.119,-3.119,-3.119,-3.119,-3.119,-3.1157,-3.0514,-3.0091,-3.0074,-2.9397,-2.9011,-2.8941,-2.9651,-3.004,-3.004,-3.0734,-3.1106,-3.1162,-3.1179,-3.1414,-3.1826,-3.2298,-3.2777,0.0,0.0,-2.0589,-2.215,-2.3293,-2.4319,-2.521,-2.5678,-2.5792,-2.5569,-2.4948,-2.4264,-2.3858,-2.3206,-2.2948,-2.3635,-2.4484,-2.5533,-2.6845,-2.7618,-2.8341,-2.8885,-2.9116,0.0,0.0,0.0,0.0,-3.1422,-3.1372,-3.112,-3.0649,-3.0506,-3.0213,-2.9779,-3.0419,-3.0908,-3.118,-3.2464,-3.2593,-3.1669,-3.1669,-3.1669,-3.1669,-3.2664,-3.3101,-3.3101,-3.3463,-3.3394,-3.3171,-3.4109,-3.4196,-3.3749,-3.4303,-3.3933,-3.311,-3.2677,-3.2093,-3.1482,-3.1482,-3.1482,-3.1482,-3.1482,-3.1482,-3.1482,-3.1482,-3.1482,-3.1482,-3.1482,-3.1482,-3.1482,-3.1482,-3.1482,-3.1482,-3.1482,-3.1482,-3.1582,-3.1796,-3.26,-3.3152,-3.2901,-3.3524,-3.3728,-3.2493,-3.2313,-3.2036,-3.1309,-3.119,-3.119,-3.119,-3.119,-3.119,-3.119,-3.119,-3.119,-3.119,-3.097,-3.0835,-3.0835,-3.0598,-3.0226,-2.9753,-2.9973,-3.0108,-3.0108,-3.0345,-3.0717,-3.119,-3.119,-3.1411,-3.1808,-3.1951,-3.2298,0.0,-2.015,-2.1355,-2.2697,-2.3702,-2.4394,-2.464,-2.491,-2.4911,-2.4114,-2.3322,-2.26,-2.1994,-2.1295,-2.1185,-2.2265,-2.3373,-2.4709,-2.6403,-2.766,-2.8651,-2.9201,-2.9908,-3.0432,0.0,0.0,0.0,-3.1482,-3.2105,-3.206,-3.1212,-3.1523,-3.1402,-3.0846,-3.1402,-3.1888,-3.2177,-3.3031,-3.2749,-3.118,-3.0833,-3.0696,-3.0771,-3.1683,-3.2105,-3.2105,-3.2464,-3.2393,-3.2177,-3.3449,-3.3808,-3.3599,-3.4233,-3.4068,-3.3425,-3.2766,-3.2093,-3.1482,-3.1482,-3.1482,-3.1482,-3.1482,-3.1482,-3.1482,-3.1482,-3.1482,-3.1482,-3.1482,-3.1482,-3.1482,-3.1482,-3.1482,-3.1482,-3.1482,-3.1482,-3.1482,-3.1482,-3.2407,-3.3108,-3.2629,-3.3615,-3.408,-3.2605,-3.21,-3.1732,-3.1258,-3.119,-3.119,-3.119,-3.119,-3.119,-3.119,-3.119,-3.119,-3.119,-3.119,-3.119,-3.119,-3.119,-3.0987,-3.0514,-3.0497,-3.0497,-3.0497,-3.0497,-3.0734,-3.119,-3.119,-3.1312,-3.1603,-3.1716,-3.2107,-1.9597,-2.069,-2.1656,-2.2221,-2.3322,-2.4076,-2.3471,-2.3879,-2.4031,-2.2942,-2.1743,-2.0673,0.0,0.0,-1.9334,-2.0401,-2.2704,-2.4766,-2.5959,-2.8015,-2.936,0.0,0.0,0.0,0.0,0.0,0.0,-3.1676,0.0,-3.2861,-3.2163,-3.2442,-3.2664,-3.2593,-3.2664,-3.3101,-3.4027,-3.3101,-3.2177,-3.1241,-3.0279,-2.9792,-2.9869,-3.0696,-3.1106,-3.118,-3.2033,-3.196,-3.1241,-3.3101,-3.331,-3.2693,-3.3988,-3.4035,-3.3348,-3.2796,-3.2123,-3.1482,-3.1482,-3.1482,-3.1482,-3.1482,-3.1482,-3.1482,-3.1482,-3.1482,-3.1482,-3.1482,-3.1482,-3.1482,-3.1482,-3.1482,-3.1482,-3.1482,-3.1482,-3.1482,-3.1482,-3.2064,-3.2586,-3.2586,-3.3652,-3.4098,-3.2747,-3.1851,-3.1292,-3.1258,-3.1258,-3.1241,-3.119,-3.119,-3.119,-3.119,-3.119,-3.119,-3.119,-3.119,-3.119,-3.119,-3.119,-3.119,-3.119,-3.119,-3.119,-3.119,-3.119,-3.119,-3.119,-3.119,-3.119,-3.119,-3.1603,-3.2221,-2.0752,-2.1568,-2.2234,-2.2786,-2.3144,-2.3272,-2.2712,-2.2463,-2.1995,-2.0848,-1.9751,-1.8671,-1.7624,0.0,0.0,-1.9334,-2.1673,0.0,-2.6644,-2.8602,0.0,0.0,0.0,-3.2991,-3.2991,-3.3739,0.0,0.0,-3.3716,-3.3794,-3.2889,-3.3325,-3.331,-3.2593,-3.331,-3.3739,-3.4027,-3.3101,-3.2464,-3.2249,-3.057,-2.9792,-2.9792,-3.0075,-3.0139,-3.0139,-3.0432,-3.0355,-3.0279,-3.1402,-3.1742,-3.1729,-3.3417,-3.3449,-3.2523,-3.303,-3.2512,-3.1482,-3.1482,-3.1482,-3.1482,-3.1482,-3.1482,-3.1482,-3.1482,-3.1482,-3.1482,-3.1482,-3.1482,-3.1482,-3.1482,-3.1482,-3.1482,-3.1482,-3.1482,-3.1482,-3.1482,-3.2064,-3.2586,-3.2586,-3.3217,-3.3826,-3.3946,-3.3355,-3.2645,-3.2087,-3.2002,-3.1799,-3.1258,-3.119,-3.119,-3.119,-3.119,-3.119,-3.119,-3.119,-3.119,-3.119,-3.119,-3.119,-3.119,-3.119,-3.119,-3.119,-3.119,-3.119,-3.119,-3.119,-3.119,-3.119,-3.1329,-3.1759,-2.1606,-2.2246,-2.2749,-2.3002,-2.289,-2.2573,-2.1769,-2.1161,-2.0348,-1.8667,-1.792,0.0,-1.6014,0.0,0.0,0.0,0.0,0.0,-2.7003,-2.9482,-3.1467,0.0,-3.335,0.0,-3.3918,-3.4532,-3.4771,0.0,-3.4726,-3.4594,-3.3753,-3.4339,-3.4409,-3.3905,-3.4394,-3.4691,-3.4691,-3.3325,-3.2593,-3.2593,-3.0709,-2.9792,-2.9792,-2.9792,-2.9792,-2.9792,0.0,-2.9792,-2.9856,-3.0833,-3.118,-3.1262,-3.2222,-3.2416,-3.2083,-3.2112,-3.1842,-3.1482,-3.1482,-3.1482,-3.1482,-3.1482,-3.1482,-3.1482,-3.1482,-3.1482,-3.1482,-3.1482,-3.1482,-3.1482,-3.1482,-3.1482,-3.1482,-3.1482,-3.1482,-3.1482,-3.1482,-3.1853,-3.2327,-3.2933,-3.3038,-3.3381,-3.4341,-3.3609,-3.2763,-3.2341,-3.2002,-3.1664,-3.1241,-3.119,-3.119,-3.119,-3.119,-3.119,-3.119,-3.119,-3.119,-3.119,-3.119,-3.119,-3.119,-3.119,-3.119,-3.119,-3.119,-3.119,-3.119,-3.119,-3.119,-3.119,-3.119,-3.1596,-2.2272,-2.2774,-2.3078,-2.3078,-2.2661,-2.1933,-2.0903,-1.9997,-1.8808,-1.6879,0.0,-1.5886,-1.4952,-1.5731,-1.7049,-1.8656,0.0,-2.5134,-2.7006,-3.0115,-3.2287,-3.2572,-3.3814,-3.4607,-3.4607,-3.516,-3.5504,-3.5504,-3.5504,-3.525,-3.4637,-3.5175,-3.5504,-3.5504,-3.5504,-3.5504,-3.5504,-3.3547,-3.2593,-3.2593,-3.0709,-2.9792,-2.9792,-2.9792,-2.9792,-2.9792,0.0,0.0,-2.9856,-3.0696,-3.1044,-3.1,-3.0825,-3.1135,-3.1596,-3.0754,-3.0776,-3.1351,-3.1467,-3.1482,-3.1482,-3.1482,-3.1482,-3.1482,-3.1482,-3.1482,-3.1482,-3.1482,-3.1482,-3.1482,-3.1482,-3.1482,-3.1482,-3.1482,-3.1482,-3.1482,-3.1482,-3.1482,-3.1894,-3.3235,-3.2965,-3.2868,-3.4074,-3.3194,-3.2269,-3.2085,-3.1594,-3.1213,-3.1072,-3.1151,-3.119,-3.119,-3.119,-3.119,-3.119,-3.119,-3.119,-3.119,-3.119,-3.119,-3.119,-3.119,-3.119,-3.119,-3.119,-3.119,-3.119,-3.119,-3.119,-3.119,-3.119,-3.1596,-2.2836,-2.3002,-2.3078,-2.3078,-2.2372,-2.1455,-2.0869,-1.8845,0.0,0.0,0.0,-1.4444,-1.4262,-1.5467,0.0,-1.8154,0.0,0.0,0.0,0.0,-3.1203,0.0,0.0,0.0,0.0,0.0,0.0,0.0,0.0,-3.5444,-3.5325,-3.5444,-3.5504,-3.5504,-3.5504,-3.5504,-3.5504,-3.3547,-3.2593,-3.2593,-3.0709,-2.9792,-2.9792,-2.9792,-2.9792,-2.9792,-2.9792,0.0,-2.9792,-3.0011,-3.0075,-3.0075,-3.0335,-3.0241,-2.9969,-3.0758,-3.0823,-3.0584,-3.1278,-3.1482,-3.1482,-3.1482,-3.1482,-3.1482,-3.1482,-3.1482,-3.1482,-3.1482,-3.1482,-3.1482,-3.1482,-3.1482,-3.1482,-3.1482,-3.1482,-3.1482,-3.1482,-3.1482,-3.1739,-3.2586,-3.264,-3.2641,-3.2885,-3.2724,-3.2158,-3.0975,-3.1117,-3.1139,-3.0543,-3.0878,-3.119,-3.119,-3.119,-3.119,-3.119,-3.119,-3.119,-3.119,-3.119,-3.119,-3.119,-3.119,-3.119,-3.119,-3.119,-3.119,-3.119,-3.119,-3.119,-3.119,-3.119,-3.1596,-2.2855,-2.3078,-2.3078,-2.3078,-2.2083,-2.0786,-1.9673,0.0,0.0,0.0,0.0,-1.3317,-1.3265,0.0,0.0,0.0,0.0,0.0,0.0,0.0,0.0,0.0,0.0,0.0,0.0,0.0,0.0,0.0,0.0,0.0,-3.5504,-3.5504,-3.5504,-3.5504,-3.5504,-3.5504,-3.5504,-3.3547,-3.2593,-3.2593,-3.0709,-2.9792,-2.9792,-2.9792,-2.9792,-2.9792,-2.9792,0.0,-2.9792,-2.9792,-2.9792,-2.9781,-2.9333,-2.9301,-2.9485,-2.9878,-3.0131,-3.0389,-3.1219,-3.1482,-3.1482,-3.1482,-3.1482,-3.1482,-3.1482,-3.1482,-3.1482,-3.1482,-3.1482,-3.1482,-3.1482,-3.1482,-3.1482,-3.1482,-3.1482,-3.1482,-3.1482,-3.1482,-3.1739,-3.2437,-3.2307,-3.2201,-3.2556,-3.1983,-3.1262,-3.0619,-3.04,-3.0353,-3.03,-3.0559,-3.0838,-3.1151,-3.119,-3.119,-3.119,-3.119,-3.119,-3.119,-3.119,-3.119,-3.119,-3.119,-3.119,-3.119,-3.119,-3.119,-3.119,-3.119,-3.119,-3.119,-3.119,-3.1376,-2.2381,-2.2917,-2.3053,-2.2987,-2.1594,-1.9924,-1.8469,-1.6538,0.0,0.0,-1.2424,-1.2309,-1.2472,0.0,0.0,0.0,0.0,0.0,0.0,0.0,0.0,0.0,0.0,0.0,0.0,0.0,0.0,0.0,0.0,0.0,-3.5504,-3.5504,-3.5504,-3.5504,-3.5504,-3.5504,-3.5504,-3.3547,-3.2593,-3.2593,-3.0709,-2.9792,-2.9792,-2.9792,-2.9792,-2.9792,-2.9792,0.0,0.0,-2.9654,-2.9616,-2.9503,-2.8373,-2.8329,-2.8939,-2.8754,-2.9254,-3.0133,-3.097,-3.1351,-3.1482,-3.1482,-3.1482,-3.1482,-3.1482,-3.1482,-3.1482,-3.1482,-3.1482,-3.1482,-3.1482,-3.1482,-3.1482,-3.1482,-3.1482,-3.1482,-3.1482,-3.1482,-3.1697,-3.2272,-3.1828,-3.1517,-3.1899,-3.094,-3.0054,-2.9895,-2.9483,-2.9361,-2.9848,-3.0038,-3.0293,-3.074,-3.1055,-3.119,-3.119,-3.119,-3.119,-3.119,-3.119,-3.119,-3.119,-3.119,-3.119,-3.119,-3.119,-3.119,-3.119,-3.119,-3.119,-3.119,-3.119,-3.119,-2.126,-2.22,-2.2952,-2.251,-2.073,-1.8811,-1.7811,0.0,0.0,-1.2625,-1.1839,-1.1437,-1.233,-1.3007,0.0,0.0,0.0,0.0,0.0,0.0,0.0,0.0,0.0,0.0,0.0,0.0,0.0,0.0,0.0,0.0,0.0,-3.5504,-3.5504,-3.5504,-3.5504,-3.5504,-3.5504,-3.3547,-3.2593,-3.2593,-3.0709,-2.9792,-2.9792,-2.9792,-2.9792,-2.9792,-2.9792,0.0,0.0,-2.9227,-2.9001,-2.89,-2.7795,-2.7427,-2.7551,-2.7706,-2.8363,-2.9254,-3.0133,-3.0896,-3.1482,-3.1482,-3.1482,-3.1482,-3.1482,-3.1482,-3.1482,-3.1482,-3.1482,-3.1482,-3.1482,-3.1482,-3.1482,-3.1482,-3.1482,-3.1482,-3.1482,-3.1482,-3.1524,-3.1582,-3.1084,-3.0438,-2.9961,-2.9267,-2.8574,-2.7941,-2.8268,-2.8606,-2.8654,-2.9134,-2.9496,-2.954,-3.0559,-3.119,-3.119,-3.119,-3.119,-3.119,-3.119,-3.119,-3.119,-3.119,-3.119,-3.119,-3.119,-3.119,-3.119,-3.119,-3.119,-3.119,-3.119,-3.119,-2.0921,-2.1977,-2.2585,-2.2372,-2.06,-1.8486,-1.6917,0.0,-1.2278,-1.1371,-1.0887,-1.0878,-1.1872,-1.2516,-1.3474,0.0,-1.5994,-1.7839,0.0,0.0,0.0,0.0,0.0,0.0,0.0,0.0,0.0,0.0,0.0,0.0,0.0,-3.5133,-3.5504,-3.5504,-3.5504,-3.5504,-3.5504,-3.4109,-3.3171,-3.2593,-3.1267,-3.0343,-2.9792,-2.9792,-2.9792,-2.9792,-2.9792,0.0,0.0,-2.9026,-2.8737,-2.8348,-2.7582,-2.7281,-2.7347,-2.7626,-2.792,-2.8363,-2.9192,-2.9752,-3.0072,-3.0584,-3.0777,-3.0896,-3.1351,-3.1482,-3.1482,-3.1482,-3.1482,-3.1482,-3.1482,-3.1482,-3.1482,-3.1482,-3.1482,-3.1482,-3.1482,-3.1482,-3.1482,-3.1482,-3.0672,-2.9864,-2.9624,-2.8697,-2.7889,-2.767,-2.781,-2.8091,-2.8463,-2.8701,-2.9012,-2.9361,-3.0166,-3.0658,-3.0658,-3.1015,-3.119,-3.119,-3.119,-3.119,-3.119,-3.119,-3.119,-3.119,-3.119,-3.119,-3.119,-3.119,-3.119,-3.119,-3.119,-3.119,-1.9499,-2.0807,-2.1465,-2.1223,-1.978,-1.7878,0.0,0.0,-1.1849,-1.0577,-1.039,-1.0764,-1.1627,-1.2204,-1.3033,0.0,-1.5234,-1.6859,-2.0113,0.0,0.0,0.0,0.0,0.0,0.0,0.0,0.0,0.0,0.0,0.0,0.0,-3.4259,-3.4773,-3.5052,-3.5067,-3.5213,-3.5504,-3.4476,-3.3518,-3.2593,-3.1669,-3.0696,-2.9779,-2.9616,-2.9528,-2.9528,0.0,0.0,0.0,-2.8511,-2.821,-2.7808,-2.7256,-2.703,-2.7062,-2.7249,-2.7484,-2.7802,-2.8427,-2.8812,-2.9129,-2.969,-3.0072,-3.0389,-3.097,-3.1278,-3.1482,-3.1482,-3.1482,-3.1482,-3.1482,-3.1482,-3.1482,-3.1482,-3.1482,-3.1482,-3.1482,-3.1482,-3.1422,-3.127,-3.0342,-2.952,-2.9325,-2.8338,-2.7625,-2.7625,-2.7625,-2.776,-2.8189,-2.8222,-2.8415,-2.881,-2.9585,-3.0123,-3.0293,-3.0838,-3.119,-3.119,-3.119,-3.119,-3.119,-3.119,-3.119,-3.119,-3.119,-3.119,-3.119,-3.119,-3.119,-3.119,-3.119,-3.1427,-1.6371,-1.8226,-1.9535,-1.8748,-1.7863,-1.6667,0.0,-1.2761,-1.1361,-1.0498,-1.0687,-1.1169,-1.17,-1.2174,-1.2866,-1.3924,-1.5008,-1.657,-1.8972,0.0,0.0,0.0,0.0,0.0,0.0,0.0,0.0,0.0,0.0,0.0,0.0,-3.2593,-3.3031,-3.4027,-3.4027,-3.4461,-3.5504,-3.4476,-3.3518,-3.2593,-3.1669,-3.0696,-2.9779,-2.9202,-2.8938,0.0,0.0,0.0,0.0,-2.7519,-2.7293,-2.7231,-2.6747,-2.6533,-2.6533,-2.6533,-2.704,-2.767,-2.7736,-2.8298,-2.9002,-2.9002,-2.9566,-3.0329,-3.0329,-3.0896,-3.1482,-3.1482,-3.1482,-3.1482,-3.1482,-3.1482,-3.1482,-3.1482,-3.1482,-3.1482,-3.1482,-3.1482,-3.133,-3.0657,-3.0013,-2.937,-2.8727,-2.8038,-2.7625,-2.7625,-2.7625,-2.7625,-2.7625,-2.7625,-2.761,-2.7625,-2.867,-2.9629,-3.0251,-3.0838,-3.119,-3.119,-3.119,-3.119,-3.119,-3.119,-3.119,-3.119,-3.119,-3.119,-3.119,-3.119,-3.119,-3.119,-3.119,-3.1985,-1.5259,-1.6523,-1.7403,-1.6853,-1.6132,-1.5127,-1.3474,-1.232,-1.1361,-1.0498,-1.0687,-1.1169,-1.17,-1.2174,-1.3095,-1.4913,0.0,0.0,0.0,0.0,0.0,0.0,0.0,0.0,0.0,0.0,0.0,0.0,0.0,0.0,0.0,-3.0086,-3.0922,-3.393,-3.3624,-3.4053,-3.5504,-3.4068,-3.3135,-3.2593,-3.1294,-3.0125,-2.9189,-2.8624,0.0,0.0,0.0,0.0,0.0,-2.7356,-2.7055,-2.6703,-2.6596,-2.6533,-2.6533,-2.6533,-2.6658,-2.6905,-2.6905,-2.704,-2.7351,-2.792,-2.8298,-2.862,-2.9254,-3.0389,-3.1482,-3.1482,-3.1482,-3.1482,-3.1482,-3.1482,-3.1482,-3.1482,-3.1482,-3.1482,-3.1482,-3.1165,-3.0761,-3.0552,-2.9639,-2.8846,-2.8637,-2.8023,-2.7625,-2.7625,-2.7625,-2.7625,-2.7625,-2.7625,-2.7625,-2.7625,-2.867,-2.9496,-2.9673,-3.0617,-3.119,-3.119,-3.119,-3.119,-3.119,-3.119,-3.119,-3.119,-3.119,-3.119,-3.119,-3.119,-3.119,-3.119,-3.119,-3.1985,0.0,-1.4536,-1.5196,-1.4858,-1.4504,-1.3907,-1.2559,-1.1812,-1.1123,-1.043,-1.084,-1.1394,-1.1737,-1.2318,-1.3264,-1.4838,0.0,0.0,0.0,0.0,0.0,0.0,0.0,0.0,0.0,0.0,0.0,0.0,0.0,0.0,0.0,-2.8638,-2.9379,-3.2249,-3.2266,-3.2749,-3.3762,-3.3093,-3.2334,-3.1425,-3.0521,-2.9528,-2.8599,-2.8047,0.0,0.0,0.0,0.0,0.0,-2.6967,-2.6766,-2.6533,-2.6533,-2.6533,-2.6533,-2.6533,-2.6533,-2.6533,-2.6533,-2.6533,-2.6589,-2.7095,-2.7484,-2.792,-2.9129,-3.0208,-3.1087,-3.1409,-3.1482,-3.1482,-3.1482,-3.1482,-3.1482,-3.1482,-3.1482,-3.1407,-3.121,-3.0806,-3.0357,-2.9879,-2.9146,-2.8517,-2.8263,-2.7859,-2.7625,-2.7625,-2.7625,-2.7625,-2.7625,-2.7625,-2.7625,-2.7625,-2.8496,-2.9134,-2.9361,-3.0518,-3.119,-3.119,-3.119,-3.119,-3.119,-3.119,-3.119,-3.119,-3.119,-3.119,-3.119,-3.119,-3.119,-3.119,-3.119,-3.1985,0.0,-1.2185,-1.2947,-1.2688,-1.2848,-1.2782,-1.1677,-1.1133,0.0,-1.044,-1.1105,-1.1833,-1.1937,-1.2698,-1.3509,-1.4211,0.0,0.0,0.0,0.0,0.0,0.0,0.0,0.0,0.0,0.0,0.0,0.0,0.0,0.0,0.0,-2.8009,-2.8392,-2.9263,-3.0133,-3.0715,-3.1065,-3.163,-3.1156,-2.9591,-2.9412,-2.886,-2.8034,-2.7469,0.0,0.0,0.0,0.0,0.0,-2.6533,-2.6533,-2.6533,-2.6533,-2.6533,-2.6533,-2.6533,-2.6533,-2.6533,-2.6533,-2.6533,-2.6533,-2.6533,-2.704,-2.792,-2.969,-3.0269,-3.0464,-3.1278,-3.1482,-3.1482,-3.1482,-3.1482,-3.1482,-3.1482,-3.1437,-3.1285,-3.0642,-3.0432,-3.0013,-2.8831,-2.8562,-2.8323,-2.7679,-2.7625,-2.7625,-2.7625,-2.7625,-2.7625,-2.7625,-2.7625,-2.7625,-2.7625,-2.814,-2.8732,-2.9271,-3.0435,-3.1151,-3.119,-3.119,-3.119,-3.119,-3.119,-3.119,-3.119,-3.119,-3.119,-3.119,-3.119,-3.119,-3.119,-3.119,-3.1985,-0.9048,0.0,-1.0367,-1.0008,-1.0182,-1.0387,0.0,-1.0264,-1.0518,0.0,0.0,-1.2147,-1.3353,-1.3741,-1.45,0.0,0.0,0.0,0.0,0.0,0.0,0.0,0.0,0.0,0.0,0.0,0.0,0.0,0.0,0.0,0.0,-2.708,-2.6981,-2.7176,-2.8011,-2.9545,-3.1868,-3.0248,-2.9727,-3.046,-2.8669,-2.767,-2.7457,-2.6904,0.0,0.0,0.0,0.0,-2.6533,-2.6533,-2.6533,-2.6533,-2.6533,-2.6533,-2.6533,-2.6533,-2.6533,-2.6533,-2.6533,-2.6533,-2.6533,-2.6533,-2.6658,-2.7095,-2.8812,-2.9766,-3.0464,-3.1278,-3.1482,-3.1482,-3.1482,-3.1482,-3.1482,-3.1482,-3.1135,-3.0702,-3.0537,-2.9744,-2.8966,-2.8667,-2.8173,-2.7754,-2.7655,-2.7625,-2.7625,-2.7625,-2.7625,-2.7625,-2.7625,-2.7625,-2.7625,-2.7625,-2.814,-2.8559,-2.8685,-2.9805,-3.0699,-3.119,-3.119,-3.119,-3.119,-3.119,-3.119,-3.119,-3.119,-3.119,-3.119,-3.119,-3.119,-3.119,-3.119,-3.1985,-0.8086,-0.8984,-0.9873,-0.9648,-0.9902,-1.0215,-1.0215,0.0,0.0,0.0,0.0,0.0,-1.3221,0.0,0.0,0.0,0.0,0.0,0.0,0.0,0.0,0.0,0.0,0.0,0.0,0.0,0.0,0.0,0.0,0.0,0.0,-2.6697,-2.6533,-2.6533,-2.6905,-2.7906,-2.9574,-2.8599,-2.8343,-2.8796,-2.7575,-2.6904,-2.6892,-2.6603,-2.6533,0.0,0.0,0.0,-2.6533,-2.6533,-2.6533,-2.6533,-2.6533,-2.6533,-2.6533,-2.6533,-2.6533,-2.6533,-2.6533,-2.6533,-2.6533,-2.6533,-2.6533,-2.6782,-2.8492,-2.9317,-2.995,-3.1161,-3.1482,-3.1482,-3.1482,-3.1482,-3.1392,-3.1135,-3.0776,-3.0342,-2.9759,-2.9086,-2.8502,-2.8188,-2.7829,-2.7625,-2.7625,-2.7625,-2.7625,-2.7625,-2.7625,-2.7625,-2.7625,-2.7625,-2.7625,-2.7625,-2.7894,-2.8189,-2.8463,-2.9104,-2.9848,-3.074,-3.1055,-3.119,-3.119,-3.119,-3.119,-3.119,-3.119,-3.119,-3.119,-3.119,-3.119,-3.119,-3.119,-3.1799,-0.7851,-0.9072,-1.0234,-1.0077,-1.041,-1.0811,-1.0811,0.0,0.0,0.0,0.0,0.0,0.0,0.0,0.0,0.0,0.0,0.0,0.0,0.0,0.0,0.0,0.0,0.0,0.0,0.0,0.0,0.0,0.0,0.0,0.0,-2.6533,-2.6533,-2.6533,-2.6533,-2.6533,-2.6533,-2.7162,-2.7229,-2.6658,-2.6589,-2.6533,-2.6533,-2.6533,-2.6533,0.0,0.0,0.0,-2.6533,-2.6533,-2.6533,-2.6533,-2.6533,-2.6533,-2.6533,-2.6533,-2.6533,-2.6533,-2.6533,-2.6533,-2.6533,-2.6533,-2.6533,-2.6782,-2.8298,-2.8807,-2.9177,-3.0749,-3.126,-3.1375,-3.1375,-3.13,-3.1091,-3.0507,-3.0283,-2.9924,-2.8831,-2.8517,-2.8263,-2.7679,-2.7625,-2.7625,-2.7625,-2.7625,-2.7625,-2.7625,-2.7625,-2.7625,-2.7625,-2.7625,-2.7625,-2.7625,-2.7625,-2.781,-2.8319,-2.8463,-2.8919,-2.9935,-3.0699,-3.1095,-3.119,-3.119,-3.119,-3.119,-3.119,-3.119,-3.119,-3.119,-3.119,-3.119,-3.119,-3.1596,-0.8506,-0.9531,-1.002,-0.8969,-0.9531,-1.0381,-1.0381,0.0,0.0,0.0,0.0,0.0,0.0,0.0,0.0,0.0,0.0,0.0,0.0,0.0,0.0,0.0,0.0,0.0,0.0,0.0,0.0,0.0,0.0,0.0,0.0,0.0,-2.6533,-2.6533,-2.6533,-2.6533,-2.6533,-2.6589,-2.6973,-2.7484,-2.685,-2.6533,-2.6533,-2.6533,-2.6533,0.0,0.0,-2.6533,-2.6533,-2.6533,-2.6533,-2.6533,-2.6533,-2.6533,-2.6533,-2.6533,-2.6533,-2.6533,-2.6533,-2.6533,-2.6533,-2.6533,-2.6533,-2.6658,-2.7604,-2.8025,-2.8366,-2.9344,-3.0131,-3.0657,-3.0657,-3.0268,-2.9864,-2.9744,-2.9295,-2.8846,-2.8637,-2.8143,-2.7694,-2.764,-2.7625,-2.7625,-2.7625,-2.7625,-2.7625,-2.7625,-2.7625,-2.7625,-2.7625,-2.7625,-2.7625,-2.7625,-2.7625,-2.7625,-2.771,-2.8189,-2.8559,-2.8779,-2.9805,-3.0658,-3.119,-3.119,-3.119,-3.119,-3.119,-3.119,-3.119,-3.119,-3.119,-3.119,-3.119,-3.1596,-0.8141,-0.9102,-0.9785,-0.9199,-1.0205,-1.1396,-1.1631,0.0,0.0,0.0,0.0,0.0,0.0,0.0,0.0,0.0,0.0,0.0,0.0,0.0,0.0,0.0,0.0,0.0,0.0,0.0,0.0,0.0,0.0,0.0,0.0,0.0,-2.6533,-2.6533,-2.6533,-2.6533,-2.6533,-2.6533,-2.6714,-2.704,-2.6658,-2.6533,-2.6533,-2.6533,-2.6533,-2.6533,0.0,-2.6533,-2.6533,-2.6533,-2.6533,-2.6533,-2.6533,-2.6533,-2.6533,-2.6533,-2.6533,-2.6533,-2.6533,-2.6533,-2.6533,-2.6533,-2.6533,-2.6663,-2.7613,-2.7952,-2.8219,-2.9217,-2.9722,-2.9998,-2.9998,-2.9789,-2.949,-2.9146,-2.8816,-2.8502,-2.8128,-2.7799,-2.7625,-2.7625,-2.7625,-2.7625,-2.7625,-2.7625,-2.7625,-2.7625,-2.7625,-2.7625,-2.7625,-2.7625,-2.7625,-2.7625,-2.7625,-2.7625,-2.7625,-2.786,-2.8448,-2.9406,-2.9978,-3.0559,-3.119,-3.119,-3.119,-3.119,-3.119,-3.119,-3.119,-3.119,-3.119,-3.119,-3.119,-3.1376,-0.7908,-0.8775,-0.9641,-0.9845,0.0,-1.2246,-1.2881,0.0,0.0,0.0,0.0,0.0,0.0,0.0,0.0,0.0,0.0,0.0,0.0,0.0,0.0,0.0,0.0,0.0,0.0,0.0,0.0,0.0,0.0,0.0,0.0,0.0,-2.6533,-2.6533,-2.6327,-2.6264,-2.6264,-2.6138,-2.6269,-2.6533,-2.6533,-2.6533,-2.6533,-2.6533,-2.6533,-2.6521,-2.6382,-2.6264,-2.6319,-2.6126,-2.6076,-2.6076,-2.6076,-2.6076,-2.6076,-2.6076,-2.6076,-2.6076,-2.6076,-2.6076,-2.6076,-2.6076,-2.6198,-2.6486,-2.7279,-2.7666,-2.7998,-2.8829,-2.9113,-2.9146,-2.931,-2.9235,-2.8981,-2.8487,-2.8368,-2.8218,-2.7679,-2.7625,-2.7625,-2.7625,-2.7625,-2.7625,-2.7625,-2.7625,-2.7625,-2.7625,-2.7625,-2.7625,-2.7625,-2.7625,-2.7625,-2.7625,-2.7625,-2.7625,-2.7625,-2.7625,-2.8255,-2.9761,-3.0123,-3.0559,-3.119,-3.119,-3.119,-3.119,-3.119,-3.119,-3.119,-3.119,-3.119,-3.119,-3.119,-3.119,-0.8484,-0.9233,-0.9787,-1.0615,-1.1221,0.0,-1.3184,-1.4111,0.0,0.0,0.0,0.0,0.0,0.0,0.0,0.0,0.0,0.0,0.0,0.0,0.0,0.0,0.0,0.0,0.0,0.0,0.0,0.0,0.0,0.0,0.0,0.0,0.0,-2.6533,-2.5937,-2.5649,-2.5649,-2.5184,-2.5448,-2.6533,-2.6533,-2.6533,-2.6533,-2.6533,-2.6533,-2.6496,-2.5887,-2.5649,-2.5624,-2.5146,-2.4946,-2.4946,-2.4946,-2.4946,-2.4946,-2.4946,-2.4946,-2.4946,-2.4946,-2.4946,-2.4946,-2.4946,-2.5397,-2.5962,-2.6047,-2.6658,-2.7353,-2.742,-2.7607,-2.791,-2.8502,-2.8188,-2.7745,-2.77,-2.7685,-2.7685,-2.7625,-2.7625,-2.7625,-2.7625,-2.7625,-2.7625,-2.7625,-2.7625,-2.7625,-2.7625,-2.7625,-2.7625,-2.7625,-2.7625,-2.7625,-2.7625,-2.7625,-2.7625,-2.7625,-2.7625,-2.7894,-2.8606,-2.9673,-3.0559,-3.119,-3.119,-3.119,-3.119,-3.119,-3.119,-3.119,-3.119,-3.119,-3.119,-3.119,-3.119,-0.7654,-0.8684,-0.9738,-1.0371,0.0,0.0,0.0,0.0,0.0,0.0,0.0,0.0,0.0,0.0,0.0,0.0,0.0,0.0,0.0,0.0,0.0,0.0,0.0,0.0,0.0,0.0,0.0,0.0,0.0,0.0,0.0,0.0,0.0,-2.5435,-2.5222,-2.5109,-2.5109,-2.4921,-2.5034,-2.5435,-2.5435,-2.5435,-2.5435,-2.5435,-2.5435,-2.5423,-2.5209,-2.5109,-2.5096,-2.4895,-2.482,-2.482,-2.482,-2.482,-2.482,-2.482,-2.482,-2.482,-2.482,-2.482,-2.482,-2.482,-2.5281,-2.5902,-2.6028,-2.6677,-2.7317,-2.7436,-2.7535,-2.7685,-2.7889,-2.7769,-2.7625,-2.7625,-2.7625,-2.7625,-2.7625,-2.7625,-2.7625,-2.7625,-2.7625,-2.7625,-2.7625,-2.7625,-2.7625,-2.7625,-2.7625,-2.7625,-2.7625,-2.7625,-2.7625,-2.7625,-2.7625,-2.7625,-2.7625,-2.7625,-2.786,-2.8463,-2.9271,-3.0038,-3.0617,-3.1015,-3.119,-3.119,-3.119,-3.119,-3.119,-3.119,-3.119,-3.119,-3.119,-3.119,-0.7405,-0.8502,-0.9668,0.0,0.0,0.0,0.0,0.0,0.0,0.0,0.0,0.0,0.0,0.0,0.0,0.0,0.0,0.0,0.0,0.0,0.0,0.0,0.0,0.0,0.0,0.0,0.0,0.0,0.0,0.0,0.0,0.0,0.0,0.0,-2.4657,-2.4556,-2.4556,-2.4381,-2.4293,-2.4293,-2.4293,-2.4481,-2.482,-2.482,-2.482,-2.4808,-2.4644,-2.4556,-2.4544,-2.4368,-2.4293,-2.4293,-2.4293,-2.4293,-2.4293,-2.4293,-2.4293,-2.4293,-2.4293,-2.4293,-2.4293,-2.4293,-2.4916,-2.5767,-2.5901,-2.6622,-2.7404,-2.7578,-2.7625,-2.7625,-2.7625,-2.7625,-2.7625,-2.7625,-2.7625,-2.7625,-2.7625,-2.7625,-2.7625,-2.7625,-2.7625,-2.7625,-2.7625,-2.7625,-2.7625,-2.7625,-2.7625,-2.7625,-2.7625,-2.7625,-2.7625,-2.7625,-2.7625,-2.7625,-2.7625,-2.7625,-2.776,-2.8189,-2.8779,-2.9451,-3.0251,-3.0699,-3.1015,-3.119,-3.119,-3.119,-3.119,-3.119,-3.119,-3.119,-3.119,-3.119,-0.8114,-0.8837,-0.9578,0.0,0.0,0.0,0.0,0.0,0.0,0.0,0.0,0.0,0.0,0.0,0.0,0.0,0.0,0.0,0.0,0.0,0.0,0.0,0.0,0.0,0.0,0.0,0.0,0.0,0.0,0.0,0.0,0.0,0.0,0.0,-2.428,-2.3991,-2.3991,-2.3427,-2.3078,-2.3078,-2.3078,-2.3666,-2.4808,-2.4808,-2.4808,-2.477,-2.4217,-2.3991,-2.3954,-2.3376,-2.3078,-2.3078,-2.3078,-2.3078,-2.3078,-2.3078,-2.3078,-2.3078,-2.3078,-2.3078,-2.3078,-2.3138,-2.415,-2.5398,-2.5398,-2.6428,-2.7625,-2.7625,-2.7625,-2.7625,-2.7625,-2.7625,-2.7625,-2.7625,-2.7625,-2.7625,-2.7625,-2.7625,-2.7625,-2.7625,-2.7625,-2.7625,-2.7625,-2.7625,-2.7625,-2.7625,-2.7625,-2.7625,-2.7625,-2.7625,-2.7625,-2.7625,-2.7625,-2.7625,-2.7625,-2.7625,-2.7625,-2.7625,-2.814,-2.9042,-3.0208,-3.0293,-3.0559,-3.119,-3.119,-3.119,-3.119,-3.119,-3.119,-3.119,-3.119,-3.119,-0.729,-0.8503,0.0,0.0,0.0,0.0,0.0,0.0,0.0,0.0,0.0,0.0,0.0,0.0,0.0,0.0,0.0,0.0,0.0,0.0,0.0,0.0,0.0,0.0,0.0,0.0,0.0,0.0,0.0,0.0,0.0,0.0,0.0,0.0,-2.3477,-2.3389,-2.3389,-2.3165,-2.3078,-2.3078,-2.3078,-2.3253,-2.3578,-2.2995,-2.3058,-2.3566,-2.2824,-2.2825,-2.3376,-2.314,-2.3078,-2.3078,-2.3078,-2.3078,-2.3078,-2.3078,-2.3078,-2.3078,-2.3078,-2.3078,-2.3185,-2.3767,-2.461,-2.5508,-2.6014,-2.6811,-2.7625,-2.7625,-2.7625,-2.7625,-2.7625,-2.7625,-2.7625,-2.7625,-2.7625,-2.7625,-2.7625,-2.7625,-2.7625,-2.7625,-2.7625,-2.7625,-2.7625,-2.7625,-2.7625,-2.7625,-2.7625,-2.7625,-2.7625,-2.7625,-2.7625,-2.7625,-2.7625,-2.7625,-2.7625,-2.7625,-2.7625,-2.7625,-2.776,-2.8222,-2.8996,-2.9848,-3.0393,-3.0559,-3.0975,-3.119,-3.119,-3.119,-3.119,-3.119,-3.119,-3.119,-0.7767,0.0,0.0,0.0,0.0,0.0,0.0,0.0,0.0,0.0,0.0,0.0,0.0,0.0,0.0,0.0,0.0,0.0,0.0,0.0,0.0,0.0,0.0,0.0,0.0,0.0,0.0,0.0,0.0,0.0,0.0,0.0,0.0,0.0,-2.3078,-2.3078,-2.3078,-2.3078,-2.3078,-2.3078,-2.3078,-2.3078,-2.3078,-2.2261,-2.2322,-2.3078,-2.2567,-2.2641,-2.3078,-2.3078,-2.3078,-2.3078,-2.3078,-2.3078,-2.3078,-2.3078,-2.3078,-2.3078,-2.3078,-2.3078,-2.3245,-2.406,-2.4794,-2.5563,-2.6283,-2.7049,-2.7625,-2.7625,-2.7625,-2.7625,-2.7625,-2.7625,-2.7625,-2.7625,-2.7625,-2.7625,-2.7625,-2.7625,-2.7625,-2.7625,-2.7625,-2.7625,-2.7625,-2.7625,-2.7625,-2.7625,-2.7625,-2.7625,-2.7625,-2.7625,-2.7625,-2.7625,-2.7625,-2.7625,-2.7625,-2.7625,-2.7625,-2.7625,-2.7625,-2.776,-2.814,-2.9088,-2.9805,-3.0293,-3.0658,-3.0975,-3.119,-3.119,-3.119,-3.119,-3.119,-3.119,0.0,0.0,0.0,0.0,0.0,0.0,0.0,0.0,0.0,0.0,0.0,0.0,0.0,0.0,0.0,0.0,0.0,0.0,0.0,0.0,0.0,0.0,0.0,0.0,0.0,0.0,0.0,0.0,0.0,0.0,0.0,0.0,0.0,0.0,-2.3078,-2.3078,-2.3078,-2.3078,-2.3078,0.0,-2.3078,-2.3078,-2.3078,-2.2261,-2.2322,-2.3005,-2.3078,-2.3078,-2.3078,-2.3078,-2.3078,-2.3078,-2.3078,-2.3078,-2.3078,-2.3078,-2.3078,-2.3078,-2.3078,-2.3078,-2.3245,-2.406,-2.4738,-2.5453,-2.6176,-2.693,-2.7509,-2.7509,-2.7575,-2.7625,-2.7625,-2.7625,-2.7625,-2.7625,-2.7625,-2.7625,-2.7625,-2.7625,-2.7625,-2.7625,-2.7625,-2.7625,-2.7625,-2.7625,-2.7625,-2.7625,-2.7625,-2.7625,-2.7625,-2.7625,-2.7625,-2.7625,-2.7625,-2.7625,-2.7625,-2.7625,-2.7625,-2.7625,-2.7625,-2.7625,-2.7625,-2.814,-2.895,-3.0021,-3.0251,-3.0601,-3.1112,-3.119,-3.119,-3.119,-3.119,-3.119,0.0,0.0,0.0,0.0,0.0,0.0,0.0,0.0,0.0,0.0,0.0,0.0,0.0,0.0,0.0,0.0,0.0,0.0,0.0,0.0,0.0,0.0,0.0,0.0,0.0,0.0,0.0,0.0,0.0,0.0,0.0,0.0,0.0,-2.3078,-2.3078,-2.3078,-2.3078,-2.3078,-2.3078,0.0,-2.3078,-2.3078,-2.3078,-2.2261,-2.2002,-2.2187,-2.2823,-2.3078,-2.3078,-2.3078,-2.3078,-2.3078,-2.3078,-2.3078,-2.3078,-2.3078,-2.3078,-2.3078,-2.3078,-2.3078,-2.3245,-2.406,-2.4408,-2.4681,-2.5398,-2.6176,-2.6721,-2.6721,-2.7152,-2.7625,-2.7625,-2.7625,-2.7625,-2.7625,-2.7625,-2.7625,-2.7625,-2.7625,-2.7625,-2.7625,-2.7625,-2.7625,-2.7625,-2.7625,-2.7625,-2.7625,-2.7625,-2.7625,-2.7625,-2.7625,-2.7625,-2.7625,-2.7625,-2.7625,-2.7625,-2.7625,-2.7625,-2.7625,-2.7625,-2.7625,-2.7625,-2.771,-2.7894,-2.8174,-3.0021,-3.0838,-3.0477,-3.0975,-3.119,-3.119,-3.119,-3.119,0.0,0.0,0.0,0.0,0.0,0.0,0.0,0.0,0.0,0.0,0.0,0.0,0.0,0.0,0.0,0.0,0.0,0.0,0.0,0.0,0.0,0.0,0.0,0.0,0.0,0.0,0.0,0.0,0.0,0.0,0.0,-2.2598,-2.2736,-2.2736,-2.2736,-2.2736,-2.2736,-2.2472,-2.2347,-2.2347,-2.2347,-2.2347,-2.2359,-2.2455,-2.2261,-2.1939,-2.2763,-2.3078,-2.3078,-2.3078,-2.3078,-2.3078,-2.3078,-2.3078,-2.3078,-2.3078,-2.3078,-2.3078,-2.3078,-2.3078,-2.3245,-2.406,-2.4292,-2.4452,-2.5175,-2.5906,-2.651,-2.651,-2.7034,-2.7625,-2.7625,-2.7625,-2.7625,-2.7625,-2.7625,-2.7625,-2.7625,-2.7625,-2.7625,-2.7625,-2.7625,-2.7625,-2.7625,-2.7625,-2.7625,-2.7625,-2.7625,-2.7625,-2.7625,-2.7625,-2.7625,-2.7625,-2.7625,-2.7625,-2.7625,-2.7625,-2.7625,-2.7625,-2.7625,-2.7625,-2.7625,-2.7625,-2.7625,-2.7625,-2.9118,-3.0038,-3.0293,-3.0617,-3.0918,-3.119,-3.0878,-3.0781,0.0,0.0,0.0,0.0,0.0,0.0,0.0,0.0,0.0,0.0,0.0,0.0,0.0,0.0,0.0,0.0,0.0,0.0,0.0,0.0,0.0,0.0,0.0,0.0,0.0,0.0,0.0,0.0,0.0,0.0,-2.1493,-2.192,-2.2171,-2.2171,-2.2171,-2.2171,-2.2171,-2.1719,-2.1437,-2.1313,-2.1188,-2.1131,-2.1156,-2.2188,-2.2407,-2.1993,-2.2675,-2.2977,-2.3078,-2.3078,-2.3078,-2.3078,-2.3078,-2.3078,-2.3078,-2.3078,-2.3078,-2.3078,-2.3078,-2.3078,-2.3185,-2.3884,-2.4118,-2.4234,-2.4838,-2.5508,-2.6122,-2.6122,-2.6759,-2.7408,-2.7408,-2.7509,-2.7625,-2.7625,-2.7625,-2.7625,-2.7625,-2.7625,-2.7625,-2.7625,-2.7625,-2.7625,-2.7625,-2.7625,-2.7625,-2.7625,-2.7625,-2.7625,-2.7625,-2.7625,-2.7625,-2.7625,-2.7625,-2.7625,-2.7625,-2.7625,-2.7625,-2.7625,-2.7625,-2.7625,-2.7625,-2.7625,-2.7625,-2.7625,-2.8222,-2.9042,-2.9995,-3.0208,-3.0518,-3.0878,-3.0477,-3.0251,0.0,0.0,0.0,0.0,0.0,0.0,0.0,0.0,0.0,0.0,0.0,0.0,0.0,0.0,0.0,0.0,0.0,0.0,0.0,0.0,0.0,0.0,0.0,0.0,0.0,0.0,0.0,0.0,0.0,0.0,-2.1493,-2.1556,-2.1594,-2.1594,-2.1594,-2.1594,-2.1594,-2.1531,-2.1188,-2.055,-1.989,-1.9608,-1.9608,-2.0392,-2.1311,-2.2234,-2.2364,-2.2686,-2.3078,-2.3078,-2.3078,-2.3078,-2.3078,-2.3078,-2.3078,-2.3078,-2.3078,-2.3078,-2.3078,-2.3078,-2.3138,-2.3258,-2.3245,-2.3305,-2.3365,-2.393,-2.4567,-2.4567,-2.5563,-2.6669,-2.6669,-2.7137,-2.7625,-2.7625,-2.7625,-2.7625,-2.7625,-2.7625,-2.7625,-2.7625,-2.7625,-2.7625,-2.7625,-2.7625,-2.7625,-2.7625,-2.7625,-2.7625,-2.7625,-2.7625,-2.7625,-2.7625,-2.7625,-2.7625,-2.7625,-2.7625,-2.7625,-2.7625,-2.7625,-2.7625,-2.7625,-2.7625,-2.7625,-2.7625,-2.8336,-2.8764,-2.8732,-2.9805,-3.0081,-2.9629,-3.0081,-3.0021,0.0,0.0,0.0,0.0,0.0,0.0,0.0,0.0,0.0,0.0,0.0,0.0,0.0,0.0,0.0,0.0,0.0,0.0,0.0,0.0,0.0,0.0,0.0,0.0,0.0,0.0,0.0,0.0,0.0,-2.0539,-2.0539,-2.0501,-2.0452,-2.0452,-2.0452,-2.0452,-2.0452,-2.054,-2.0205,-1.9416,-1.8679,-1.8351,-1.8351,-1.8691,-1.9698,-2.1247,-2.1674,-2.1995,-2.2209,-2.2209,-2.2209,-2.2209,-2.2209,-2.2397,-2.2673,-2.2673,-2.2874,-2.3078,-2.3078,-2.3078,-2.3078,-2.3078,-2.3078,-2.3078,-2.3078,-2.3649,-2.4292,-2.4292,-2.5342,-2.651,-2.651,-2.7034,-2.7625,-2.7625,-2.7625,-2.7625,-2.7625,-2.7625,-2.7625,-2.7625,-2.7625,-2.7625,-2.7625,-2.7625,-2.7625,-2.7625,-2.7625,-2.7625,-2.7625,-2.7625,-2.7625,-2.7625,-2.7625,-2.7625,-2.7625,-2.7625,-2.7625,-2.7625,-2.7625,-2.7625,-2.7625,-2.7625,-2.7625,-2.7625,-2.7944,-2.8271,-2.8511,-2.9042,-2.9316,-2.9406,-2.9316,-2.9134,0.0,0.0,0.0,0.0,0.0,0.0,0.0,0.0,0.0,0.0,0.0,0.0,0.0,0.0,0.0,0.0,0.0,0.0,0.0,0.0,0.0,0.0,0.0,0.0,0.0,0.0,0.0,0.0,0.0,-1.9254,-1.9254,-1.9161,-1.9101,-1.9101,-1.9266,-1.9376,-1.9376,-1.9462,-1.9254,-1.8715,-1.795,-1.7523,-1.7357,-1.7688,-1.8539,-1.9733,-2.0636,-2.1188,-2.1493,-2.1493,-2.1493,-2.1493,-2.1493,-2.1744,-2.2108,-2.2108,-2.2359,-2.2736,-2.2874,-2.2924,-2.2949,-2.3088,-2.3078,-2.3078,-2.3078,-2.3543,-2.4002,-2.4002,-2.4781,-2.5714,-2.5946,-2.6811,-2.756,-2.7357,-2.7458,-2.7625,-2.7625,-2.7625,-2.7625,-2.7625,-2.7625,-2.7625,-2.7625,-2.7625,-2.7625,-2.7625,-2.7625,-2.7625,-2.7625,-2.7625,-2.7625,-2.7625,-2.7625,-2.7625,-2.7625,-2.7625,-2.7625,-2.7625,-2.7625,-2.7625,-2.7625,-2.7625,-2.7625,-2.7625,-2.7625,-2.781,-2.8271,-2.8431,-2.8638,-2.895,-2.8638,-2.8415,0.0,0.0,0.0,0.0,0.0,0.0,0.0,0.0,0.0,0.0,0.0,0.0,0.0,0.0,0.0,0.0,0.0,0.0,0.0,0.0,0.0,0.0,0.0,0.0,0.0,0.0,0.0,0.0,0.0,-1.7688,-1.7688,-1.771,-1.7722,-1.7722,-1.8375,-1.8762,-1.8762,-1.8727,-1.8715,-1.8715,-1.795,-1.7246,-1.6595,-1.8015,-1.8309,-1.7844,-1.9124,-2.0372,-2.1493,-2.1493,-2.1493,-2.1493,-2.1493,-2.1506,-2.1531,-2.1531,-2.1543,-2.1644,-2.2171,-2.2347,-2.2447,-2.2902,-2.3078,-2.3078,-2.3078,-2.3138,-2.3125,-2.3125,-2.3185,-2.3531,-2.4469,-2.6119,-2.7408,-2.6721,-2.7086,-2.7625,-2.7625,-2.7625,-2.7625,-2.7625,-2.7625,-2.7625,-2.7625,-2.7625,-2.7625,-2.7625,-2.7625,-2.7625,-2.7625,-2.7625,-2.7625,-2.7625,-2.7625,-2.7625,-2.7625,-2.7625,-2.7625,-2.7625,-2.7625,-2.7625,-2.7625,-2.7625,-2.7625,-2.7625,-2.7625,-2.7625,-2.7675,-2.8238,-2.8238,-2.771,-2.8238,-2.8189,0.0,0.0,0.0,0.0,0.0,0.0,0.0,0.0,0.0,0.0,0.0,0.0,0.0,0.0,0.0,0.0,0.0,0.0,0.0,0.0,0.0,0.0,0.0,0.0,0.0,0.0,0.0,0.0,0.0,0.0,-1.7578,-1.7146,-1.6866,-1.6866,-1.7146,-1.7743,-1.8715,-1.7731,-1.7523,-1.795,-1.68,-1.6026,-1.5806,-1.6348,-1.6957,-1.7644,-1.81,-1.9107,-2.0413,-2.0413,-2.0413,-2.0413,-2.0413,-2.0639,-2.0966,-2.0966,-2.1179,-2.1518,-2.1707,-2.1782,-2.182,-2.202,-2.2083,-2.2121,-2.2359,-2.2376,-2.2464,-2.294,-2.3078,-2.3185,-2.3518,-2.4627,-2.5795,-2.639,-2.7034,-2.7625,-2.7625,-2.7625,-2.7625,-2.7625,-2.7625,-2.7625,-2.7625,-2.7625,-2.7625,-2.7625,-2.7625,-2.7625,-2.7625,-2.7625,-2.7625,-2.7625,-2.7625,-2.7625,-2.7625,-2.7625,-2.7625,-2.7625,-2.7625,-2.7625,-2.7625,-2.7625,-2.7625,-2.7625,-2.7625,-2.7625,-2.7625,-2.781,-2.781,-2.7625,-2.781,-2.781,0.0,0.0,0.0,0.0,0.0,0.0,0.0,0.0,0.0,0.0,0.0,0.0,0.0,0.0,0.0,0.0,0.0,0.0,0.0,0.0,0.0,0.0,0.0,0.0,0.0,0.0,0.0,0.0,0.0,0.0,-1.6439,-1.5967,-1.5801,-1.6066,-1.6066,-1.6656,-1.7943,-1.7151,-1.6937,-1.7205,-1.6385,-1.579,-1.5365,-1.5731,-1.6353,-1.706,-1.7445,-1.8447,-1.9798,-1.9798,-1.9798,-1.9798,-1.9798,-2.0037,-2.0376,-2.0376,-2.0614,-2.0953,-2.1142,-2.1204,-2.1242,-2.143,-2.1493,-2.1556,-2.1875,-2.2151,-2.2451,-2.294,-2.3078,-2.2902,-2.2209,-2.2878,-2.4182,-2.6012,-2.6593,-2.6811,-2.7126,-2.7415,-2.7625,-2.7625,-2.7625,-2.7625,-2.7625,-2.7625,-2.724,-2.624,-2.6953,-2.724,-2.624,-2.6953,-2.7625,-2.7625,-2.7625,-2.7625,-2.7625,-2.7625,-2.7625,-2.7625,-2.7625,-2.7625,-2.7625,-2.7625,-2.7625,-2.7625,-2.7625,-2.7625,-2.7625,-2.7625,-2.7625,-2.7625,-2.7625,-2.7625,0.0,0.0,0.0,0.0,0.0,0.0,0.0,0.0,0.0,0.0,0.0,0.0,0.0,0.0,0.0,0.0,0.0,0.0,0.0,0.0,0.0,0.0,0.0,0.0,0.0,0.0,0.0,0.0,0.0,-1.4077,-1.4077,-1.4077,-1.443,-1.5133,-1.5184,-1.5556,-1.635,-1.6936,-1.6936,-1.635,-1.6936,-1.6505,-1.5195,-1.6398,-1.6512,-1.5944,-1.7071,-1.837,-1.9722,-1.9747,-1.9747,-1.9747,-1.9747,-1.9747,-1.9747,-1.9747,-1.9798,-1.9874,-2.0492,-2.0693,-2.0781,-2.1267,-2.1443,-2.1506,-2.187,-2.2414,-2.2977,-2.2977,-2.2977,-2.2535,-2.0363,-2.0878,-2.2665,-2.55,-2.5579,-2.5265,-2.6143,-2.701,-2.7625,-2.7625,-2.7625,-2.7625,-2.7625,-2.7509,-2.6453,-2.3518,-2.5577,-2.64,-2.3471,-2.5686,-2.7458,-2.7458,-2.756,-2.756,-2.7458,-2.7458,-2.7458,-2.7509,-2.756,-2.756,-2.7575,-2.7575,-2.7625,-2.7625,-2.7625,-2.761,-2.7595,-2.761,-2.7625,-2.7625,-2.7625,-2.7625,-0.3619,0.0,0.0,0.0,0.0,0.0,0.0,0.0,0.0,0.0,0.0,0.0,0.0,0.0,0.0,0.0,0.0,0.0,0.0,0.0,0.0,0.0,0.0,0.0,0.0,0.0,0.0,0.0,-1.4077,-1.4077,-1.4077,-1.4077,-1.4184,-1.4377,-1.4377,-1.4788,-1.5493,-1.5143,-1.5143,-1.5556,-1.5143,-1.4788,-1.444,-1.4773,-1.5079,-1.5458,-1.6084,-1.6882,-1.7827,-1.8082,-1.8232,-1.8232,-1.8232,-1.8555,-1.898,-1.898,-1.9359,-1.9823,-1.9987,-2.0037,-2.0062,-2.0213,-2.0263,-2.0288,-2.0388,-2.0564,-2.0727,-2.0727,-2.0727,-2.0577,-1.9962,-2.0112,-2.1038,-2.3656,-2.4624,-2.5423,-2.6917,-2.7445,-2.7625,-2.7625,-2.7625,-2.7625,-2.7625,-2.5795,-2.4079,-2.3245,-2.38,-2.4021,-2.3185,-2.3859,-2.4355,-2.4355,-2.6293,-2.673,-2.4513,-2.4355,-2.4684,-2.5412,-2.6119,-2.6573,-2.6826,-2.7306,-2.7625,-2.7625,-2.7625,-2.7335,-2.6856,-2.7335,-2.7625,-2.7625,-2.7625,-2.7625,0.0,0.0,0.0,0.0,0.0,0.0,0.0,0.0,0.0,0.0,0.0,0.0,0.0,0.0,0.0,0.0,0.0,0.0,0.0,0.0,0.0,0.0,0.0,0.0,0.0,0.0,0.0,-1.3613,-1.3613,-1.3613,-1.3613,-1.3613,-1.3613,-1.3613,-1.3613,-1.3952,-1.4616,-1.4426,-1.4426,-1.4616,-1.4426,-1.4094,-1.3613,-1.3789,-1.4066,-1.4543,-1.4983,-1.5392,-1.5797,-1.6265,-1.6895,-1.7633,-1.795,-1.8112,-1.8286,-1.8608,-1.8768,-1.898,-1.9592,-1.9592,-1.9371,-1.9695,-1.9798,-1.9798,-1.9798,-1.9798,-1.9798,-1.9798,-1.9798,-1.9798,-1.9798,-1.9798,-2.0309,-2.2304,-2.2777,-2.3409,-2.5494,-2.5081,-2.4969,-2.7184,-2.6573,-2.5741,-2.5741,-2.4239,-2.3078,-2.3078,-2.3078,-2.3078,-2.3078,-2.3078,-2.3078,-2.3078,-2.4684,-2.5022,-2.3245,-2.3078,-2.3518,-2.4513,-2.537,-2.604,-2.6457,-2.6667,-2.6891,-2.7156,-2.6901,-2.6662,-2.6467,-2.6931,-2.7156,-2.7171,-2.744,-2.7625,0.0,0.0,0.0,0.0,0.0,0.0,-0.5826,-0.5692,0.0,0.0,0.0,0.0,0.0,0.0,0.0,0.0,0.0,0.0,0.0,0.0,0.0,0.0,0.0,0.0,0.0,-1.2881,-1.2881,-1.2881,-1.2881,-1.2881,-1.2881,-1.2881,-1.2929,-1.3017,-1.3017,-1.3238,-1.3768,-1.4329,-1.4283,-1.3732,-1.4247,-1.3931,-1.2891,-1.3271,-1.3437,-1.3467,-1.3887,-1.4009,-1.4102,-1.4641,-1.5825,-1.7335,-1.8035,-1.8004,-1.7578,-1.8221,-1.8112,-1.7797,-1.9202,-1.9254,-1.8821,-1.9579,-1.9798,-1.9798,-1.9798,-1.9798,-1.9798,-1.9798,-1.9798,-1.9798,-1.9798,-1.9798,-2.0093,-2.1232,-2.0607,-2.0421,-2.2696,-2.1411,-2.1172,-2.5807,-2.4558,-2.2777,-2.3027,-2.3078,-2.3078,-2.3078,-2.3078,-2.3078,-2.3078,-2.3078,-2.3078,-2.3078,-2.3078,-2.3078,-2.3078,-2.2965,-2.3306,-2.4249,-2.483,-2.5423,-2.6136,-2.5667,-2.5733,-2.6482,-2.5854,-2.5734,-2.6171,-2.6408,-2.6557,-2.6572,-2.7156,-2.749,-0.5324,-0.5571,-0.5793,0.0,0.0,0.0,0.0,-0.5371,0.0,0.0,0.0,0.0,0.0,0.0,0.0,0.0,0.0,0.0,0.0,0.0,0.0,0.0,0.0,0.0,0.0,-1.2881,-1.2881,-1.2881,-1.2881,-1.2881,-1.2881,-1.2881,-1.3104,-1.36,-1.3637,-1.3684,-1.3815,-1.3909,-1.3695,-1.3055,-1.32,-1.3113,-1.2881,-1.2969,-1.2998,-1.3027,-1.3447,-1.3633,-1.3714,-1.4737,-1.5188,-1.5371,-1.5883,-1.6301,-1.6708,-1.6877,-1.7191,-1.7743,-1.8608,-1.8821,-1.8821,-1.9579,-1.9798,-1.9798,-1.9798,-1.9798,-1.9798,-1.9798,-1.9798,-1.9798,-1.9798,-1.9798,-1.985,-2.008,-1.9991,-1.994,-2.0421,-2.0131,-2.0118,-2.1094,-2.0848,-2.1029,-2.2765,-2.3078,-2.3078,-2.3078,-2.3078,-2.3078,-2.3078,-2.3078,-2.3078,-2.3078,-2.3078,-2.3078,-2.3078,-2.2322,-2.2052,-2.2712,-2.3021,-2.3446,-2.4156,-2.459,-2.5126,-2.5794,-2.533,-2.5182,-2.5272,-2.6021,-2.6381,-2.6381,-2.6516,-2.6666,0.0,0.0,-0.6337,-0.5963,0.0,0.0,0.0,0.0,0.0,0.0,0.0,0.0,0.0,0.0,0.0,0.0,0.0,0.0,0.0,0.0,0.0,0.0,0.0,0.0,0.0,-1.2754,-1.2881,-1.2881,-1.2881,-1.2881,-1.2881,-1.2881,-1.3065,-1.3334,-1.3324,-1.3647,-1.4236,-1.3956,-1.3779,-1.3789,-1.3467,-1.319,-1.2881,-1.2881,-1.2881,-1.2891,-1.3105,-1.3193,-1.3273,-1.4033,-1.425,-1.4243,-1.5029,-1.5442,-1.5767,-1.6469,-1.6884,-1.7246,-1.8715,-1.8992,-1.8821,-1.9579,-1.9798,-1.9798,-1.9798,-1.9798,-1.9798,-1.9798,-1.9798,-1.9798,-1.9798,-1.9798,-1.9798,-1.9798,-1.9798,-1.9798,-1.9798,-1.9798,-1.9798,-1.9798,-1.9798,-2.0162,-2.128,-2.1468,-2.1468,-2.1468,-2.1468,-2.1468,-2.1468,-2.2447,-2.3078,-2.3078,-2.3078,-2.2852,-2.2359,-2.1807,-2.1606,-2.1882,-2.201,-2.2376,-2.3055,-2.3473,-2.3947,-2.4567,-2.4388,-2.4283,-2.4283,-2.4717,-2.4926,-2.4941,-2.5452,-2.5794,0.0,0.0,0.0,0.0,0.0,-0.6525,0.0,0.0,0.0,-0.66,0.0,0.0,0.0,0.0,0.0,0.0,0.0,0.0,0.0,0.0,0.0,0.0,0.0,0.0,0.0,-1.2297,-1.2607,-1.2861,-1.2646,-1.2617,-1.2871,-1.2881,-1.2978,-1.3065,-1.3065,-1.3515,-1.4514,-1.405,-1.4003,-1.434,-1.3873,-1.3372,-1.2881,-1.2881,-1.2881,-1.2881,-1.2881,-1.2881,-1.291,-1.3242,-1.3389,-1.3478,-1.4584,-1.4854,-1.4824,-1.5978,-1.6332,-1.6499,-1.8417,-1.8794,-1.8534,-1.9342,-1.9723,-1.9798,-1.9798,-1.9798,-1.9798,-1.9798,-1.9798,-1.9798,-1.9798,-1.9798,-1.9798,-1.9798,-1.9798,-1.9798,-1.9798,-1.9798,-1.9798,-1.9798,-1.9798,-1.9798,-1.9798,-1.9798,-1.9798,-1.9798,-1.9798,-1.9798,-1.9798,-2.138,-2.2426,-2.2426,-2.2426,-2.2133,-2.1242,-2.1154,-2.1204,-2.133,-2.123,-2.147,-2.2234,-2.2483,-2.2918,-2.361,-2.3595,-2.3595,-2.3595,-2.3595,-2.3595,-2.361,-2.4402,-2.4956,0.0,0.0,0.0,0.0,-0.7188,0.0,0.0,0.0,-0.6333,-0.5945,0.0,0.0,0.0,0.0,0.0,0.0,0.0,0.0,0.0,0.0,0.0,0.0,0.0,0.0,0.0,0.0,-1.1621,-1.2793,-1.1797,-1.165,-1.2822,-1.2881,-1.3152,-1.3684,-1.3684,-1.3779,-1.3909,-1.3815,-1.3552,-1.3113,-1.3017,-1.2978,-1.2881,-1.2881,-1.2881,-1.2881,-1.2881,-1.2881,-1.2881,-1.293,-1.2949,-1.3027,-1.3923,-1.4214,-1.4209,-1.436,-1.4763,-1.5384,-1.6294,-1.6888,-1.7468,-1.8685,-1.9422,-1.9798,-1.9798,-1.9798,-1.9798,-1.9798,-1.9798,-1.9798,-1.9798,-1.9798,-1.9798,-1.9798,-1.9798,-1.9798,-1.9798,-1.9798,-1.9798,-1.9798,-1.9798,-1.9798,-1.9798,-1.9798,-1.9798,-1.9798,-1.9798,-1.9798,-1.9798,-2.0024,-2.0175,-2.0175,-2.0175,-2.0125,-1.9999,-1.9999,-2.0213,-2.0781,-2.0275,-2.0297,-2.0993,-2.208,-2.2992,-2.361,-2.3595,-2.3595,-2.3595,-2.3595,-2.3595,-2.3595,-2.3714,-2.4103,0.0,0.0,0.0,0.0,0.0,0.0,0.0,0.0,-0.6152,0.0,0.0,0.0,0.0,0.0,0.0,0.0,0.0,0.0,0.0,0.0,0.0,0.0,0.0,0.0,0.0,0.0,0.0,0.0,0.0,-1.1123,-1.2432,-1.25,-1.275,-1.3276,-1.3286,-1.3467,-1.3815,-1.3467,-1.3334,-1.342,-1.3065,-1.2881,-1.2881,-1.2881,-1.2881,-1.2881,-1.2881,-1.2881,-1.2881,-1.2881,-1.2881,-1.291,-1.3271,-1.3739,-1.4348,-1.4744,-1.547,-1.6327,-1.6677,-1.6973,-1.7252,-1.7698,-1.8262,-1.8863,-1.9105,-1.9475,-1.9798,-1.9798,-1.9798,-1.9798,-1.9798,-1.9798,-1.9798,-1.9798,-1.9798,-1.9798,-1.9798,-1.9798,-1.9798,-1.9798,-1.9798,-1.9798,-1.9798,-1.9798,-1.9798,-1.9798,-1.9798,-1.9798,-1.9798,-1.9798,-1.9798,-1.9798,-1.9798,-1.9798,-1.9798,-1.9798,-1.9911,-2.015,-1.9936,-2.0283,-2.1293,-2.1819,-2.2575,-2.3595,-2.3595,-2.3595,-2.3595,-2.3595,-2.3595,-2.3595,-2.3595,-2.3759,-0.6745,0.0,0.0,0.0,0.0,0.0,0.0,0.0,0.0,0.0,0.0,0.0,0.0,0.0,0.0,0.0,0.0,0.0,0.0,0.0,0.0,0.0,0.0,0.0,0.0,0.0,0.0,0.0,0.0,0.0,-1.1963,-1.2051,-1.2305,-1.2861,-1.2881,-1.3104,-1.3552,-1.3104,-1.3104,-1.3552,-1.3104,-1.2881,-1.2881,-1.2881,-1.2881,-1.2881,-1.2881,-1.2881,-1.2881,-1.2881,-1.2881,-1.2881,-1.2881,-1.3429,-1.4261,-1.4661,-1.5352,-1.619,-1.6309,-1.6547,-1.6771,-1.6644,-1.7157,-1.7871,-1.8394,-1.8988,-1.9527,-1.9747,-1.9798,-1.9747,-1.9488,-1.9592,-1.9798,-1.9798,-1.9798,-1.9798,-1.9798,-1.9798,-1.9798,-1.9798,-1.9798,-1.9798,-1.9798,-1.9798,-1.9798,-1.9798,-1.9798,-1.9798,-1.9798,-1.9798,-1.9798,-1.9798,-1.9798,-1.9798,-1.9798,-1.9798,-1.9798,-1.9798,-1.9798,-2.0283,-2.1424,-2.1472,-2.2039,-2.3231,-2.3275,-2.3275,-2.3275,-2.3275,-2.3363,-2.3595,-2.3595,-2.3595,0.0,0.0,0.0,-0.6342,0.0,0.0,0.0,0.0,-0.6567,0.0,0.0,0.0,0.0,0.0,0.0,0.0,0.0,0.0,0.0,0.0,0.0,0.0,0.0,0.0,0.0,0.0,0.0,0.0,0.0,0.0,-1.1489,-1.1626,-1.2028,-1.2852,-1.2881,-1.2929,-1.2929,-1.2929,-1.2929,-1.2929,-1.2929,-1.2881,-1.2881,-1.2881,-1.2881,-1.2881,-1.2881,-1.2881,-1.2881,-1.2881,-1.2881,-1.2881,-1.2881,-1.3296,-1.3752,-1.3172,-1.3364,-1.3915,-1.3905,-1.4631,-1.5556,-1.5567,-1.6232,-1.7179,-1.7875,-1.8426,-1.8874,-1.9592,-1.9798,-1.9592,-1.8697,-1.9121,-1.9798,-1.9798,-1.9798,-1.9798,-1.9798,-1.9798,-1.9798,-1.9798,-1.9798,-1.9798,-1.9798,-1.9798,-1.9798,-1.9798,-1.9798,-1.9798,-1.9798,-1.9798,-1.9798,-1.9798,-1.9798,-1.9798,-1.9798,-1.9798,-1.9798,-1.9798,-1.9798,-2.0105,-2.0795,-2.0845,-2.1321,-2.242,-2.2466,-2.2466,-2.2466,-2.2466,-2.2815,-2.3595,-2.3595,-2.3595,0.0,0.0,-0.6918,-0.6605,0.0,0.0,0.0,0.0,0.0,0.0,0.0,0.0,0.0,0.0,0.0,0.0,0.0,0.0,0.0,0.0,0.0,0.0,0.0,0.0,0.0,0.0,0.0,0.0,0.0,0.0,0.0,-1.1292,-1.1881,-1.2432,-1.2734,-1.2881,-1.2881,-1.2881,-1.2881,-1.2881,-1.2881,-1.2881,-1.2881,-1.2881,-1.2881,-1.2881,-1.2881,-1.2881,-1.2881,-1.2881,-1.2881,-1.2881,-1.2881,-1.3017,-1.3238,-1.342,-1.3873,-1.4329,-1.3956,-1.3788,-1.3793,-1.4091,-1.4731,-1.5549,-1.6378,-1.707,-1.7698,-1.8193,-1.8328,-1.834,-1.8363,-1.8135,-1.795,-1.8274,-1.9097,-1.9798,-1.9798,-1.9798,-1.9798,-1.9798,-1.9798,-1.9798,-1.9798,-1.9798,-1.9798,-1.9798,-1.9798,-1.9798,-1.9798,-1.9798,-1.9798,-1.9798,-1.9798,-1.9798,-1.9798,-1.9798,-1.9798,-1.9798,-1.9798,-2.0105,-2.0746,-2.0795,-2.1175,-2.1899,-2.196,-2.196,-2.196,-2.196,-2.2285,-2.3009,-2.3009,-2.3231,-0.5164,-0.5655,0.0,-0.6071,-0.5981,0.0,-0.5668,0.0,0.0,0.0,0.0,0.0,0.0,0.0,0.0,0.0,0.0,0.0,0.0,0.0,0.0,0.0,0.0,0.0,0.0,0.0,-0.6396,-0.7061,0.0,0.0,0.0,0.0,-1.1602,-1.2161,-1.2656,-1.2881,-1.2881,-1.2881,-1.2881,-1.2881,-1.2881,-1.2881,-1.2881,-1.2881,-1.2881,-1.2881,-1.2881,-1.2881,-1.2881,-1.2881,-1.2881,-1.2881,-1.2881,-1.2881,-1.2978,-1.3334,-1.3742,-1.4025,-1.36,-1.3248,-1.293,-1.3193,-1.3711,-1.4417,-1.5353,-1.6127,-1.674,-1.7378,-1.7578,-1.7633,-1.7699,-1.7644,-1.7578,-1.7578,-1.8715,-1.9798,-1.9798,-1.9798,-1.9798,-1.9798,-1.9579,-1.9319,-1.9044,-1.9162,-1.9436,-1.9747,-1.9798,-1.9423,-1.837,-1.8886,-1.9319,-1.9319,-1.9592,-1.9798,-1.9798,-1.9798,-1.9798,-1.9798,-1.9798,-2.0003,-2.0459,-2.0446,-2.0633,-2.1037,-2.1037,-2.1135,-2.139,-2.139,-2.1819,-2.2694,-2.2694,-2.3009]}]]